<?xml version="1.0" encoding="UTF-8" standalone="no" ?>
<gpx xmlns="http://www.topografix.com/GPX/1/1" xmlns:xsi="http://www.w3.org/2001/XMLSchema-instance" xsi:schemaLocation="http://www.topografix.com/GPX/1/1 http://www.topografix.com/GPX/1/1/gpx.xsd" version="1.1" creator="VisuGPX - https://www.visugpx.com">
  <metadata>
    <name>La Cucumelle </name>
    <desc><![CDATA[Les Bez-La Cucumelle ]]></desc>
  </metadata>
  <trk>
    <name><![CDATA[Traccia corrente: 04 MAG 2013 07:03]]></name>
    <trkseg>
      <trkpt lat="44.94533" lon="6.55285">
        <ele>1414.24</ele>
        <time>2013-05-04T05:12:36Z</time>
      </trkpt>
      <trkpt lat="44.94533" lon="6.55285">
        <ele>1414.24</ele>
        <time>2013-05-04T05:12:37Z</time>
      </trkpt>
      <trkpt lat="44.94531" lon="6.55283">
        <ele>1414.24</ele>
        <time>2013-05-04T05:12:50Z</time>
      </trkpt>
      <trkpt lat="44.94536" lon="6.55281">
        <ele>1414.72</ele>
        <time>2013-05-04T05:13:03Z</time>
      </trkpt>
      <trkpt lat="44.94542" lon="6.55277">
        <ele>1414.24</ele>
        <time>2013-05-04T05:13:16Z</time>
      </trkpt>
      <trkpt lat="44.94542" lon="6.55267">
        <ele>1414.24</ele>
        <time>2013-05-04T05:13:26Z</time>
      </trkpt>
      <trkpt lat="44.94542" lon="6.5526">
        <ele>1414.24</ele>
        <time>2013-05-04T05:13:34Z</time>
      </trkpt>
      <trkpt lat="44.94543" lon="6.5524">
        <ele>1414.24</ele>
        <time>2013-05-04T05:13:49Z</time>
      </trkpt>
      <trkpt lat="44.94543" lon="6.55239">
        <ele>1414.24</ele>
        <time>2013-05-04T05:13:50Z</time>
      </trkpt>
      <trkpt lat="44.94542" lon="6.55232">
        <ele>1414.24</ele>
        <time>2013-05-04T05:13:54Z</time>
      </trkpt>
      <trkpt lat="44.94544" lon="6.55224">
        <ele>1414.24</ele>
        <time>2013-05-04T05:14:00Z</time>
      </trkpt>
      <trkpt lat="44.94545" lon="6.55221">
        <ele>1414.24</ele>
        <time>2013-05-04T05:14:02Z</time>
      </trkpt>
      <trkpt lat="44.94549" lon="6.55207">
        <ele>1414.24</ele>
        <time>2013-05-04T05:14:16Z</time>
      </trkpt>
      <trkpt lat="44.94549" lon="6.55205">
        <ele>1415.2</ele>
        <time>2013-05-04T05:14:30Z</time>
      </trkpt>
      <trkpt lat="44.94549" lon="6.55205">
        <ele>1415.2</ele>
        <time>2013-05-04T05:14:51Z</time>
      </trkpt>
      <trkpt lat="44.94549" lon="6.55205">
        <ele>1415.2</ele>
        <time>2013-05-04T05:15:11Z</time>
      </trkpt>
      <trkpt lat="44.94551" lon="6.55202">
        <ele>1415.2</ele>
        <time>2013-05-04T05:15:25Z</time>
      </trkpt>
      <trkpt lat="44.94551" lon="6.55202">
        <ele>1415.2</ele>
        <time>2013-05-04T05:15:49Z</time>
      </trkpt>
      <trkpt lat="44.94549" lon="6.55206">
        <ele>1414.72</ele>
        <time>2013-05-04T05:16:02Z</time>
      </trkpt>
      <trkpt lat="44.94549" lon="6.55205">
        <ele>1414.72</ele>
        <time>2013-05-04T05:16:14Z</time>
      </trkpt>
      <trkpt lat="44.9455" lon="6.55206">
        <ele>1414.72</ele>
        <time>2013-05-04T05:16:27Z</time>
      </trkpt>
      <trkpt lat="44.9455" lon="6.55206">
        <ele>1414.72</ele>
        <time>2013-05-04T05:16:42Z</time>
      </trkpt>
      <trkpt lat="44.94549" lon="6.55206">
        <ele>1415.68</ele>
        <time>2013-05-04T05:17:05Z</time>
      </trkpt>
      <trkpt lat="44.94549" lon="6.55206">
        <ele>1415.68</ele>
        <time>2013-05-04T05:17:29Z</time>
      </trkpt>
      <trkpt lat="44.94549" lon="6.55206">
        <ele>1415.68</ele>
        <time>2013-05-04T05:17:48Z</time>
      </trkpt>
      <trkpt lat="44.9455" lon="6.55204">
        <ele>1415.68</ele>
        <time>2013-05-04T05:18:04Z</time>
      </trkpt>
      <trkpt lat="44.94549" lon="6.55201">
        <ele>1415.68</ele>
        <time>2013-05-04T05:18:16Z</time>
      </trkpt>
      <trkpt lat="44.94549" lon="6.55195">
        <ele>1415.68</ele>
        <time>2013-05-04T05:18:27Z</time>
      </trkpt>
      <trkpt lat="44.94548" lon="6.55192">
        <ele>1415.68</ele>
        <time>2013-05-04T05:18:29Z</time>
      </trkpt>
      <trkpt lat="44.94548" lon="6.5519">
        <ele>1417.12</ele>
        <time>2013-05-04T05:18:31Z</time>
      </trkpt>
      <trkpt lat="44.94547" lon="6.55184">
        <ele>1417.12</ele>
        <time>2013-05-04T05:18:43Z</time>
      </trkpt>
      <trkpt lat="44.94547" lon="6.55184">
        <ele>1417.12</ele>
        <time>2013-05-04T05:18:44Z</time>
      </trkpt>
      <trkpt lat="44.94545" lon="6.55169">
        <ele>1419.04</ele>
        <time>2013-05-04T05:18:56Z</time>
      </trkpt>
      <trkpt lat="44.94545" lon="6.55158">
        <ele>1421.45</ele>
        <time>2013-05-04T05:19:03Z</time>
      </trkpt>
      <trkpt lat="44.94544" lon="6.55149">
        <ele>1420.49</ele>
        <time>2013-05-04T05:19:13Z</time>
      </trkpt>
      <trkpt lat="44.94543" lon="6.55142">
        <ele>1421.45</ele>
        <time>2013-05-04T05:19:18Z</time>
      </trkpt>
      <trkpt lat="44.94544" lon="6.55138">
        <ele>1422.41</ele>
        <time>2013-05-04T05:19:22Z</time>
      </trkpt>
      <trkpt lat="44.94543" lon="6.55134">
        <ele>1422.89</ele>
        <time>2013-05-04T05:19:25Z</time>
      </trkpt>
      <trkpt lat="44.94544" lon="6.55129">
        <ele>1423.37</ele>
        <time>2013-05-04T05:19:29Z</time>
      </trkpt>
      <trkpt lat="44.94543" lon="6.55117">
        <ele>1425.29</ele>
        <time>2013-05-04T05:19:41Z</time>
      </trkpt>
      <trkpt lat="44.94542" lon="6.55111">
        <ele>1426.25</ele>
        <time>2013-05-04T05:19:46Z</time>
      </trkpt>
      <trkpt lat="44.94543" lon="6.55099">
        <ele>1428.18</ele>
        <time>2013-05-04T05:20:01Z</time>
      </trkpt>
      <trkpt lat="44.94542" lon="6.55088">
        <ele>1430.58</ele>
        <time>2013-05-04T05:20:13Z</time>
      </trkpt>
      <trkpt lat="44.94541" lon="6.55082">
        <ele>1432.5</ele>
        <time>2013-05-04T05:20:25Z</time>
      </trkpt>
      <trkpt lat="44.94536" lon="6.55074">
        <ele>1433.46</ele>
        <time>2013-05-04T05:20:38Z</time>
      </trkpt>
      <trkpt lat="44.94535" lon="6.55072">
        <ele>1432.5</ele>
        <time>2013-05-04T05:20:50Z</time>
      </trkpt>
      <trkpt lat="44.94535" lon="6.55072">
        <ele>1432.98</ele>
        <time>2013-05-04T05:21:09Z</time>
      </trkpt>
      <trkpt lat="44.94535" lon="6.55072">
        <ele>1432.98</ele>
        <time>2013-05-04T05:21:49Z</time>
      </trkpt>
      <trkpt lat="44.94536" lon="6.55072">
        <ele>1434.42</ele>
        <time>2013-05-04T05:22:21Z</time>
      </trkpt>
      <trkpt lat="44.94534" lon="6.55069">
        <ele>1434.42</ele>
        <time>2013-05-04T05:22:33Z</time>
      </trkpt>
      <trkpt lat="44.94531" lon="6.55061">
        <ele>1435.39</ele>
        <time>2013-05-04T05:22:39Z</time>
      </trkpt>
      <trkpt lat="44.9453" lon="6.55059">
        <ele>1435.39</ele>
        <time>2013-05-04T05:22:41Z</time>
      </trkpt>
      <trkpt lat="44.94528" lon="6.55056">
        <ele>1435.87</ele>
        <time>2013-05-04T05:22:43Z</time>
      </trkpt>
      <trkpt lat="44.94526" lon="6.55049">
        <ele>1436.83</ele>
        <time>2013-05-04T05:22:50Z</time>
      </trkpt>
      <trkpt lat="44.94524" lon="6.55045">
        <ele>1438.27</ele>
        <time>2013-05-04T05:22:56Z</time>
      </trkpt>
      <trkpt lat="44.94523" lon="6.55042">
        <ele>1438.27</ele>
        <time>2013-05-04T05:22:58Z</time>
      </trkpt>
      <trkpt lat="44.94522" lon="6.5504">
        <ele>1439.71</ele>
        <time>2013-05-04T05:23:01Z</time>
      </trkpt>
      <trkpt lat="44.94521" lon="6.55035">
        <ele>1440.67</ele>
        <time>2013-05-04T05:23:07Z</time>
      </trkpt>
      <trkpt lat="44.94521" lon="6.55029">
        <ele>1440.67</ele>
        <time>2013-05-04T05:23:11Z</time>
      </trkpt>
      <trkpt lat="44.9452" lon="6.55024">
        <ele>1441.63</ele>
        <time>2013-05-04T05:23:17Z</time>
      </trkpt>
      <trkpt lat="44.94519" lon="6.55019">
        <ele>1442.11</ele>
        <time>2013-05-04T05:23:21Z</time>
      </trkpt>
      <trkpt lat="44.94515" lon="6.55012">
        <ele>1444.04</ele>
        <time>2013-05-04T05:23:32Z</time>
      </trkpt>
      <trkpt lat="44.94509" lon="6.55003">
        <ele>1445.96</ele>
        <time>2013-05-04T05:23:44Z</time>
      </trkpt>
      <trkpt lat="44.94504" lon="6.54993">
        <ele>1448.36</ele>
        <time>2013-05-04T05:23:58Z</time>
      </trkpt>
      <trkpt lat="44.945" lon="6.54984">
        <ele>1450.29</ele>
        <time>2013-05-04T05:24:11Z</time>
      </trkpt>
      <trkpt lat="44.94495" lon="6.54976">
        <ele>1451.73</ele>
        <time>2013-05-04T05:24:23Z</time>
      </trkpt>
      <trkpt lat="44.94493" lon="6.54969">
        <ele>1454.13</ele>
        <time>2013-05-04T05:24:35Z</time>
      </trkpt>
      <trkpt lat="44.94489" lon="6.54962">
        <ele>1456.05</ele>
        <time>2013-05-04T05:24:47Z</time>
      </trkpt>
      <trkpt lat="44.94483" lon="6.54956">
        <ele>1457.98</ele>
        <time>2013-05-04T05:25:00Z</time>
      </trkpt>
      <trkpt lat="44.94479" lon="6.5495">
        <ele>1459.42</ele>
        <time>2013-05-04T05:25:12Z</time>
      </trkpt>
      <trkpt lat="44.94472" lon="6.54942">
        <ele>1461.82</ele>
        <time>2013-05-04T05:25:24Z</time>
      </trkpt>
      <trkpt lat="44.94468" lon="6.54935">
        <ele>1464.23</ele>
        <time>2013-05-04T05:25:37Z</time>
      </trkpt>
      <trkpt lat="44.94463" lon="6.54931">
        <ele>1465.67</ele>
        <time>2013-05-04T05:25:47Z</time>
      </trkpt>
      <trkpt lat="44.94458" lon="6.54926">
        <ele>1468.07</ele>
        <time>2013-05-04T05:25:59Z</time>
      </trkpt>
      <trkpt lat="44.94454" lon="6.54921">
        <ele>1469.99</ele>
        <time>2013-05-04T05:26:11Z</time>
      </trkpt>
      <trkpt lat="44.94449" lon="6.5491">
        <ele>1471.92</ele>
        <time>2013-05-04T05:26:24Z</time>
      </trkpt>
      <trkpt lat="44.94442" lon="6.54905">
        <ele>1472.88</ele>
        <time>2013-05-04T05:26:36Z</time>
      </trkpt>
      <trkpt lat="44.94437" lon="6.54907">
        <ele>1473.84</ele>
        <time>2013-05-04T05:26:46Z</time>
      </trkpt>
      <trkpt lat="44.94431" lon="6.549">
        <ele>1476.72</ele>
        <time>2013-05-04T05:27:02Z</time>
      </trkpt>
      <trkpt lat="44.94425" lon="6.549">
        <ele>1478.16</ele>
        <time>2013-05-04T05:27:14Z</time>
      </trkpt>
      <trkpt lat="44.9442" lon="6.54899">
        <ele>1479.61</ele>
        <time>2013-05-04T05:27:22Z</time>
      </trkpt>
      <trkpt lat="44.94412" lon="6.54897">
        <ele>1481.53</ele>
        <time>2013-05-04T05:27:35Z</time>
      </trkpt>
      <trkpt lat="44.9441" lon="6.54897">
        <ele>1482.49</ele>
        <time>2013-05-04T05:27:39Z</time>
      </trkpt>
      <trkpt lat="44.94404" lon="6.54892">
        <ele>1483.93</ele>
        <time>2013-05-04T05:27:52Z</time>
      </trkpt>
      <trkpt lat="44.94401" lon="6.5489">
        <ele>1484.41</ele>
        <time>2013-05-04T05:27:56Z</time>
      </trkpt>
      <trkpt lat="44.94394" lon="6.54881">
        <ele>1486.34</ele>
        <time>2013-05-04T05:28:09Z</time>
      </trkpt>
      <trkpt lat="44.94393" lon="6.54876">
        <ele>1488.26</ele>
        <time>2013-05-04T05:28:24Z</time>
      </trkpt>
      <trkpt lat="44.94389" lon="6.54876">
        <ele>1489.7</ele>
        <time>2013-05-04T05:28:35Z</time>
      </trkpt>
      <trkpt lat="44.94387" lon="6.54873">
        <ele>1491.14</ele>
        <time>2013-05-04T05:28:46Z</time>
      </trkpt>
      <trkpt lat="44.94381" lon="6.5487">
        <ele>1491.62</ele>
        <time>2013-05-04T05:28:59Z</time>
      </trkpt>
      <trkpt lat="44.94378" lon="6.54868">
        <ele>1492.1</ele>
        <time>2013-05-04T05:29:09Z</time>
      </trkpt>
      <trkpt lat="44.94378" lon="6.54866">
        <ele>1494.51</ele>
        <time>2013-05-04T05:29:23Z</time>
      </trkpt>
      <trkpt lat="44.9438" lon="6.54853">
        <ele>1496.91</ele>
        <time>2013-05-04T05:29:37Z</time>
      </trkpt>
      <trkpt lat="44.9438" lon="6.54849">
        <ele>1498.83</ele>
        <time>2013-05-04T05:29:53Z</time>
      </trkpt>
      <trkpt lat="44.9438" lon="6.54849">
        <ele>1498.83</ele>
        <time>2013-05-04T05:30:00Z</time>
      </trkpt>
      <trkpt lat="44.94381" lon="6.54846">
        <ele>1498.35</ele>
        <time>2013-05-04T05:30:17Z</time>
      </trkpt>
      <trkpt lat="44.94381" lon="6.54847">
        <ele>1497.39</ele>
        <time>2013-05-04T05:30:50Z</time>
      </trkpt>
      <trkpt lat="44.94381" lon="6.54847">
        <ele>1497.87</ele>
        <time>2013-05-04T05:31:14Z</time>
      </trkpt>
      <trkpt lat="44.94382" lon="6.54847">
        <ele>1498.35</ele>
        <time>2013-05-04T05:31:46Z</time>
      </trkpt>
      <trkpt lat="44.94382" lon="6.54847">
        <ele>1498.35</ele>
        <time>2013-05-04T05:32:06Z</time>
      </trkpt>
      <trkpt lat="44.94382" lon="6.54846">
        <ele>1498.35</ele>
        <time>2013-05-04T05:32:09Z</time>
      </trkpt>
      <trkpt lat="44.94381" lon="6.54842">
        <ele>1498.35</ele>
        <time>2013-05-04T05:32:12Z</time>
      </trkpt>
      <trkpt lat="44.94381" lon="6.54835">
        <ele>1500.76</ele>
        <time>2013-05-04T05:32:25Z</time>
      </trkpt>
      <trkpt lat="44.94382" lon="6.54829">
        <ele>1502.2</ele>
        <time>2013-05-04T05:32:37Z</time>
      </trkpt>
      <trkpt lat="44.94385" lon="6.54818">
        <ele>1504.12</ele>
        <time>2013-05-04T05:32:49Z</time>
      </trkpt>
      <trkpt lat="44.94384" lon="6.54816">
        <ele>1506.52</ele>
        <time>2013-05-04T05:33:05Z</time>
      </trkpt>
      <trkpt lat="44.94384" lon="6.54811">
        <ele>1509.41</ele>
        <time>2013-05-04T05:33:24Z</time>
      </trkpt>
      <trkpt lat="44.94383" lon="6.54805">
        <ele>1512.29</ele>
        <time>2013-05-04T05:33:41Z</time>
      </trkpt>
      <trkpt lat="44.94376" lon="6.54796">
        <ele>1513.73</ele>
        <time>2013-05-04T05:33:52Z</time>
      </trkpt>
      <trkpt lat="44.94367" lon="6.5479">
        <ele>1516.14</ele>
        <time>2013-05-04T05:34:07Z</time>
      </trkpt>
      <trkpt lat="44.94362" lon="6.54787">
        <ele>1518.06</ele>
        <time>2013-05-04T05:34:20Z</time>
      </trkpt>
      <trkpt lat="44.94358" lon="6.54785">
        <ele>1519.98</ele>
        <time>2013-05-04T05:34:34Z</time>
      </trkpt>
      <trkpt lat="44.94353" lon="6.54782">
        <ele>1522.87</ele>
        <time>2013-05-04T05:34:51Z</time>
      </trkpt>
      <trkpt lat="44.94346" lon="6.54779">
        <ele>1524.79</ele>
        <time>2013-05-04T05:35:05Z</time>
      </trkpt>
      <trkpt lat="44.9434" lon="6.54777">
        <ele>1527.19</ele>
        <time>2013-05-04T05:35:21Z</time>
      </trkpt>
      <trkpt lat="44.94336" lon="6.54777">
        <ele>1529.11</ele>
        <time>2013-05-04T05:35:33Z</time>
      </trkpt>
      <trkpt lat="44.94334" lon="6.54776">
        <ele>1530.08</ele>
        <time>2013-05-04T05:35:37Z</time>
      </trkpt>
      <trkpt lat="44.94333" lon="6.54773">
        <ele>1531.04</ele>
        <time>2013-05-04T05:35:49Z</time>
      </trkpt>
      <trkpt lat="44.9433" lon="6.54772">
        <ele>1534.4</ele>
        <time>2013-05-04T05:36:02Z</time>
      </trkpt>
      <trkpt lat="44.94322" lon="6.54773">
        <ele>1532.96</ele>
        <time>2013-05-04T05:36:13Z</time>
      </trkpt>
      <trkpt lat="44.94317" lon="6.54772">
        <ele>1533.92</ele>
        <time>2013-05-04T05:36:26Z</time>
      </trkpt>
      <trkpt lat="44.94317" lon="6.54772">
        <ele>1534.4</ele>
        <time>2013-05-04T05:36:42Z</time>
      </trkpt>
      <trkpt lat="44.94314" lon="6.54772">
        <ele>1534.4</ele>
        <time>2013-05-04T05:36:59Z</time>
      </trkpt>
      <trkpt lat="44.94306" lon="6.54774">
        <ele>1535.84</ele>
        <time>2013-05-04T05:37:11Z</time>
      </trkpt>
      <trkpt lat="44.94294" lon="6.54773">
        <ele>1537.29</ele>
        <time>2013-05-04T05:37:26Z</time>
      </trkpt>
      <trkpt lat="44.94282" lon="6.54768">
        <ele>1539.21</ele>
        <time>2013-05-04T05:37:42Z</time>
      </trkpt>
      <trkpt lat="44.94282" lon="6.54768">
        <ele>1539.21</ele>
        <time>2013-05-04T05:37:43Z</time>
      </trkpt>
      <trkpt lat="44.94272" lon="6.54767">
        <ele>1540.17</ele>
        <time>2013-05-04T05:37:52Z</time>
      </trkpt>
      <trkpt lat="44.94261" lon="6.54766">
        <ele>1542.57</ele>
        <time>2013-05-04T05:38:04Z</time>
      </trkpt>
      <trkpt lat="44.9425" lon="6.54769">
        <ele>1543.05</ele>
        <time>2013-05-04T05:38:15Z</time>
      </trkpt>
      <trkpt lat="44.94239" lon="6.54767">
        <ele>1544.01</ele>
        <time>2013-05-04T05:38:29Z</time>
      </trkpt>
      <trkpt lat="44.94232" lon="6.54769">
        <ele>1544.98</ele>
        <time>2013-05-04T05:38:36Z</time>
      </trkpt>
      <trkpt lat="44.94222" lon="6.54773">
        <ele>1546.42</ele>
        <time>2013-05-04T05:38:48Z</time>
      </trkpt>
      <trkpt lat="44.94214" lon="6.54778">
        <ele>1546.9</ele>
        <time>2013-05-04T05:38:58Z</time>
      </trkpt>
      <trkpt lat="44.94206" lon="6.54787">
        <ele>1548.34</ele>
        <time>2013-05-04T05:39:10Z</time>
      </trkpt>
      <trkpt lat="44.94202" lon="6.54789">
        <ele>1548.34</ele>
        <time>2013-05-04T05:39:14Z</time>
      </trkpt>
      <trkpt lat="44.94192" lon="6.54792">
        <ele>1549.3</ele>
        <time>2013-05-04T05:39:27Z</time>
      </trkpt>
      <trkpt lat="44.94179" lon="6.54799">
        <ele>1550.26</ele>
        <time>2013-05-04T05:39:41Z</time>
      </trkpt>
      <trkpt lat="44.9417" lon="6.54811">
        <ele>1551.22</ele>
        <time>2013-05-04T05:39:54Z</time>
      </trkpt>
      <trkpt lat="44.94159" lon="6.5482">
        <ele>1552.67</ele>
        <time>2013-05-04T05:40:09Z</time>
      </trkpt>
      <trkpt lat="44.94158" lon="6.54822">
        <ele>1552.67</ele>
        <time>2013-05-04T05:40:11Z</time>
      </trkpt>
      <trkpt lat="44.94149" lon="6.5483">
        <ele>1554.11</ele>
        <time>2013-05-04T05:40:25Z</time>
      </trkpt>
      <trkpt lat="44.94138" lon="6.54835">
        <ele>1555.07</ele>
        <time>2013-05-04T05:40:38Z</time>
      </trkpt>
      <trkpt lat="44.94128" lon="6.54836">
        <ele>1556.03</ele>
        <time>2013-05-04T05:40:51Z</time>
      </trkpt>
      <trkpt lat="44.94126" lon="6.54827">
        <ele>1556.99</ele>
        <time>2013-05-04T05:41:04Z</time>
      </trkpt>
      <trkpt lat="44.94124" lon="6.54819">
        <ele>1558.92</ele>
        <time>2013-05-04T05:41:16Z</time>
      </trkpt>
      <trkpt lat="44.94122" lon="6.54811">
        <ele>1560.84</ele>
        <time>2013-05-04T05:41:29Z</time>
      </trkpt>
      <trkpt lat="44.94118" lon="6.54805">
        <ele>1563.24</ele>
        <time>2013-05-04T05:41:43Z</time>
      </trkpt>
      <trkpt lat="44.94116" lon="6.548">
        <ele>1564.68</ele>
        <time>2013-05-04T05:41:55Z</time>
      </trkpt>
      <trkpt lat="44.94116" lon="6.54797">
        <ele>1565.16</ele>
        <time>2013-05-04T05:42:07Z</time>
      </trkpt>
      <trkpt lat="44.94116" lon="6.54797">
        <ele>1565.16</ele>
        <time>2013-05-04T05:42:21Z</time>
      </trkpt>
      <trkpt lat="44.94116" lon="6.54797">
        <ele>1565.16</ele>
        <time>2013-05-04T05:42:36Z</time>
      </trkpt>
      <trkpt lat="44.94117" lon="6.54796">
        <ele>1565.16</ele>
        <time>2013-05-04T05:42:59Z</time>
      </trkpt>
      <trkpt lat="44.94117" lon="6.54795">
        <ele>1565.16</ele>
        <time>2013-05-04T05:43:15Z</time>
      </trkpt>
      <trkpt lat="44.94117" lon="6.54796">
        <ele>1565.16</ele>
        <time>2013-05-04T05:43:29Z</time>
      </trkpt>
      <trkpt lat="44.94116" lon="6.54794">
        <ele>1566.61</ele>
        <time>2013-05-04T05:43:40Z</time>
      </trkpt>
      <trkpt lat="44.94114" lon="6.54794">
        <ele>1567.09</ele>
        <time>2013-05-04T05:43:58Z</time>
      </trkpt>
      <trkpt lat="44.94115" lon="6.54785">
        <ele>1567.57</ele>
        <time>2013-05-04T05:44:10Z</time>
      </trkpt>
      <trkpt lat="44.94117" lon="6.54779">
        <ele>1569.49</ele>
        <time>2013-05-04T05:44:22Z</time>
      </trkpt>
      <trkpt lat="44.94116" lon="6.54772">
        <ele>1572.37</ele>
        <time>2013-05-04T05:44:37Z</time>
      </trkpt>
      <trkpt lat="44.94115" lon="6.54768">
        <ele>1574.78</ele>
        <time>2013-05-04T05:44:52Z</time>
      </trkpt>
      <trkpt lat="44.94112" lon="6.54763">
        <ele>1576.7</ele>
        <time>2013-05-04T05:45:04Z</time>
      </trkpt>
      <trkpt lat="44.94108" lon="6.54759">
        <ele>1578.14</ele>
        <time>2013-05-04T05:45:22Z</time>
      </trkpt>
      <trkpt lat="44.94103" lon="6.54756">
        <ele>1579.58</ele>
        <time>2013-05-04T05:45:33Z</time>
      </trkpt>
      <trkpt lat="44.94099" lon="6.5475">
        <ele>1581.51</ele>
        <time>2013-05-04T05:45:45Z</time>
      </trkpt>
      <trkpt lat="44.94098" lon="6.54748">
        <ele>1583.43</ele>
        <time>2013-05-04T05:46:02Z</time>
      </trkpt>
      <trkpt lat="44.94097" lon="6.54741">
        <ele>1584.39</ele>
        <time>2013-05-04T05:46:15Z</time>
      </trkpt>
      <trkpt lat="44.94095" lon="6.54732">
        <ele>1586.31</ele>
        <time>2013-05-04T05:46:28Z</time>
      </trkpt>
      <trkpt lat="44.94093" lon="6.54726">
        <ele>1588.24</ele>
        <time>2013-05-04T05:46:42Z</time>
      </trkpt>
      <trkpt lat="44.94092" lon="6.54721">
        <ele>1590.64</ele>
        <time>2013-05-04T05:46:58Z</time>
      </trkpt>
      <trkpt lat="44.94097" lon="6.54721">
        <ele>1592.08</ele>
        <time>2013-05-04T05:47:12Z</time>
      </trkpt>
      <trkpt lat="44.94099" lon="6.54722">
        <ele>1592.08</ele>
        <time>2013-05-04T05:47:21Z</time>
      </trkpt>
      <trkpt lat="44.94103" lon="6.54716">
        <ele>1593.04</ele>
        <time>2013-05-04T05:47:32Z</time>
      </trkpt>
      <trkpt lat="44.94109" lon="6.54707">
        <ele>1594.48</ele>
        <time>2013-05-04T05:47:45Z</time>
      </trkpt>
      <trkpt lat="44.94109" lon="6.54703">
        <ele>1596.41</ele>
        <time>2013-05-04T05:47:58Z</time>
      </trkpt>
      <trkpt lat="44.94103" lon="6.54695">
        <ele>1597.37</ele>
        <time>2013-05-04T05:48:14Z</time>
      </trkpt>
      <trkpt lat="44.94103" lon="6.54695">
        <ele>1598.81</ele>
        <time>2013-05-04T05:48:18Z</time>
      </trkpt>
      <trkpt lat="44.94102" lon="6.54692">
        <ele>1600.25</ele>
        <time>2013-05-04T05:48:33Z</time>
      </trkpt>
      <trkpt lat="44.941" lon="6.5469">
        <ele>1601.21</ele>
        <time>2013-05-04T05:48:35Z</time>
      </trkpt>
      <trkpt lat="44.94095" lon="6.54682">
        <ele>1603.14</ele>
        <time>2013-05-04T05:48:51Z</time>
      </trkpt>
      <trkpt lat="44.94092" lon="6.5468">
        <ele>1605.06</ele>
        <time>2013-05-04T05:49:05Z</time>
      </trkpt>
      <trkpt lat="44.94092" lon="6.5468">
        <ele>1607.46</ele>
        <time>2013-05-04T05:49:21Z</time>
      </trkpt>
      <trkpt lat="44.9409" lon="6.54678">
        <ele>1608.9</ele>
        <time>2013-05-04T05:49:32Z</time>
      </trkpt>
      <trkpt lat="44.94086" lon="6.54673">
        <ele>1610.83</ele>
        <time>2013-05-04T05:49:46Z</time>
      </trkpt>
      <trkpt lat="44.94086" lon="6.54673">
        <ele>1612.75</ele>
        <time>2013-05-04T05:50:02Z</time>
      </trkpt>
      <trkpt lat="44.94078" lon="6.54659">
        <ele>1614.19</ele>
        <time>2013-05-04T05:50:17Z</time>
      </trkpt>
      <trkpt lat="44.94074" lon="6.54657">
        <ele>1615.63</ele>
        <time>2013-05-04T05:50:19Z</time>
      </trkpt>
      <trkpt lat="44.94067" lon="6.54648">
        <ele>1616.59</ele>
        <time>2013-05-04T05:50:32Z</time>
      </trkpt>
      <trkpt lat="44.94064" lon="6.54646">
        <ele>1618.52</ele>
        <time>2013-05-04T05:50:36Z</time>
      </trkpt>
      <trkpt lat="44.94053" lon="6.54642">
        <ele>1617.07</ele>
        <time>2013-05-04T05:50:49Z</time>
      </trkpt>
      <trkpt lat="44.9405" lon="6.54642">
        <ele>1618.52</ele>
        <time>2013-05-04T05:50:52Z</time>
      </trkpt>
      <trkpt lat="44.94044" lon="6.54633">
        <ele>1619.96</ele>
        <time>2013-05-04T05:51:06Z</time>
      </trkpt>
      <trkpt lat="44.94042" lon="6.54625">
        <ele>1619.96</ele>
        <time>2013-05-04T05:51:18Z</time>
      </trkpt>
      <trkpt lat="44.94041" lon="6.54616">
        <ele>1621.4</ele>
        <time>2013-05-04T05:51:30Z</time>
      </trkpt>
      <trkpt lat="44.94038" lon="6.54616">
        <ele>1622.36</ele>
        <time>2013-05-04T05:51:42Z</time>
      </trkpt>
      <trkpt lat="44.94034" lon="6.5462">
        <ele>1622.36</ele>
        <time>2013-05-04T05:51:49Z</time>
      </trkpt>
      <trkpt lat="44.9403" lon="6.54622">
        <ele>1623.8</ele>
        <time>2013-05-04T05:51:57Z</time>
      </trkpt>
      <trkpt lat="44.94024" lon="6.54623">
        <ele>1625.25</ele>
        <time>2013-05-04T05:52:10Z</time>
      </trkpt>
      <trkpt lat="44.94016" lon="6.54623">
        <ele>1627.17</ele>
        <time>2013-05-04T05:52:23Z</time>
      </trkpt>
      <trkpt lat="44.94011" lon="6.54625">
        <ele>1629.09</ele>
        <time>2013-05-04T05:52:38Z</time>
      </trkpt>
      <trkpt lat="44.94009" lon="6.54626">
        <ele>1631.49</ele>
        <time>2013-05-04T05:52:55Z</time>
      </trkpt>
      <trkpt lat="44.94004" lon="6.54623">
        <ele>1632.94</ele>
        <time>2013-05-04T05:53:08Z</time>
      </trkpt>
      <trkpt lat="44.94" lon="6.54623">
        <ele>1634.86</ele>
        <time>2013-05-04T05:53:22Z</time>
      </trkpt>
      <trkpt lat="44.93993" lon="6.54622">
        <ele>1636.78</ele>
        <time>2013-05-04T05:53:36Z</time>
      </trkpt>
      <trkpt lat="44.93991" lon="6.5462">
        <ele>1638.22</ele>
        <time>2013-05-04T05:53:52Z</time>
      </trkpt>
      <trkpt lat="44.9399" lon="6.54619">
        <ele>1639.67</ele>
        <time>2013-05-04T05:54:08Z</time>
      </trkpt>
      <trkpt lat="44.93989" lon="6.54617">
        <ele>1640.63</ele>
        <time>2013-05-04T05:54:23Z</time>
      </trkpt>
      <trkpt lat="44.93988" lon="6.54615">
        <ele>1642.07</ele>
        <time>2013-05-04T05:54:26Z</time>
      </trkpt>
      <trkpt lat="44.93985" lon="6.54607">
        <ele>1643.03</ele>
        <time>2013-05-04T05:54:37Z</time>
      </trkpt>
      <trkpt lat="44.9398" lon="6.54607">
        <ele>1645.91</ele>
        <time>2013-05-04T05:54:54Z</time>
      </trkpt>
      <trkpt lat="44.93974" lon="6.54605">
        <ele>1647.84</ele>
        <time>2013-05-04T05:55:07Z</time>
      </trkpt>
      <trkpt lat="44.93971" lon="6.54596">
        <ele>1649.28</ele>
        <time>2013-05-04T05:55:18Z</time>
      </trkpt>
      <trkpt lat="44.9397" lon="6.54592">
        <ele>1650.72</ele>
        <time>2013-05-04T05:55:31Z</time>
      </trkpt>
      <trkpt lat="44.9397" lon="6.54583">
        <ele>1653.12</ele>
        <time>2013-05-04T05:55:46Z</time>
      </trkpt>
      <trkpt lat="44.9397" lon="6.54575">
        <ele>1654.09</ele>
        <time>2013-05-04T05:55:56Z</time>
      </trkpt>
      <trkpt lat="44.93972" lon="6.54569">
        <ele>1656.01</ele>
        <time>2013-05-04T05:56:07Z</time>
      </trkpt>
      <trkpt lat="44.93972" lon="6.5457">
        <ele>1657.93</ele>
        <time>2013-05-04T05:56:10Z</time>
      </trkpt>
      <trkpt lat="44.93971" lon="6.54562">
        <ele>1657.93</ele>
        <time>2013-05-04T05:56:22Z</time>
      </trkpt>
      <trkpt lat="44.93971" lon="6.54559">
        <ele>1660.33</ele>
        <time>2013-05-04T05:56:34Z</time>
      </trkpt>
      <trkpt lat="44.93973" lon="6.54554">
        <ele>1660.81</ele>
        <time>2013-05-04T05:56:47Z</time>
      </trkpt>
      <trkpt lat="44.93975" lon="6.54546">
        <ele>1662.74</ele>
        <time>2013-05-04T05:57:02Z</time>
      </trkpt>
      <trkpt lat="44.93975" lon="6.54541">
        <ele>1664.66</ele>
        <time>2013-05-04T05:57:16Z</time>
      </trkpt>
      <trkpt lat="44.93976" lon="6.54536">
        <ele>1666.58</ele>
        <time>2013-05-04T05:57:28Z</time>
      </trkpt>
      <trkpt lat="44.93977" lon="6.54527">
        <ele>1668.51</ele>
        <time>2013-05-04T05:57:42Z</time>
      </trkpt>
      <trkpt lat="44.93978" lon="6.54523">
        <ele>1670.43</ele>
        <time>2013-05-04T05:57:58Z</time>
      </trkpt>
      <trkpt lat="44.93974" lon="6.54518">
        <ele>1673.79</ele>
        <time>2013-05-04T05:58:11Z</time>
      </trkpt>
      <trkpt lat="44.93969" lon="6.54516">
        <ele>1672.35</ele>
        <time>2013-05-04T05:58:22Z</time>
      </trkpt>
      <trkpt lat="44.93966" lon="6.54516">
        <ele>1675.23</ele>
        <time>2013-05-04T05:58:37Z</time>
      </trkpt>
      <trkpt lat="44.93965" lon="6.54514">
        <ele>1676.2</ele>
        <time>2013-05-04T05:58:55Z</time>
      </trkpt>
      <trkpt lat="44.93961" lon="6.54513">
        <ele>1677.64</ele>
        <time>2013-05-04T05:59:09Z</time>
      </trkpt>
      <trkpt lat="44.93953" lon="6.54504">
        <ele>1678.6</ele>
        <time>2013-05-04T05:59:21Z</time>
      </trkpt>
      <trkpt lat="44.93946" lon="6.54501">
        <ele>1680.04</ele>
        <time>2013-05-04T05:59:34Z</time>
      </trkpt>
      <trkpt lat="44.93941" lon="6.54499">
        <ele>1681.96</ele>
        <time>2013-05-04T05:59:49Z</time>
      </trkpt>
      <trkpt lat="44.93939" lon="6.54497">
        <ele>1682.93</ele>
        <time>2013-05-04T06:00:04Z</time>
      </trkpt>
      <trkpt lat="44.93939" lon="6.54497">
        <ele>1682.93</ele>
        <time>2013-05-04T06:00:28Z</time>
      </trkpt>
      <trkpt lat="44.93932" lon="6.54494">
        <ele>1682.93</ele>
        <time>2013-05-04T06:00:41Z</time>
      </trkpt>
      <trkpt lat="44.93932" lon="6.54493">
        <ele>1684.37</ele>
        <time>2013-05-04T06:00:43Z</time>
      </trkpt>
      <trkpt lat="44.93925" lon="6.54485">
        <ele>1686.77</ele>
        <time>2013-05-04T06:00:59Z</time>
      </trkpt>
      <trkpt lat="44.93921" lon="6.54474">
        <ele>1689.17</ele>
        <time>2013-05-04T06:01:15Z</time>
      </trkpt>
      <trkpt lat="44.93916" lon="6.54467">
        <ele>1689.65</ele>
        <time>2013-05-04T06:01:27Z</time>
      </trkpt>
      <trkpt lat="44.93914" lon="6.5446">
        <ele>1690.62</ele>
        <time>2013-05-04T06:01:40Z</time>
      </trkpt>
      <trkpt lat="44.93915" lon="6.54458">
        <ele>1693.02</ele>
        <time>2013-05-04T06:01:56Z</time>
      </trkpt>
      <trkpt lat="44.93921" lon="6.54452">
        <ele>1695.42</ele>
        <time>2013-05-04T06:02:11Z</time>
      </trkpt>
      <trkpt lat="44.93925" lon="6.54445">
        <ele>1695.9</ele>
        <time>2013-05-04T06:02:26Z</time>
      </trkpt>
      <trkpt lat="44.93926" lon="6.54439">
        <ele>1698.79</ele>
        <time>2013-05-04T06:02:40Z</time>
      </trkpt>
      <trkpt lat="44.93927" lon="6.54431">
        <ele>1701.19</ele>
        <time>2013-05-04T06:02:54Z</time>
      </trkpt>
      <trkpt lat="44.93927" lon="6.54424">
        <ele>1702.63</ele>
        <time>2013-05-04T06:03:08Z</time>
      </trkpt>
      <trkpt lat="44.93927" lon="6.54412">
        <ele>1705.04</ele>
        <time>2013-05-04T06:03:24Z</time>
      </trkpt>
      <trkpt lat="44.93925" lon="6.54404">
        <ele>1707.44</ele>
        <time>2013-05-04T06:03:38Z</time>
      </trkpt>
      <trkpt lat="44.93925" lon="6.54399">
        <ele>1708.88</ele>
        <time>2013-05-04T06:03:51Z</time>
      </trkpt>
      <trkpt lat="44.93917" lon="6.54407">
        <ele>1709.36</ele>
        <time>2013-05-04T06:04:07Z</time>
      </trkpt>
      <trkpt lat="44.93911" lon="6.54411">
        <ele>1710.32</ele>
        <time>2013-05-04T06:04:20Z</time>
      </trkpt>
      <trkpt lat="44.93906" lon="6.54415">
        <ele>1710.32</ele>
        <time>2013-05-04T06:04:31Z</time>
      </trkpt>
      <trkpt lat="44.93901" lon="6.54413">
        <ele>1713.21</ele>
        <time>2013-05-04T06:04:46Z</time>
      </trkpt>
      <trkpt lat="44.93901" lon="6.54413">
        <ele>1711.76</ele>
        <time>2013-05-04T06:04:48Z</time>
      </trkpt>
      <trkpt lat="44.939" lon="6.54413">
        <ele>1711.76</ele>
        <time>2013-05-04T06:05:11Z</time>
      </trkpt>
      <trkpt lat="44.93898" lon="6.54409">
        <ele>1713.21</ele>
        <time>2013-05-04T06:05:21Z</time>
      </trkpt>
      <trkpt lat="44.93895" lon="6.54401">
        <ele>1713.69</ele>
        <time>2013-05-04T06:05:35Z</time>
      </trkpt>
      <trkpt lat="44.93892" lon="6.54382">
        <ele>1715.61</ele>
        <time>2013-05-04T06:05:49Z</time>
      </trkpt>
      <trkpt lat="44.93885" lon="6.54367">
        <ele>1718.01</ele>
        <time>2013-05-04T06:06:05Z</time>
      </trkpt>
      <trkpt lat="44.93878" lon="6.54353">
        <ele>1719.46</ele>
        <time>2013-05-04T06:06:20Z</time>
      </trkpt>
      <trkpt lat="44.93873" lon="6.54351">
        <ele>1720.9</ele>
        <time>2013-05-04T06:06:34Z</time>
      </trkpt>
      <trkpt lat="44.93865" lon="6.5435">
        <ele>1722.34</ele>
        <time>2013-05-04T06:06:49Z</time>
      </trkpt>
      <trkpt lat="44.93856" lon="6.54345">
        <ele>1722.82</ele>
        <time>2013-05-04T06:07:02Z</time>
      </trkpt>
      <trkpt lat="44.93848" lon="6.54341">
        <ele>1724.74</ele>
        <time>2013-05-04T06:07:18Z</time>
      </trkpt>
      <trkpt lat="44.93838" lon="6.5434">
        <ele>1725.7</ele>
        <time>2013-05-04T06:07:30Z</time>
      </trkpt>
      <trkpt lat="44.93829" lon="6.54338">
        <ele>1727.15</ele>
        <time>2013-05-04T06:07:46Z</time>
      </trkpt>
      <trkpt lat="44.93829" lon="6.54338">
        <ele>1727.15</ele>
        <time>2013-05-04T06:07:49Z</time>
      </trkpt>
      <trkpt lat="44.93824" lon="6.54336">
        <ele>1728.59</ele>
        <time>2013-05-04T06:08:03Z</time>
      </trkpt>
      <trkpt lat="44.93812" lon="6.54333">
        <ele>1730.03</ele>
        <time>2013-05-04T06:08:19Z</time>
      </trkpt>
      <trkpt lat="44.93802" lon="6.54331">
        <ele>1730.03</ele>
        <time>2013-05-04T06:08:33Z</time>
      </trkpt>
      <trkpt lat="44.93795" lon="6.5433">
        <ele>1731.95</ele>
        <time>2013-05-04T06:08:48Z</time>
      </trkpt>
      <trkpt lat="44.93787" lon="6.54332">
        <ele>1733.39</ele>
        <time>2013-05-04T06:09:03Z</time>
      </trkpt>
      <trkpt lat="44.9378" lon="6.54333">
        <ele>1734.36</ele>
        <time>2013-05-04T06:09:16Z</time>
      </trkpt>
      <trkpt lat="44.93775" lon="6.54335">
        <ele>1735.32</ele>
        <time>2013-05-04T06:09:30Z</time>
      </trkpt>
      <trkpt lat="44.93766" lon="6.54336">
        <ele>1736.76</ele>
        <time>2013-05-04T06:09:46Z</time>
      </trkpt>
      <trkpt lat="44.93763" lon="6.54337">
        <ele>1737.72</ele>
        <time>2013-05-04T06:10:01Z</time>
      </trkpt>
      <trkpt lat="44.93746" lon="6.54346">
        <ele>1738.68</ele>
        <time>2013-05-04T06:10:17Z</time>
      </trkpt>
      <trkpt lat="44.93733" lon="6.54355">
        <ele>1739.64</ele>
        <time>2013-05-04T06:10:30Z</time>
      </trkpt>
      <trkpt lat="44.93723" lon="6.54362">
        <ele>1739.64</ele>
        <time>2013-05-04T06:10:45Z</time>
      </trkpt>
      <trkpt lat="44.93713" lon="6.54369">
        <ele>1742.05</ele>
        <time>2013-05-04T06:10:59Z</time>
      </trkpt>
      <trkpt lat="44.93705" lon="6.54376">
        <ele>1743.01</ele>
        <time>2013-05-04T06:11:13Z</time>
      </trkpt>
      <trkpt lat="44.93696" lon="6.5438">
        <ele>1744.45</ele>
        <time>2013-05-04T06:11:27Z</time>
      </trkpt>
      <trkpt lat="44.93696" lon="6.5438">
        <ele>1744.93</ele>
        <time>2013-05-04T06:11:30Z</time>
      </trkpt>
      <trkpt lat="44.93693" lon="6.54383">
        <ele>1745.41</ele>
        <time>2013-05-04T06:11:41Z</time>
      </trkpt>
      <trkpt lat="44.93693" lon="6.54382">
        <ele>1745.41</ele>
        <time>2013-05-04T06:11:55Z</time>
      </trkpt>
      <trkpt lat="44.93688" lon="6.54384">
        <ele>1745.41</ele>
        <time>2013-05-04T06:12:09Z</time>
      </trkpt>
      <trkpt lat="44.9368" lon="6.54387">
        <ele>1746.85</ele>
        <time>2013-05-04T06:12:17Z</time>
      </trkpt>
      <trkpt lat="44.93669" lon="6.54392">
        <ele>1748.78</ele>
        <time>2013-05-04T06:12:32Z</time>
      </trkpt>
      <trkpt lat="44.93669" lon="6.54392">
        <ele>1748.78</ele>
        <time>2013-05-04T06:12:33Z</time>
      </trkpt>
      <trkpt lat="44.93661" lon="6.54395">
        <ele>1751.18</ele>
        <time>2013-05-04T06:12:49Z</time>
      </trkpt>
      <trkpt lat="44.93654" lon="6.54393">
        <ele>1752.14</ele>
        <time>2013-05-04T06:13:01Z</time>
      </trkpt>
      <trkpt lat="44.93648" lon="6.54392">
        <ele>1753.58</ele>
        <time>2013-05-04T06:13:14Z</time>
      </trkpt>
      <trkpt lat="44.93637" lon="6.54393">
        <ele>1755.5</ele>
        <time>2013-05-04T06:13:32Z</time>
      </trkpt>
      <trkpt lat="44.93628" lon="6.54386">
        <ele>1756.95</ele>
        <time>2013-05-04T06:13:47Z</time>
      </trkpt>
      <trkpt lat="44.93619" lon="6.54375">
        <ele>1758.39</ele>
        <time>2013-05-04T06:14:00Z</time>
      </trkpt>
      <trkpt lat="44.93612" lon="6.54366">
        <ele>1759.83</ele>
        <time>2013-05-04T06:14:16Z</time>
      </trkpt>
      <trkpt lat="44.93603" lon="6.54356">
        <ele>1760.79</ele>
        <time>2013-05-04T06:14:30Z</time>
      </trkpt>
      <trkpt lat="44.93599" lon="6.54355">
        <ele>1761.75</ele>
        <time>2013-05-04T06:14:37Z</time>
      </trkpt>
      <trkpt lat="44.93593" lon="6.54354">
        <ele>1764.16</ele>
        <time>2013-05-04T06:14:53Z</time>
      </trkpt>
      <trkpt lat="44.93582" lon="6.54352">
        <ele>1766.08</ele>
        <time>2013-05-04T06:15:09Z</time>
      </trkpt>
      <trkpt lat="44.93573" lon="6.5435">
        <ele>1768</ele>
        <time>2013-05-04T06:15:25Z</time>
      </trkpt>
      <trkpt lat="44.93566" lon="6.54343">
        <ele>1768.96</ele>
        <time>2013-05-04T06:15:38Z</time>
      </trkpt>
      <trkpt lat="44.93558" lon="6.54337">
        <ele>1771.37</ele>
        <time>2013-05-04T06:15:53Z</time>
      </trkpt>
      <trkpt lat="44.93551" lon="6.54332">
        <ele>1772.33</ele>
        <time>2013-05-04T06:16:09Z</time>
      </trkpt>
      <trkpt lat="44.93541" lon="6.54332">
        <ele>1773.29</ele>
        <time>2013-05-04T06:16:24Z</time>
      </trkpt>
      <trkpt lat="44.93541" lon="6.54346">
        <ele>1772.81</ele>
        <time>2013-05-04T06:16:39Z</time>
      </trkpt>
      <trkpt lat="44.93543" lon="6.54348">
        <ele>1772.81</ele>
        <time>2013-05-04T06:16:54Z</time>
      </trkpt>
      <trkpt lat="44.9354" lon="6.54347">
        <ele>1772.81</ele>
        <time>2013-05-04T06:17:12Z</time>
      </trkpt>
      <trkpt lat="44.9354" lon="6.54345">
        <ele>1772.81</ele>
        <time>2013-05-04T06:17:23Z</time>
      </trkpt>
      <trkpt lat="44.93541" lon="6.54337">
        <ele>1772.81</ele>
        <time>2013-05-04T06:17:42Z</time>
      </trkpt>
      <trkpt lat="44.93542" lon="6.54329">
        <ele>1772.81</ele>
        <time>2013-05-04T06:17:52Z</time>
      </trkpt>
      <trkpt lat="44.93538" lon="6.54324">
        <ele>1774.25</ele>
        <time>2013-05-04T06:18:02Z</time>
      </trkpt>
      <trkpt lat="44.93524" lon="6.54319">
        <ele>1775.69</ele>
        <time>2013-05-04T06:18:19Z</time>
      </trkpt>
      <trkpt lat="44.93512" lon="6.54313">
        <ele>1778.1</ele>
        <time>2013-05-04T06:18:36Z</time>
      </trkpt>
      <trkpt lat="44.93511" lon="6.54313">
        <ele>1778.1</ele>
        <time>2013-05-04T06:18:37Z</time>
      </trkpt>
      <trkpt lat="44.935" lon="6.54307">
        <ele>1780.5</ele>
        <time>2013-05-04T06:18:56Z</time>
      </trkpt>
      <trkpt lat="44.93496" lon="6.54307">
        <ele>1782.42</ele>
        <time>2013-05-04T06:19:13Z</time>
      </trkpt>
      <trkpt lat="44.93482" lon="6.54304">
        <ele>1783.86</ele>
        <time>2013-05-04T06:19:30Z</time>
      </trkpt>
      <trkpt lat="44.9347" lon="6.54306">
        <ele>1785.79</ele>
        <time>2013-05-04T06:19:48Z</time>
      </trkpt>
      <trkpt lat="44.93462" lon="6.54307">
        <ele>1786.75</ele>
        <time>2013-05-04T06:20:04Z</time>
      </trkpt>
      <trkpt lat="44.93449" lon="6.5431">
        <ele>1790.11</ele>
        <time>2013-05-04T06:20:23Z</time>
      </trkpt>
      <trkpt lat="44.9344" lon="6.54315">
        <ele>1788.67</ele>
        <time>2013-05-04T06:20:38Z</time>
      </trkpt>
      <trkpt lat="44.9343" lon="6.54312">
        <ele>1790.11</ele>
        <time>2013-05-04T06:20:52Z</time>
      </trkpt>
      <trkpt lat="44.9343" lon="6.54312">
        <ele>1788.67</ele>
        <time>2013-05-04T06:20:58Z</time>
      </trkpt>
      <trkpt lat="44.9343" lon="6.54312">
        <ele>1788.67</ele>
        <time>2013-05-04T06:21:21Z</time>
      </trkpt>
      <trkpt lat="44.9343" lon="6.54312">
        <ele>1788.19</ele>
        <time>2013-05-04T06:21:40Z</time>
      </trkpt>
      <trkpt lat="44.9343" lon="6.54312">
        <ele>1788.19</ele>
        <time>2013-05-04T06:21:57Z</time>
      </trkpt>
      <trkpt lat="44.93429" lon="6.54311">
        <ele>1788.19</ele>
        <time>2013-05-04T06:22:18Z</time>
      </trkpt>
      <trkpt lat="44.93422" lon="6.54307">
        <ele>1789.63</ele>
        <time>2013-05-04T06:22:26Z</time>
      </trkpt>
      <trkpt lat="44.93413" lon="6.54297">
        <ele>1789.63</ele>
        <time>2013-05-04T06:22:41Z</time>
      </trkpt>
      <trkpt lat="44.93408" lon="6.54291">
        <ele>1791.55</ele>
        <time>2013-05-04T06:22:54Z</time>
      </trkpt>
      <trkpt lat="44.93399" lon="6.5428">
        <ele>1793</ele>
        <time>2013-05-04T06:23:09Z</time>
      </trkpt>
      <trkpt lat="44.93395" lon="6.54278">
        <ele>1793.48</ele>
        <time>2013-05-04T06:23:21Z</time>
      </trkpt>
      <trkpt lat="44.93395" lon="6.54278">
        <ele>1795.88</ele>
        <time>2013-05-04T06:23:37Z</time>
      </trkpt>
      <trkpt lat="44.93394" lon="6.54276">
        <ele>1797.8</ele>
        <time>2013-05-04T06:23:54Z</time>
      </trkpt>
      <trkpt lat="44.93377" lon="6.54257">
        <ele>1799.73</ele>
        <time>2013-05-04T06:24:11Z</time>
      </trkpt>
      <trkpt lat="44.93376" lon="6.54256">
        <ele>1804.53</ele>
        <time>2013-05-04T06:24:26Z</time>
      </trkpt>
      <trkpt lat="44.93372" lon="6.54254">
        <ele>1804.53</ele>
        <time>2013-05-04T06:24:43Z</time>
      </trkpt>
      <trkpt lat="44.9337" lon="6.54252">
        <ele>1806.45</ele>
        <time>2013-05-04T06:24:57Z</time>
      </trkpt>
      <trkpt lat="44.9337" lon="6.54252">
        <ele>1808.38</ele>
        <time>2013-05-04T06:25:15Z</time>
      </trkpt>
      <trkpt lat="44.93367" lon="6.54248">
        <ele>1808.38</ele>
        <time>2013-05-04T06:25:34Z</time>
      </trkpt>
      <trkpt lat="44.93367" lon="6.54248">
        <ele>1808.38</ele>
        <time>2013-05-04T06:25:57Z</time>
      </trkpt>
      <trkpt lat="44.93364" lon="6.54246">
        <ele>1808.38</ele>
        <time>2013-05-04T06:26:21Z</time>
      </trkpt>
      <trkpt lat="44.93364" lon="6.54246">
        <ele>1807.9</ele>
        <time>2013-05-04T06:26:44Z</time>
      </trkpt>
      <trkpt lat="44.93361" lon="6.54243">
        <ele>1807.9</ele>
        <time>2013-05-04T06:27:04Z</time>
      </trkpt>
      <trkpt lat="44.93361" lon="6.54243">
        <ele>1807.9</ele>
        <time>2013-05-04T06:27:23Z</time>
      </trkpt>
      <trkpt lat="44.9336" lon="6.54241">
        <ele>1807.9</ele>
        <time>2013-05-04T06:27:39Z</time>
      </trkpt>
      <trkpt lat="44.9336" lon="6.54241">
        <ele>1807.9</ele>
        <time>2013-05-04T06:27:56Z</time>
      </trkpt>
      <trkpt lat="44.93359" lon="6.54239">
        <ele>1807.9</ele>
        <time>2013-05-04T06:28:15Z</time>
      </trkpt>
      <trkpt lat="44.93359" lon="6.54239">
        <ele>1808.38</ele>
        <time>2013-05-04T06:28:36Z</time>
      </trkpt>
      <trkpt lat="44.93359" lon="6.54238">
        <ele>1808.38</ele>
        <time>2013-05-04T06:28:54Z</time>
      </trkpt>
      <trkpt lat="44.93359" lon="6.54238">
        <ele>1809.82</ele>
        <time>2013-05-04T06:29:03Z</time>
      </trkpt>
      <trkpt lat="44.93358" lon="6.54238">
        <ele>1811.74</ele>
        <time>2013-05-04T06:29:19Z</time>
      </trkpt>
      <trkpt lat="44.93358" lon="6.54238">
        <ele>1814.15</ele>
        <time>2013-05-04T06:29:37Z</time>
      </trkpt>
      <trkpt lat="44.93353" lon="6.54241">
        <ele>1816.55</ele>
        <time>2013-05-04T06:29:51Z</time>
      </trkpt>
      <trkpt lat="44.93337" lon="6.54245">
        <ele>1818.47</ele>
        <time>2013-05-04T06:30:06Z</time>
      </trkpt>
      <trkpt lat="44.93337" lon="6.54245">
        <ele>1820.87</ele>
        <time>2013-05-04T06:30:23Z</time>
      </trkpt>
      <trkpt lat="44.93336" lon="6.54245">
        <ele>1822.32</ele>
        <time>2013-05-04T06:30:38Z</time>
      </trkpt>
      <trkpt lat="44.93329" lon="6.54246">
        <ele>1823.28</ele>
        <time>2013-05-04T06:30:42Z</time>
      </trkpt>
      <trkpt lat="44.9332" lon="6.54246">
        <ele>1825.68</ele>
        <time>2013-05-04T06:30:56Z</time>
      </trkpt>
      <trkpt lat="44.9332" lon="6.54246">
        <ele>1827.6</ele>
        <time>2013-05-04T06:31:11Z</time>
      </trkpt>
      <trkpt lat="44.9332" lon="6.54246">
        <ele>1829.05</ele>
        <time>2013-05-04T06:31:26Z</time>
      </trkpt>
      <trkpt lat="44.93319" lon="6.54246">
        <ele>1831.45</ele>
        <time>2013-05-04T06:31:42Z</time>
      </trkpt>
      <trkpt lat="44.93319" lon="6.54246">
        <ele>1833.85</ele>
        <time>2013-05-04T06:31:56Z</time>
      </trkpt>
      <trkpt lat="44.93307" lon="6.54244">
        <ele>1835.29</ele>
        <time>2013-05-04T06:32:09Z</time>
      </trkpt>
      <trkpt lat="44.93302" lon="6.54242">
        <ele>1837.22</ele>
        <time>2013-05-04T06:32:25Z</time>
      </trkpt>
      <trkpt lat="44.93296" lon="6.54239">
        <ele>1839.62</ele>
        <time>2013-05-04T06:32:31Z</time>
      </trkpt>
      <trkpt lat="44.93292" lon="6.54237">
        <ele>1838.18</ele>
        <time>2013-05-04T06:32:33Z</time>
      </trkpt>
      <trkpt lat="44.93276" lon="6.54223">
        <ele>1839.62</ele>
        <time>2013-05-04T06:32:52Z</time>
      </trkpt>
      <trkpt lat="44.9327" lon="6.54213">
        <ele>1841.54</ele>
        <time>2013-05-04T06:33:06Z</time>
      </trkpt>
      <trkpt lat="44.93268" lon="6.54209">
        <ele>1843.47</ele>
        <time>2013-05-04T06:33:20Z</time>
      </trkpt>
      <trkpt lat="44.93265" lon="6.54204">
        <ele>1844.91</ele>
        <time>2013-05-04T06:33:35Z</time>
      </trkpt>
      <trkpt lat="44.93262" lon="6.54202">
        <ele>1846.83</ele>
        <time>2013-05-04T06:33:50Z</time>
      </trkpt>
      <trkpt lat="44.9326" lon="6.54198">
        <ele>1849.23</ele>
        <time>2013-05-04T06:34:06Z</time>
      </trkpt>
      <trkpt lat="44.93259" lon="6.54195">
        <ele>1850.68</ele>
        <time>2013-05-04T06:34:18Z</time>
      </trkpt>
      <trkpt lat="44.93255" lon="6.54189">
        <ele>1854.52</ele>
        <time>2013-05-04T06:34:31Z</time>
      </trkpt>
      <trkpt lat="44.93243" lon="6.54177">
        <ele>1855</ele>
        <time>2013-05-04T06:34:45Z</time>
      </trkpt>
      <trkpt lat="44.93231" lon="6.54166">
        <ele>1856.92</ele>
        <time>2013-05-04T06:34:59Z</time>
      </trkpt>
      <trkpt lat="44.93228" lon="6.54162">
        <ele>1858.85</ele>
        <time>2013-05-04T06:35:15Z</time>
      </trkpt>
      <trkpt lat="44.93229" lon="6.54161">
        <ele>1859.81</ele>
        <time>2013-05-04T06:35:30Z</time>
      </trkpt>
      <trkpt lat="44.93229" lon="6.54161">
        <ele>1861.73</ele>
        <time>2013-05-04T06:35:50Z</time>
      </trkpt>
      <trkpt lat="44.93222" lon="6.5415">
        <ele>1864.13</ele>
        <time>2013-05-04T06:36:09Z</time>
      </trkpt>
      <trkpt lat="44.93208" lon="6.54137">
        <ele>1866.54</ele>
        <time>2013-05-04T06:36:28Z</time>
      </trkpt>
      <trkpt lat="44.93208" lon="6.54133">
        <ele>1867.98</ele>
        <time>2013-05-04T06:36:42Z</time>
      </trkpt>
      <trkpt lat="44.932" lon="6.54122">
        <ele>1870.38</ele>
        <time>2013-05-04T06:36:58Z</time>
      </trkpt>
      <trkpt lat="44.93186" lon="6.5411">
        <ele>1872.79</ele>
        <time>2013-05-04T06:37:15Z</time>
      </trkpt>
      <trkpt lat="44.93186" lon="6.54109">
        <ele>1875.19</ele>
        <time>2013-05-04T06:37:33Z</time>
      </trkpt>
      <trkpt lat="44.93181" lon="6.54106">
        <ele>1877.59</ele>
        <time>2013-05-04T06:37:52Z</time>
      </trkpt>
      <trkpt lat="44.93177" lon="6.54094">
        <ele>1880</ele>
        <time>2013-05-04T06:38:07Z</time>
      </trkpt>
      <trkpt lat="44.93171" lon="6.54085">
        <ele>1880.96</ele>
        <time>2013-05-04T06:38:19Z</time>
      </trkpt>
      <trkpt lat="44.93175" lon="6.54085">
        <ele>1884.32</ele>
        <time>2013-05-04T06:38:34Z</time>
      </trkpt>
      <trkpt lat="44.93176" lon="6.54083">
        <ele>1882.4</ele>
        <time>2013-05-04T06:38:52Z</time>
      </trkpt>
      <trkpt lat="44.93172" lon="6.54079">
        <ele>1882.4</ele>
        <time>2013-05-04T06:39:07Z</time>
      </trkpt>
      <trkpt lat="44.93172" lon="6.54079">
        <ele>1882.4</ele>
        <time>2013-05-04T06:39:34Z</time>
      </trkpt>
      <trkpt lat="44.93172" lon="6.54079">
        <ele>1882.4</ele>
        <time>2013-05-04T06:39:56Z</time>
      </trkpt>
      <trkpt lat="44.93172" lon="6.54079">
        <ele>1882.4</ele>
        <time>2013-05-04T06:40:18Z</time>
      </trkpt>
      <trkpt lat="44.93172" lon="6.54079">
        <ele>1883.84</ele>
        <time>2013-05-04T06:40:26Z</time>
      </trkpt>
      <trkpt lat="44.93172" lon="6.54079">
        <ele>1882.88</ele>
        <time>2013-05-04T06:40:53Z</time>
      </trkpt>
      <trkpt lat="44.93172" lon="6.54079">
        <ele>1882.4</ele>
        <time>2013-05-04T06:41:24Z</time>
      </trkpt>
      <trkpt lat="44.93169" lon="6.54077">
        <ele>1882.4</ele>
        <time>2013-05-04T06:41:41Z</time>
      </trkpt>
      <trkpt lat="44.93169" lon="6.54078">
        <ele>1882.4</ele>
        <time>2013-05-04T06:41:57Z</time>
      </trkpt>
      <trkpt lat="44.9317" lon="6.54079">
        <ele>1882.4</ele>
        <time>2013-05-04T06:42:19Z</time>
      </trkpt>
      <trkpt lat="44.93167" lon="6.54073">
        <ele>1882.4</ele>
        <time>2013-05-04T06:42:37Z</time>
      </trkpt>
      <trkpt lat="44.93167" lon="6.54073">
        <ele>1882.4</ele>
        <time>2013-05-04T06:42:38Z</time>
      </trkpt>
      <trkpt lat="44.93169" lon="6.54075">
        <ele>1883.36</ele>
        <time>2013-05-04T06:43:11Z</time>
      </trkpt>
      <trkpt lat="44.93169" lon="6.54076">
        <ele>1883.36</ele>
        <time>2013-05-04T06:43:22Z</time>
      </trkpt>
      <trkpt lat="44.93168" lon="6.54075">
        <ele>1883.36</ele>
        <time>2013-05-04T06:43:39Z</time>
      </trkpt>
      <trkpt lat="44.93171" lon="6.54073">
        <ele>1882.88</ele>
        <time>2013-05-04T06:43:52Z</time>
      </trkpt>
      <trkpt lat="44.93169" lon="6.54057">
        <ele>1882.88</ele>
        <time>2013-05-04T06:44:07Z</time>
      </trkpt>
      <trkpt lat="44.93169" lon="6.5404">
        <ele>1884.32</ele>
        <time>2013-05-04T06:44:23Z</time>
      </trkpt>
      <trkpt lat="44.93169" lon="6.54028">
        <ele>1885.28</ele>
        <time>2013-05-04T06:44:36Z</time>
      </trkpt>
      <trkpt lat="44.93169" lon="6.54016">
        <ele>1886.24</ele>
        <time>2013-05-04T06:44:47Z</time>
      </trkpt>
      <trkpt lat="44.93163" lon="6.54008">
        <ele>1886.72</ele>
        <time>2013-05-04T06:45:00Z</time>
      </trkpt>
      <trkpt lat="44.93162" lon="6.54007">
        <ele>1886.72</ele>
        <time>2013-05-04T06:45:02Z</time>
      </trkpt>
      <trkpt lat="44.93162" lon="6.53995">
        <ele>1886.72</ele>
        <time>2013-05-04T06:45:12Z</time>
      </trkpt>
      <trkpt lat="44.93158" lon="6.53979">
        <ele>1887.69</ele>
        <time>2013-05-04T06:45:25Z</time>
      </trkpt>
      <trkpt lat="44.93157" lon="6.53973">
        <ele>1888.17</ele>
        <time>2013-05-04T06:45:38Z</time>
      </trkpt>
      <trkpt lat="44.93158" lon="6.53963">
        <ele>1888.65</ele>
        <time>2013-05-04T06:45:46Z</time>
      </trkpt>
      <trkpt lat="44.9316" lon="6.53946">
        <ele>1889.13</ele>
        <time>2013-05-04T06:46:00Z</time>
      </trkpt>
      <trkpt lat="44.93161" lon="6.53945">
        <ele>1889.13</ele>
        <time>2013-05-04T06:46:01Z</time>
      </trkpt>
      <trkpt lat="44.93159" lon="6.5393">
        <ele>1891.05</ele>
        <time>2013-05-04T06:46:14Z</time>
      </trkpt>
      <trkpt lat="44.93157" lon="6.53917">
        <ele>1892.49</ele>
        <time>2013-05-04T06:46:25Z</time>
      </trkpt>
      <trkpt lat="44.93155" lon="6.53911">
        <ele>1892.49</ele>
        <time>2013-05-04T06:46:32Z</time>
      </trkpt>
      <trkpt lat="44.93149" lon="6.53902">
        <ele>1892.97</ele>
        <time>2013-05-04T06:46:42Z</time>
      </trkpt>
      <trkpt lat="44.93143" lon="6.53891">
        <ele>1894.42</ele>
        <time>2013-05-04T06:46:56Z</time>
      </trkpt>
      <trkpt lat="44.93137" lon="6.53877">
        <ele>1895.38</ele>
        <time>2013-05-04T06:47:08Z</time>
      </trkpt>
      <trkpt lat="44.93134" lon="6.53869">
        <ele>1897.3</ele>
        <time>2013-05-04T06:47:20Z</time>
      </trkpt>
      <trkpt lat="44.93134" lon="6.53869">
        <ele>1897.3</ele>
        <time>2013-05-04T06:47:21Z</time>
      </trkpt>
      <trkpt lat="44.93131" lon="6.53863">
        <ele>1897.3</ele>
        <time>2013-05-04T06:47:26Z</time>
      </trkpt>
      <trkpt lat="44.93124" lon="6.53851">
        <ele>1897.3</ele>
        <time>2013-05-04T06:47:40Z</time>
      </trkpt>
      <trkpt lat="44.93123" lon="6.53848">
        <ele>1897.3</ele>
        <time>2013-05-04T06:47:43Z</time>
      </trkpt>
      <trkpt lat="44.93121" lon="6.53845">
        <ele>1897.78</ele>
        <time>2013-05-04T06:47:47Z</time>
      </trkpt>
      <trkpt lat="44.93118" lon="6.53838">
        <ele>1898.26</ele>
        <time>2013-05-04T06:47:54Z</time>
      </trkpt>
      <trkpt lat="44.9311" lon="6.53824">
        <ele>1898.74</ele>
        <time>2013-05-04T06:48:05Z</time>
      </trkpt>
      <trkpt lat="44.93106" lon="6.53813">
        <ele>1899.7</ele>
        <time>2013-05-04T06:48:14Z</time>
      </trkpt>
      <trkpt lat="44.93103" lon="6.53804">
        <ele>1900.66</ele>
        <time>2013-05-04T06:48:28Z</time>
      </trkpt>
      <trkpt lat="44.93097" lon="6.53796">
        <ele>1902.11</ele>
        <time>2013-05-04T06:48:42Z</time>
      </trkpt>
      <trkpt lat="44.93086" lon="6.53789">
        <ele>1904.03</ele>
        <time>2013-05-04T06:48:56Z</time>
      </trkpt>
      <trkpt lat="44.93082" lon="6.53787">
        <ele>1904.51</ele>
        <time>2013-05-04T06:49:09Z</time>
      </trkpt>
      <trkpt lat="44.93075" lon="6.53778">
        <ele>1905.47</ele>
        <time>2013-05-04T06:49:21Z</time>
      </trkpt>
      <trkpt lat="44.93067" lon="6.53771">
        <ele>1906.91</ele>
        <time>2013-05-04T06:49:35Z</time>
      </trkpt>
      <trkpt lat="44.93058" lon="6.53761">
        <ele>1907.87</ele>
        <time>2013-05-04T06:49:48Z</time>
      </trkpt>
      <trkpt lat="44.9305" lon="6.53753">
        <ele>1908.83</ele>
        <time>2013-05-04T06:50:02Z</time>
      </trkpt>
      <trkpt lat="44.93043" lon="6.53743">
        <ele>1911.24</ele>
        <time>2013-05-04T06:50:17Z</time>
      </trkpt>
      <trkpt lat="44.93043" lon="6.5374">
        <ele>1911.72</ele>
        <time>2013-05-04T06:50:22Z</time>
      </trkpt>
      <trkpt lat="44.93039" lon="6.53735">
        <ele>1913.64</ele>
        <time>2013-05-04T06:50:34Z</time>
      </trkpt>
      <trkpt lat="44.93036" lon="6.53728">
        <ele>1914.12</ele>
        <time>2013-05-04T06:50:48Z</time>
      </trkpt>
      <trkpt lat="44.93027" lon="6.5372">
        <ele>1916.04</ele>
        <time>2013-05-04T06:51:02Z</time>
      </trkpt>
      <trkpt lat="44.93027" lon="6.53718">
        <ele>1916.04</ele>
        <time>2013-05-04T06:51:04Z</time>
      </trkpt>
      <trkpt lat="44.93027" lon="6.53716">
        <ele>1916.04</ele>
        <time>2013-05-04T06:51:06Z</time>
      </trkpt>
      <trkpt lat="44.93023" lon="6.53704">
        <ele>1916.04</ele>
        <time>2013-05-04T06:51:22Z</time>
      </trkpt>
      <trkpt lat="44.93022" lon="6.53702">
        <ele>1916.04</ele>
        <time>2013-05-04T06:51:40Z</time>
      </trkpt>
      <trkpt lat="44.93021" lon="6.53701">
        <ele>1916.04</ele>
        <time>2013-05-04T06:51:41Z</time>
      </trkpt>
      <trkpt lat="44.93019" lon="6.53696">
        <ele>1916.04</ele>
        <time>2013-05-04T06:51:52Z</time>
      </trkpt>
      <trkpt lat="44.93017" lon="6.53694">
        <ele>1916.04</ele>
        <time>2013-05-04T06:51:55Z</time>
      </trkpt>
      <trkpt lat="44.93016" lon="6.53689">
        <ele>1916.04</ele>
        <time>2013-05-04T06:51:59Z</time>
      </trkpt>
      <trkpt lat="44.93015" lon="6.53684">
        <ele>1916.04</ele>
        <time>2013-05-04T06:52:03Z</time>
      </trkpt>
      <trkpt lat="44.93011" lon="6.53675">
        <ele>1916.04</ele>
        <time>2013-05-04T06:52:14Z</time>
      </trkpt>
      <trkpt lat="44.93004" lon="6.53664">
        <ele>1917.97</ele>
        <time>2013-05-04T06:52:25Z</time>
      </trkpt>
      <trkpt lat="44.93004" lon="6.53663">
        <ele>1918.45</ele>
        <time>2013-05-04T06:52:34Z</time>
      </trkpt>
      <trkpt lat="44.92997" lon="6.53654">
        <ele>1919.89</ele>
        <time>2013-05-04T06:52:45Z</time>
      </trkpt>
      <trkpt lat="44.92995" lon="6.5365">
        <ele>1920.37</ele>
        <time>2013-05-04T06:52:49Z</time>
      </trkpt>
      <trkpt lat="44.92989" lon="6.53641">
        <ele>1921.81</ele>
        <time>2013-05-04T06:53:02Z</time>
      </trkpt>
      <trkpt lat="44.92978" lon="6.53634">
        <ele>1923.74</ele>
        <time>2013-05-04T06:53:15Z</time>
      </trkpt>
      <trkpt lat="44.92976" lon="6.53634">
        <ele>1924.22</ele>
        <time>2013-05-04T06:53:20Z</time>
      </trkpt>
      <trkpt lat="44.92972" lon="6.53625">
        <ele>1925.18</ele>
        <time>2013-05-04T06:53:32Z</time>
      </trkpt>
      <trkpt lat="44.92968" lon="6.53617">
        <ele>1926.62</ele>
        <time>2013-05-04T06:53:43Z</time>
      </trkpt>
      <trkpt lat="44.92964" lon="6.53608">
        <ele>1929.5</ele>
        <time>2013-05-04T06:53:54Z</time>
      </trkpt>
      <trkpt lat="44.9296" lon="6.536">
        <ele>1928.06</ele>
        <time>2013-05-04T06:54:06Z</time>
      </trkpt>
      <trkpt lat="44.92956" lon="6.53594">
        <ele>1930.46</ele>
        <time>2013-05-04T06:54:16Z</time>
      </trkpt>
      <trkpt lat="44.92952" lon="6.53591">
        <ele>1931.43</ele>
        <time>2013-05-04T06:54:26Z</time>
      </trkpt>
      <trkpt lat="44.92946" lon="6.53583">
        <ele>1932.39</ele>
        <time>2013-05-04T06:54:41Z</time>
      </trkpt>
      <trkpt lat="44.9294" lon="6.53575">
        <ele>1933.83</ele>
        <time>2013-05-04T06:54:52Z</time>
      </trkpt>
      <trkpt lat="44.92937" lon="6.53571">
        <ele>1934.79</ele>
        <time>2013-05-04T06:55:03Z</time>
      </trkpt>
      <trkpt lat="44.92933" lon="6.53567">
        <ele>1936.23</ele>
        <time>2013-05-04T06:55:14Z</time>
      </trkpt>
      <trkpt lat="44.9293" lon="6.53563">
        <ele>1936.71</ele>
        <time>2013-05-04T06:55:20Z</time>
      </trkpt>
      <trkpt lat="44.92923" lon="6.53551">
        <ele>1938.16</ele>
        <time>2013-05-04T06:55:34Z</time>
      </trkpt>
      <trkpt lat="44.92919" lon="6.53544">
        <ele>1939.6</ele>
        <time>2013-05-04T06:55:45Z</time>
      </trkpt>
      <trkpt lat="44.92918" lon="6.53538">
        <ele>1942.96</ele>
        <time>2013-05-04T06:55:55Z</time>
      </trkpt>
      <trkpt lat="44.92918" lon="6.53537">
        <ele>1942.96</ele>
        <time>2013-05-04T06:55:56Z</time>
      </trkpt>
      <trkpt lat="44.92912" lon="6.53528">
        <ele>1942.96</ele>
        <time>2013-05-04T06:56:11Z</time>
      </trkpt>
      <trkpt lat="44.92911" lon="6.53523">
        <ele>1943.92</ele>
        <time>2013-05-04T06:56:22Z</time>
      </trkpt>
      <trkpt lat="44.92909" lon="6.53515">
        <ele>1944.88</ele>
        <time>2013-05-04T06:56:33Z</time>
      </trkpt>
      <trkpt lat="44.92909" lon="6.53513">
        <ele>1946.33</ele>
        <time>2013-05-04T06:56:45Z</time>
      </trkpt>
      <trkpt lat="44.92908" lon="6.53509">
        <ele>1947.77</ele>
        <time>2013-05-04T06:56:58Z</time>
      </trkpt>
      <trkpt lat="44.92906" lon="6.53505">
        <ele>1948.73</ele>
        <time>2013-05-04T06:57:11Z</time>
      </trkpt>
      <trkpt lat="44.92902" lon="6.53498">
        <ele>1950.65</ele>
        <time>2013-05-04T06:57:22Z</time>
      </trkpt>
      <trkpt lat="44.92898" lon="6.53487">
        <ele>1951.61</ele>
        <time>2013-05-04T06:57:37Z</time>
      </trkpt>
      <trkpt lat="44.92892" lon="6.53472">
        <ele>1952.57</ele>
        <time>2013-05-04T06:57:49Z</time>
      </trkpt>
      <trkpt lat="44.92889" lon="6.53463">
        <ele>1954.98</ele>
        <time>2013-05-04T06:57:56Z</time>
      </trkpt>
      <trkpt lat="44.92887" lon="6.5346">
        <ele>1953.54</ele>
        <time>2013-05-04T06:58:01Z</time>
      </trkpt>
      <trkpt lat="44.92883" lon="6.53443">
        <ele>1955.46</ele>
        <time>2013-05-04T06:58:14Z</time>
      </trkpt>
      <trkpt lat="44.92878" lon="6.53433">
        <ele>1957.38</ele>
        <time>2013-05-04T06:58:28Z</time>
      </trkpt>
      <trkpt lat="44.92878" lon="6.53423">
        <ele>1958.82</ele>
        <time>2013-05-04T06:58:40Z</time>
      </trkpt>
      <trkpt lat="44.92877" lon="6.53412">
        <ele>1960.27</ele>
        <time>2013-05-04T06:58:54Z</time>
      </trkpt>
      <trkpt lat="44.9288" lon="6.53399">
        <ele>1961.23</ele>
        <time>2013-05-04T06:59:05Z</time>
      </trkpt>
      <trkpt lat="44.92882" lon="6.53386">
        <ele>1962.19</ele>
        <time>2013-05-04T06:59:17Z</time>
      </trkpt>
      <trkpt lat="44.9288" lon="6.53377">
        <ele>1963.15</ele>
        <time>2013-05-04T06:59:28Z</time>
      </trkpt>
      <trkpt lat="44.92881" lon="6.53366">
        <ele>1964.11</ele>
        <time>2013-05-04T06:59:40Z</time>
      </trkpt>
      <trkpt lat="44.9288" lon="6.53359">
        <ele>1965.55</ele>
        <time>2013-05-04T06:59:51Z</time>
      </trkpt>
      <trkpt lat="44.9288" lon="6.53354">
        <ele>1966.99</ele>
        <time>2013-05-04T06:59:57Z</time>
      </trkpt>
      <trkpt lat="44.92881" lon="6.53351">
        <ele>1966.99</ele>
        <time>2013-05-04T07:00:09Z</time>
      </trkpt>
      <trkpt lat="44.9288" lon="6.53345">
        <ele>1967.48</ele>
        <time>2013-05-04T07:00:25Z</time>
      </trkpt>
      <trkpt lat="44.9288" lon="6.5333">
        <ele>1968.92</ele>
        <time>2013-05-04T07:00:40Z</time>
      </trkpt>
      <trkpt lat="44.9288" lon="6.53318">
        <ele>1970.36</ele>
        <time>2013-05-04T07:00:56Z</time>
      </trkpt>
      <trkpt lat="44.92881" lon="6.53309">
        <ele>1971.8</ele>
        <time>2013-05-04T07:01:07Z</time>
      </trkpt>
      <trkpt lat="44.92882" lon="6.53299">
        <ele>1973.24</ele>
        <time>2013-05-04T07:01:19Z</time>
      </trkpt>
      <trkpt lat="44.92877" lon="6.53288">
        <ele>1974.2</ele>
        <time>2013-05-04T07:01:31Z</time>
      </trkpt>
      <trkpt lat="44.92877" lon="6.53279">
        <ele>1976.13</ele>
        <time>2013-05-04T07:01:43Z</time>
      </trkpt>
      <trkpt lat="44.92877" lon="6.53275">
        <ele>1978.05</ele>
        <time>2013-05-04T07:01:59Z</time>
      </trkpt>
      <trkpt lat="44.92877" lon="6.53269">
        <ele>1977.57</ele>
        <time>2013-05-04T07:02:15Z</time>
      </trkpt>
      <trkpt lat="44.9288" lon="6.53263">
        <ele>1979.01</ele>
        <time>2013-05-04T07:02:21Z</time>
      </trkpt>
      <trkpt lat="44.92884" lon="6.53252">
        <ele>1980.93</ele>
        <time>2013-05-04T07:02:35Z</time>
      </trkpt>
      <trkpt lat="44.92887" lon="6.53247">
        <ele>1981.9</ele>
        <time>2013-05-04T07:02:47Z</time>
      </trkpt>
      <trkpt lat="44.9289" lon="6.53242">
        <ele>1983.82</ele>
        <time>2013-05-04T07:03:00Z</time>
      </trkpt>
      <trkpt lat="44.92892" lon="6.53235">
        <ele>1984.78</ele>
        <time>2013-05-04T07:03:10Z</time>
      </trkpt>
      <trkpt lat="44.92893" lon="6.5323">
        <ele>1986.22</ele>
        <time>2013-05-04T07:03:21Z</time>
      </trkpt>
      <trkpt lat="44.92897" lon="6.53225">
        <ele>1987.18</ele>
        <time>2013-05-04T07:03:33Z</time>
      </trkpt>
      <trkpt lat="44.92899" lon="6.53215">
        <ele>1988.62</ele>
        <time>2013-05-04T07:03:45Z</time>
      </trkpt>
      <trkpt lat="44.92902" lon="6.53205">
        <ele>1989.59</ele>
        <time>2013-05-04T07:03:57Z</time>
      </trkpt>
      <trkpt lat="44.92902" lon="6.53205">
        <ele>1991.51</ele>
        <time>2013-05-04T07:03:59Z</time>
      </trkpt>
      <trkpt lat="44.92904" lon="6.53197">
        <ele>1991.03</ele>
        <time>2013-05-04T07:04:08Z</time>
      </trkpt>
      <trkpt lat="44.92906" lon="6.53189">
        <ele>1992.47</ele>
        <time>2013-05-04T07:04:19Z</time>
      </trkpt>
      <trkpt lat="44.92909" lon="6.53182">
        <ele>1992.95</ele>
        <time>2013-05-04T07:04:30Z</time>
      </trkpt>
      <trkpt lat="44.92908" lon="6.53176">
        <ele>1994.87</ele>
        <time>2013-05-04T07:04:42Z</time>
      </trkpt>
      <trkpt lat="44.92909" lon="6.53168">
        <ele>1996.32</ele>
        <time>2013-05-04T07:04:53Z</time>
      </trkpt>
      <trkpt lat="44.92909" lon="6.5316">
        <ele>1997.28</ele>
        <time>2013-05-04T07:05:04Z</time>
      </trkpt>
      <trkpt lat="44.92906" lon="6.53154">
        <ele>1998.72</ele>
        <time>2013-05-04T07:05:15Z</time>
      </trkpt>
      <trkpt lat="44.92904" lon="6.53144">
        <ele>2000.16</ele>
        <time>2013-05-04T07:05:29Z</time>
      </trkpt>
      <trkpt lat="44.92906" lon="6.53138">
        <ele>2001.12</ele>
        <time>2013-05-04T07:05:41Z</time>
      </trkpt>
      <trkpt lat="44.92907" lon="6.53132">
        <ele>2002.56</ele>
        <time>2013-05-04T07:05:49Z</time>
      </trkpt>
      <trkpt lat="44.92911" lon="6.5312">
        <ele>2003.04</ele>
        <time>2013-05-04T07:06:03Z</time>
      </trkpt>
      <trkpt lat="44.92913" lon="6.53115">
        <ele>2003.04</ele>
        <time>2013-05-04T07:06:10Z</time>
      </trkpt>
      <trkpt lat="44.92912" lon="6.5311">
        <ele>2004.97</ele>
        <time>2013-05-04T07:06:23Z</time>
      </trkpt>
      <trkpt lat="44.92913" lon="6.53105">
        <ele>2005.93</ele>
        <time>2013-05-04T07:06:35Z</time>
      </trkpt>
      <trkpt lat="44.92914" lon="6.53093">
        <ele>2007.37</ele>
        <time>2013-05-04T07:06:49Z</time>
      </trkpt>
      <trkpt lat="44.92913" lon="6.5309">
        <ele>2007.85</ele>
        <time>2013-05-04T07:06:58Z</time>
      </trkpt>
      <trkpt lat="44.92913" lon="6.53084">
        <ele>2009.77</ele>
        <time>2013-05-04T07:07:09Z</time>
      </trkpt>
      <trkpt lat="44.92916" lon="6.53075">
        <ele>2010.25</ele>
        <time>2013-05-04T07:07:23Z</time>
      </trkpt>
      <trkpt lat="44.92916" lon="6.53062">
        <ele>2011.7</ele>
        <time>2013-05-04T07:07:36Z</time>
      </trkpt>
      <trkpt lat="44.92918" lon="6.53052">
        <ele>2012.66</ele>
        <time>2013-05-04T07:07:49Z</time>
      </trkpt>
      <trkpt lat="44.92917" lon="6.53043">
        <ele>2015.54</ele>
        <time>2013-05-04T07:08:00Z</time>
      </trkpt>
      <trkpt lat="44.92918" lon="6.53032">
        <ele>2015.54</ele>
        <time>2013-05-04T07:08:13Z</time>
      </trkpt>
      <trkpt lat="44.92919" lon="6.53026">
        <ele>2017.46</ele>
        <time>2013-05-04T07:08:27Z</time>
      </trkpt>
      <trkpt lat="44.92918" lon="6.5302">
        <ele>2018.91</ele>
        <time>2013-05-04T07:08:36Z</time>
      </trkpt>
      <trkpt lat="44.92918" lon="6.53012">
        <ele>2020.35</ele>
        <time>2013-05-04T07:08:47Z</time>
      </trkpt>
      <trkpt lat="44.92917" lon="6.53006">
        <ele>2021.31</ele>
        <time>2013-05-04T07:08:56Z</time>
      </trkpt>
      <trkpt lat="44.92917" lon="6.53004">
        <ele>2022.75</ele>
        <time>2013-05-04T07:09:10Z</time>
      </trkpt>
      <trkpt lat="44.92921" lon="6.52997">
        <ele>2025.15</ele>
        <time>2013-05-04T07:09:23Z</time>
      </trkpt>
      <trkpt lat="44.92923" lon="6.52992">
        <ele>2026.12</ele>
        <time>2013-05-04T07:09:35Z</time>
      </trkpt>
      <trkpt lat="44.92925" lon="6.52988">
        <ele>2028.52</ele>
        <time>2013-05-04T07:09:48Z</time>
      </trkpt>
      <trkpt lat="44.92926" lon="6.52982">
        <ele>2029.48</ele>
        <time>2013-05-04T07:09:59Z</time>
      </trkpt>
      <trkpt lat="44.92926" lon="6.52981">
        <ele>2030.92</ele>
        <time>2013-05-04T07:10:01Z</time>
      </trkpt>
      <trkpt lat="44.92927" lon="6.5298">
        <ele>2031.88</ele>
        <time>2013-05-04T07:10:13Z</time>
      </trkpt>
      <trkpt lat="44.92926" lon="6.52972">
        <ele>2032.84</ele>
        <time>2013-05-04T07:10:26Z</time>
      </trkpt>
      <trkpt lat="44.92927" lon="6.52963">
        <ele>2034.29</ele>
        <time>2013-05-04T07:10:38Z</time>
      </trkpt>
      <trkpt lat="44.92927" lon="6.52963">
        <ele>2036.21</ele>
        <time>2013-05-04T07:10:49Z</time>
      </trkpt>
      <trkpt lat="44.92926" lon="6.52955">
        <ele>2037.65</ele>
        <time>2013-05-04T07:11:01Z</time>
      </trkpt>
      <trkpt lat="44.92927" lon="6.52944">
        <ele>2039.57</ele>
        <time>2013-05-04T07:11:16Z</time>
      </trkpt>
      <trkpt lat="44.92928" lon="6.52939">
        <ele>2041.02</ele>
        <time>2013-05-04T07:11:29Z</time>
      </trkpt>
      <trkpt lat="44.92929" lon="6.52931">
        <ele>2043.42</ele>
        <time>2013-05-04T07:11:44Z</time>
      </trkpt>
      <trkpt lat="44.92929" lon="6.52926">
        <ele>2044.86</ele>
        <time>2013-05-04T07:11:58Z</time>
      </trkpt>
      <trkpt lat="44.92932" lon="6.52916">
        <ele>2045.82</ele>
        <time>2013-05-04T07:12:11Z</time>
      </trkpt>
      <trkpt lat="44.92932" lon="6.52914">
        <ele>2047.26</ele>
        <time>2013-05-04T07:12:15Z</time>
      </trkpt>
      <trkpt lat="44.92933" lon="6.5291">
        <ele>2048.71</ele>
        <time>2013-05-04T07:12:29Z</time>
      </trkpt>
      <trkpt lat="44.92933" lon="6.5291">
        <ele>2050.63</ele>
        <time>2013-05-04T07:12:41Z</time>
      </trkpt>
      <trkpt lat="44.92934" lon="6.52902">
        <ele>2051.59</ele>
        <time>2013-05-04T07:12:52Z</time>
      </trkpt>
      <trkpt lat="44.92935" lon="6.52892">
        <ele>2053.03</ele>
        <time>2013-05-04T07:13:03Z</time>
      </trkpt>
      <trkpt lat="44.92935" lon="6.52883">
        <ele>2054.96</ele>
        <time>2013-05-04T07:13:15Z</time>
      </trkpt>
      <trkpt lat="44.92936" lon="6.52878">
        <ele>2056.88</ele>
        <time>2013-05-04T07:13:29Z</time>
      </trkpt>
      <trkpt lat="44.92936" lon="6.52871">
        <ele>2057.84</ele>
        <time>2013-05-04T07:13:42Z</time>
      </trkpt>
      <trkpt lat="44.92937" lon="6.52867">
        <ele>2059.76</ele>
        <time>2013-05-04T07:13:53Z</time>
      </trkpt>
      <trkpt lat="44.92937" lon="6.52867">
        <ele>2061.68</ele>
        <time>2013-05-04T07:14:03Z</time>
      </trkpt>
      <trkpt lat="44.92939" lon="6.52853">
        <ele>2060.72</ele>
        <time>2013-05-04T07:14:15Z</time>
      </trkpt>
      <trkpt lat="44.9294" lon="6.52842">
        <ele>2062.65</ele>
        <time>2013-05-04T07:14:27Z</time>
      </trkpt>
      <trkpt lat="44.9294" lon="6.52835">
        <ele>2065.05</ele>
        <time>2013-05-04T07:14:42Z</time>
      </trkpt>
      <trkpt lat="44.92941" lon="6.52834">
        <ele>2064.57</ele>
        <time>2013-05-04T07:14:43Z</time>
      </trkpt>
      <trkpt lat="44.92947" lon="6.52821">
        <ele>2066.49</ele>
        <time>2013-05-04T07:14:57Z</time>
      </trkpt>
      <trkpt lat="44.92948" lon="6.52814">
        <ele>2067.93</ele>
        <time>2013-05-04T07:15:11Z</time>
      </trkpt>
      <trkpt lat="44.9295" lon="6.52807">
        <ele>2069.38</ele>
        <time>2013-05-04T07:15:21Z</time>
      </trkpt>
      <trkpt lat="44.92952" lon="6.528">
        <ele>2070.82</ele>
        <time>2013-05-04T07:15:36Z</time>
      </trkpt>
      <trkpt lat="44.92955" lon="6.52792">
        <ele>2072.26</ele>
        <time>2013-05-04T07:15:50Z</time>
      </trkpt>
      <trkpt lat="44.92959" lon="6.52787">
        <ele>2073.7</ele>
        <time>2013-05-04T07:16:01Z</time>
      </trkpt>
      <trkpt lat="44.9296" lon="6.52782">
        <ele>2073.22</ele>
        <time>2013-05-04T07:16:13Z</time>
      </trkpt>
      <trkpt lat="44.9296" lon="6.52782">
        <ele>2074.66</ele>
        <time>2013-05-04T07:16:24Z</time>
      </trkpt>
      <trkpt lat="44.9296" lon="6.52782">
        <ele>2075.62</ele>
        <time>2013-05-04T07:16:37Z</time>
      </trkpt>
      <trkpt lat="44.9296" lon="6.5278">
        <ele>2078.03</ele>
        <time>2013-05-04T07:16:54Z</time>
      </trkpt>
      <trkpt lat="44.92963" lon="6.52769">
        <ele>2078.99</ele>
        <time>2013-05-04T07:17:05Z</time>
      </trkpt>
      <trkpt lat="44.92963" lon="6.52766">
        <ele>2080.91</ele>
        <time>2013-05-04T07:17:21Z</time>
      </trkpt>
      <trkpt lat="44.92963" lon="6.52766">
        <ele>2081.87</ele>
        <time>2013-05-04T07:17:34Z</time>
      </trkpt>
      <trkpt lat="44.92963" lon="6.52766">
        <ele>2083.31</ele>
        <time>2013-05-04T07:17:46Z</time>
      </trkpt>
      <trkpt lat="44.92964" lon="6.52755">
        <ele>2084.76</ele>
        <time>2013-05-04T07:17:59Z</time>
      </trkpt>
      <trkpt lat="44.92965" lon="6.52752">
        <ele>2086.68</ele>
        <time>2013-05-04T07:18:04Z</time>
      </trkpt>
      <trkpt lat="44.92966" lon="6.52741">
        <ele>2087.16</ele>
        <time>2013-05-04T07:18:17Z</time>
      </trkpt>
      <trkpt lat="44.92966" lon="6.52734">
        <ele>2088.6</ele>
        <time>2013-05-04T07:18:29Z</time>
      </trkpt>
      <trkpt lat="44.92968" lon="6.52727">
        <ele>2090.04</ele>
        <time>2013-05-04T07:18:41Z</time>
      </trkpt>
      <trkpt lat="44.92967" lon="6.52726">
        <ele>2091.49</ele>
        <time>2013-05-04T07:18:55Z</time>
      </trkpt>
      <trkpt lat="44.92968" lon="6.52727">
        <ele>2092.93</ele>
        <time>2013-05-04T07:19:09Z</time>
      </trkpt>
      <trkpt lat="44.92967" lon="6.52722">
        <ele>2094.37</ele>
        <time>2013-05-04T07:19:22Z</time>
      </trkpt>
      <trkpt lat="44.92967" lon="6.52709">
        <ele>2095.81</ele>
        <time>2013-05-04T07:19:35Z</time>
      </trkpt>
      <trkpt lat="44.92968" lon="6.52697">
        <ele>2097.73</ele>
        <time>2013-05-04T07:19:49Z</time>
      </trkpt>
      <trkpt lat="44.92968" lon="6.52691">
        <ele>2099.18</ele>
        <time>2013-05-04T07:20:01Z</time>
      </trkpt>
      <trkpt lat="44.92968" lon="6.52685">
        <ele>2101.1</ele>
        <time>2013-05-04T07:20:14Z</time>
      </trkpt>
      <trkpt lat="44.92968" lon="6.52684">
        <ele>2102.06</ele>
        <time>2013-05-04T07:20:27Z</time>
      </trkpt>
      <trkpt lat="44.92968" lon="6.52684">
        <ele>2103.5</ele>
        <time>2013-05-04T07:20:43Z</time>
      </trkpt>
      <trkpt lat="44.92968" lon="6.52684">
        <ele>2104.46</ele>
        <time>2013-05-04T07:21:00Z</time>
      </trkpt>
      <trkpt lat="44.92969" lon="6.52681">
        <ele>2104.94</ele>
        <time>2013-05-04T07:21:13Z</time>
      </trkpt>
      <trkpt lat="44.9297" lon="6.52674">
        <ele>2105.91</ele>
        <time>2013-05-04T07:21:24Z</time>
      </trkpt>
      <trkpt lat="44.92972" lon="6.52668">
        <ele>2107.83</ele>
        <time>2013-05-04T07:21:36Z</time>
      </trkpt>
      <trkpt lat="44.92972" lon="6.52668">
        <ele>2109.75</ele>
        <time>2013-05-04T07:21:50Z</time>
      </trkpt>
      <trkpt lat="44.92972" lon="6.52665">
        <ele>2110.71</ele>
        <time>2013-05-04T07:22:02Z</time>
      </trkpt>
      <trkpt lat="44.92972" lon="6.52658">
        <ele>2112.15</ele>
        <time>2013-05-04T07:22:13Z</time>
      </trkpt>
      <trkpt lat="44.92973" lon="6.52648">
        <ele>2114.08</ele>
        <time>2013-05-04T07:22:26Z</time>
      </trkpt>
      <trkpt lat="44.92975" lon="6.5264">
        <ele>2116</ele>
        <time>2013-05-04T07:22:41Z</time>
      </trkpt>
      <trkpt lat="44.92975" lon="6.52636">
        <ele>2116.96</ele>
        <time>2013-05-04T07:22:53Z</time>
      </trkpt>
      <trkpt lat="44.92976" lon="6.52634">
        <ele>2118.4</ele>
        <time>2013-05-04T07:23:07Z</time>
      </trkpt>
      <trkpt lat="44.92978" lon="6.52628">
        <ele>2119.84</ele>
        <time>2013-05-04T07:23:19Z</time>
      </trkpt>
      <trkpt lat="44.9298" lon="6.52623">
        <ele>2121.29</ele>
        <time>2013-05-04T07:23:32Z</time>
      </trkpt>
      <trkpt lat="44.92985" lon="6.52613">
        <ele>2123.21</ele>
        <time>2013-05-04T07:23:44Z</time>
      </trkpt>
      <trkpt lat="44.92986" lon="6.52609">
        <ele>2124.65</ele>
        <time>2013-05-04T07:23:56Z</time>
      </trkpt>
      <trkpt lat="44.92988" lon="6.52605">
        <ele>2126.57</ele>
        <time>2013-05-04T07:24:05Z</time>
      </trkpt>
      <trkpt lat="44.92992" lon="6.526">
        <ele>2127.05</ele>
        <time>2013-05-04T07:24:17Z</time>
      </trkpt>
      <trkpt lat="44.92993" lon="6.52597">
        <ele>2128.02</ele>
        <time>2013-05-04T07:24:29Z</time>
      </trkpt>
      <trkpt lat="44.92994" lon="6.52596">
        <ele>2128.5</ele>
        <time>2013-05-04T07:24:52Z</time>
      </trkpt>
      <trkpt lat="44.92994" lon="6.52595">
        <ele>2128.98</ele>
        <time>2013-05-04T07:25:10Z</time>
      </trkpt>
      <trkpt lat="44.92997" lon="6.52587">
        <ele>2130.42</ele>
        <time>2013-05-04T07:25:21Z</time>
      </trkpt>
      <trkpt lat="44.92999" lon="6.5258">
        <ele>2132.34</ele>
        <time>2013-05-04T07:25:33Z</time>
      </trkpt>
      <trkpt lat="44.93004" lon="6.52572">
        <ele>2134.74</ele>
        <time>2013-05-04T07:25:47Z</time>
      </trkpt>
      <trkpt lat="44.9301" lon="6.52565">
        <ele>2135.71</ele>
        <time>2013-05-04T07:25:59Z</time>
      </trkpt>
      <trkpt lat="44.93011" lon="6.52562">
        <ele>2138.11</ele>
        <time>2013-05-04T07:26:06Z</time>
      </trkpt>
      <trkpt lat="44.93012" lon="6.5256">
        <ele>2139.07</ele>
        <time>2013-05-04T07:26:19Z</time>
      </trkpt>
      <trkpt lat="44.93013" lon="6.52556">
        <ele>2140.99</ele>
        <time>2013-05-04T07:26:34Z</time>
      </trkpt>
      <trkpt lat="44.93018" lon="6.52548">
        <ele>2142.44</ele>
        <time>2013-05-04T07:26:47Z</time>
      </trkpt>
      <trkpt lat="44.9302" lon="6.52543">
        <ele>2144.36</ele>
        <time>2013-05-04T07:27:01Z</time>
      </trkpt>
      <trkpt lat="44.93021" lon="6.52539">
        <ele>2146.28</ele>
        <time>2013-05-04T07:27:14Z</time>
      </trkpt>
      <trkpt lat="44.93024" lon="6.52532">
        <ele>2147.72</ele>
        <time>2013-05-04T07:27:27Z</time>
      </trkpt>
      <trkpt lat="44.93025" lon="6.52529">
        <ele>2149.65</ele>
        <time>2013-05-04T07:27:41Z</time>
      </trkpt>
      <trkpt lat="44.93026" lon="6.52525">
        <ele>2150.61</ele>
        <time>2013-05-04T07:27:54Z</time>
      </trkpt>
      <trkpt lat="44.93027" lon="6.52525">
        <ele>2151.09</ele>
        <time>2013-05-04T07:28:04Z</time>
      </trkpt>
      <trkpt lat="44.93029" lon="6.52519">
        <ele>2151.57</ele>
        <time>2013-05-04T07:28:18Z</time>
      </trkpt>
      <trkpt lat="44.93032" lon="6.52513">
        <ele>2153.49</ele>
        <time>2013-05-04T07:28:35Z</time>
      </trkpt>
      <trkpt lat="44.93034" lon="6.52509">
        <ele>2153.97</ele>
        <time>2013-05-04T07:28:49Z</time>
      </trkpt>
      <trkpt lat="44.93038" lon="6.52501">
        <ele>2155.41</ele>
        <time>2013-05-04T07:29:01Z</time>
      </trkpt>
      <trkpt lat="44.93044" lon="6.52492">
        <ele>2156.86</ele>
        <time>2013-05-04T07:29:13Z</time>
      </trkpt>
      <trkpt lat="44.93046" lon="6.52486">
        <ele>2157.82</ele>
        <time>2013-05-04T07:29:25Z</time>
      </trkpt>
      <trkpt lat="44.93046" lon="6.52483">
        <ele>2159.26</ele>
        <time>2013-05-04T07:29:36Z</time>
      </trkpt>
      <trkpt lat="44.93054" lon="6.52467">
        <ele>2161.66</ele>
        <time>2013-05-04T07:29:53Z</time>
      </trkpt>
      <trkpt lat="44.93054" lon="6.52461">
        <ele>2163.1</ele>
        <time>2013-05-04T07:30:06Z</time>
      </trkpt>
      <trkpt lat="44.93058" lon="6.52448">
        <ele>2164.06</ele>
        <time>2013-05-04T07:30:21Z</time>
      </trkpt>
      <trkpt lat="44.93059" lon="6.5244">
        <ele>2165.03</ele>
        <time>2013-05-04T07:30:31Z</time>
      </trkpt>
      <trkpt lat="44.93062" lon="6.52431">
        <ele>2165.99</ele>
        <time>2013-05-04T07:30:42Z</time>
      </trkpt>
      <trkpt lat="44.93065" lon="6.52422">
        <ele>2166.95</ele>
        <time>2013-05-04T07:30:53Z</time>
      </trkpt>
      <trkpt lat="44.93066" lon="6.52412">
        <ele>2167.91</ele>
        <time>2013-05-04T07:31:06Z</time>
      </trkpt>
      <trkpt lat="44.93067" lon="6.52409">
        <ele>2168.39</ele>
        <time>2013-05-04T07:31:10Z</time>
      </trkpt>
      <trkpt lat="44.93067" lon="6.52398">
        <ele>2168.87</ele>
        <time>2013-05-04T07:31:22Z</time>
      </trkpt>
      <trkpt lat="44.93067" lon="6.52388">
        <ele>2169.83</ele>
        <time>2013-05-04T07:31:34Z</time>
      </trkpt>
      <trkpt lat="44.93069" lon="6.52377">
        <ele>2170.79</ele>
        <time>2013-05-04T07:31:46Z</time>
      </trkpt>
      <trkpt lat="44.93072" lon="6.52365">
        <ele>2171.27</ele>
        <time>2013-05-04T07:31:58Z</time>
      </trkpt>
      <trkpt lat="44.93072" lon="6.52359">
        <ele>2172.24</ele>
        <time>2013-05-04T07:32:11Z</time>
      </trkpt>
      <trkpt lat="44.93073" lon="6.52353">
        <ele>2172.24</ele>
        <time>2013-05-04T07:32:24Z</time>
      </trkpt>
      <trkpt lat="44.93075" lon="6.5235">
        <ele>2172.24</ele>
        <time>2013-05-04T07:32:38Z</time>
      </trkpt>
      <trkpt lat="44.93075" lon="6.52349">
        <ele>2172.24</ele>
        <time>2013-05-04T07:32:59Z</time>
      </trkpt>
      <trkpt lat="44.93076" lon="6.52347">
        <ele>2172.72</ele>
        <time>2013-05-04T07:33:10Z</time>
      </trkpt>
      <trkpt lat="44.93077" lon="6.52339">
        <ele>2172.72</ele>
        <time>2013-05-04T07:33:17Z</time>
      </trkpt>
      <trkpt lat="44.93079" lon="6.5233">
        <ele>2173.68</ele>
        <time>2013-05-04T07:33:28Z</time>
      </trkpt>
      <trkpt lat="44.9308" lon="6.52324">
        <ele>2173.68</ele>
        <time>2013-05-04T07:33:34Z</time>
      </trkpt>
      <trkpt lat="44.93081" lon="6.52312">
        <ele>2174.64</ele>
        <time>2013-05-04T07:33:46Z</time>
      </trkpt>
      <trkpt lat="44.93083" lon="6.52301">
        <ele>2175.6</ele>
        <time>2013-05-04T07:33:57Z</time>
      </trkpt>
      <trkpt lat="44.93085" lon="6.52289">
        <ele>2176.56</ele>
        <time>2013-05-04T07:34:08Z</time>
      </trkpt>
      <trkpt lat="44.93087" lon="6.52277">
        <ele>2178</ele>
        <time>2013-05-04T07:34:20Z</time>
      </trkpt>
      <trkpt lat="44.9309" lon="6.52268">
        <ele>2178.48</ele>
        <time>2013-05-04T07:34:30Z</time>
      </trkpt>
      <trkpt lat="44.93094" lon="6.52257">
        <ele>2179.93</ele>
        <time>2013-05-04T07:34:43Z</time>
      </trkpt>
      <trkpt lat="44.93098" lon="6.52251">
        <ele>2181.37</ele>
        <time>2013-05-04T07:34:58Z</time>
      </trkpt>
      <trkpt lat="44.931" lon="6.52247">
        <ele>2182.81</ele>
        <time>2013-05-04T07:35:12Z</time>
      </trkpt>
      <trkpt lat="44.93101" lon="6.52243">
        <ele>2184.73</ele>
        <time>2013-05-04T07:35:27Z</time>
      </trkpt>
      <trkpt lat="44.93103" lon="6.52239">
        <ele>2186.18</ele>
        <time>2013-05-04T07:35:41Z</time>
      </trkpt>
      <trkpt lat="44.93107" lon="6.52234">
        <ele>2188.1</ele>
        <time>2013-05-04T07:35:57Z</time>
      </trkpt>
      <trkpt lat="44.93113" lon="6.52236">
        <ele>2189.54</ele>
        <time>2013-05-04T07:36:12Z</time>
      </trkpt>
      <trkpt lat="44.93117" lon="6.52236">
        <ele>2190.02</ele>
        <time>2013-05-04T07:36:28Z</time>
      </trkpt>
      <trkpt lat="44.93122" lon="6.52233">
        <ele>2191.46</ele>
        <time>2013-05-04T07:36:41Z</time>
      </trkpt>
      <trkpt lat="44.93123" lon="6.52229">
        <ele>2192.9</ele>
        <time>2013-05-04T07:36:56Z</time>
      </trkpt>
      <trkpt lat="44.93128" lon="6.5222">
        <ele>2194.35</ele>
        <time>2013-05-04T07:37:09Z</time>
      </trkpt>
      <trkpt lat="44.93133" lon="6.52211">
        <ele>2195.31</ele>
        <time>2013-05-04T07:37:23Z</time>
      </trkpt>
      <trkpt lat="44.93137" lon="6.52202">
        <ele>2197.71</ele>
        <time>2013-05-04T07:37:37Z</time>
      </trkpt>
      <trkpt lat="44.9314" lon="6.52195">
        <ele>2199.15</ele>
        <time>2013-05-04T07:37:53Z</time>
      </trkpt>
      <trkpt lat="44.93143" lon="6.52188">
        <ele>2200.59</ele>
        <time>2013-05-04T07:38:06Z</time>
      </trkpt>
      <trkpt lat="44.93147" lon="6.52184">
        <ele>2201.56</ele>
        <time>2013-05-04T07:38:20Z</time>
      </trkpt>
      <trkpt lat="44.93153" lon="6.52177">
        <ele>2203</ele>
        <time>2013-05-04T07:38:36Z</time>
      </trkpt>
      <trkpt lat="44.93154" lon="6.52176">
        <ele>2204.92</ele>
        <time>2013-05-04T07:38:50Z</time>
      </trkpt>
      <trkpt lat="44.93159" lon="6.5217">
        <ele>2206.36</ele>
        <time>2013-05-04T07:39:05Z</time>
      </trkpt>
      <trkpt lat="44.93159" lon="6.5217">
        <ele>2207.81</ele>
        <time>2013-05-04T07:39:20Z</time>
      </trkpt>
      <trkpt lat="44.93163" lon="6.52161">
        <ele>2209.25</ele>
        <time>2013-05-04T07:39:34Z</time>
      </trkpt>
      <trkpt lat="44.93163" lon="6.5216">
        <ele>2211.65</ele>
        <time>2013-05-04T07:39:52Z</time>
      </trkpt>
      <trkpt lat="44.93163" lon="6.5216">
        <ele>2213.57</ele>
        <time>2013-05-04T07:40:07Z</time>
      </trkpt>
      <trkpt lat="44.93163" lon="6.52159">
        <ele>2215.01</ele>
        <time>2013-05-04T07:40:23Z</time>
      </trkpt>
      <trkpt lat="44.93164" lon="6.52154">
        <ele>2216.94</ele>
        <time>2013-05-04T07:40:35Z</time>
      </trkpt>
      <trkpt lat="44.93166" lon="6.52146">
        <ele>2216.94</ele>
        <time>2013-05-04T07:40:48Z</time>
      </trkpt>
      <trkpt lat="44.93166" lon="6.52146">
        <ele>2218.86</ele>
        <time>2013-05-04T07:40:59Z</time>
      </trkpt>
      <trkpt lat="44.93166" lon="6.52146">
        <ele>2219.34</ele>
        <time>2013-05-04T07:41:10Z</time>
      </trkpt>
      <trkpt lat="44.93166" lon="6.52144">
        <ele>2220.78</ele>
        <time>2013-05-04T07:41:24Z</time>
      </trkpt>
      <trkpt lat="44.93166" lon="6.52144">
        <ele>2222.22</ele>
        <time>2013-05-04T07:41:38Z</time>
      </trkpt>
      <trkpt lat="44.93166" lon="6.52144">
        <ele>2223.19</ele>
        <time>2013-05-04T07:41:48Z</time>
      </trkpt>
      <trkpt lat="44.93166" lon="6.52144">
        <ele>2224.63</ele>
        <time>2013-05-04T07:42:03Z</time>
      </trkpt>
      <trkpt lat="44.93166" lon="6.52144">
        <ele>2225.59</ele>
        <time>2013-05-04T07:42:17Z</time>
      </trkpt>
      <trkpt lat="44.93166" lon="6.52144">
        <ele>2227.51</ele>
        <time>2013-05-04T07:42:30Z</time>
      </trkpt>
      <trkpt lat="44.93167" lon="6.52142">
        <ele>2229.43</ele>
        <time>2013-05-04T07:42:45Z</time>
      </trkpt>
      <trkpt lat="44.93167" lon="6.52142">
        <ele>2230.4</ele>
        <time>2013-05-04T07:42:59Z</time>
      </trkpt>
      <trkpt lat="44.93167" lon="6.52142">
        <ele>2232.32</ele>
        <time>2013-05-04T07:43:13Z</time>
      </trkpt>
      <trkpt lat="44.93168" lon="6.52142">
        <ele>2233.76</ele>
        <time>2013-05-04T07:43:27Z</time>
      </trkpt>
      <trkpt lat="44.93168" lon="6.52142">
        <ele>2235.2</ele>
        <time>2013-05-04T07:43:42Z</time>
      </trkpt>
      <trkpt lat="44.93168" lon="6.52142">
        <ele>2236.16</ele>
        <time>2013-05-04T07:43:56Z</time>
      </trkpt>
      <trkpt lat="44.93169" lon="6.52142">
        <ele>2238.09</ele>
        <time>2013-05-04T07:44:11Z</time>
      </trkpt>
      <trkpt lat="44.93169" lon="6.52142">
        <ele>2239.05</ele>
        <time>2013-05-04T07:44:22Z</time>
      </trkpt>
      <trkpt lat="44.93169" lon="6.52142">
        <ele>2240.01</ele>
        <time>2013-05-04T07:44:35Z</time>
      </trkpt>
      <trkpt lat="44.9317" lon="6.5214">
        <ele>2241.45</ele>
        <time>2013-05-04T07:44:45Z</time>
      </trkpt>
      <trkpt lat="44.9317" lon="6.5214">
        <ele>2242.89</ele>
        <time>2013-05-04T07:44:59Z</time>
      </trkpt>
      <trkpt lat="44.9317" lon="6.5214">
        <ele>2244.33</ele>
        <time>2013-05-04T07:45:11Z</time>
      </trkpt>
      <trkpt lat="44.93171" lon="6.52139">
        <ele>2245.3</ele>
        <time>2013-05-04T07:45:23Z</time>
      </trkpt>
      <trkpt lat="44.93186" lon="6.52113">
        <ele>2247.7</ele>
        <time>2013-05-04T07:45:41Z</time>
      </trkpt>
      <trkpt lat="44.93199" lon="6.52084">
        <ele>2249.14</ele>
        <time>2013-05-04T07:45:55Z</time>
      </trkpt>
      <trkpt lat="44.93204" lon="6.52079">
        <ele>2248.66</ele>
        <time>2013-05-04T07:46:16Z</time>
      </trkpt>
      <trkpt lat="44.93218" lon="6.52073">
        <ele>2250.1</ele>
        <time>2013-05-04T07:46:29Z</time>
      </trkpt>
      <trkpt lat="44.9323" lon="6.52071">
        <ele>2251.06</ele>
        <time>2013-05-04T07:46:40Z</time>
      </trkpt>
      <trkpt lat="44.93243" lon="6.5207">
        <ele>2252.51</ele>
        <time>2013-05-04T07:46:52Z</time>
      </trkpt>
      <trkpt lat="44.93248" lon="6.52069">
        <ele>2253.95</ele>
        <time>2013-05-04T07:47:05Z</time>
      </trkpt>
      <trkpt lat="44.93252" lon="6.52071">
        <ele>2254.91</ele>
        <time>2013-05-04T07:47:17Z</time>
      </trkpt>
      <trkpt lat="44.93257" lon="6.52071">
        <ele>2255.87</ele>
        <time>2013-05-04T07:47:32Z</time>
      </trkpt>
      <trkpt lat="44.93263" lon="6.52071">
        <ele>2257.31</ele>
        <time>2013-05-04T07:47:46Z</time>
      </trkpt>
      <trkpt lat="44.93265" lon="6.52073">
        <ele>2258.75</ele>
        <time>2013-05-04T07:47:59Z</time>
      </trkpt>
      <trkpt lat="44.9327" lon="6.52074">
        <ele>2259.24</ele>
        <time>2013-05-04T07:48:12Z</time>
      </trkpt>
      <trkpt lat="44.93272" lon="6.52079">
        <ele>2260.2</ele>
        <time>2013-05-04T07:48:26Z</time>
      </trkpt>
      <trkpt lat="44.93277" lon="6.52081">
        <ele>2261.16</ele>
        <time>2013-05-04T07:48:37Z</time>
      </trkpt>
      <trkpt lat="44.9328" lon="6.52082">
        <ele>2263.56</ele>
        <time>2013-05-04T07:48:51Z</time>
      </trkpt>
      <trkpt lat="44.93286" lon="6.52083">
        <ele>2264.04</ele>
        <time>2013-05-04T07:49:04Z</time>
      </trkpt>
      <trkpt lat="44.93286" lon="6.5208">
        <ele>2265.96</ele>
        <time>2013-05-04T07:49:14Z</time>
      </trkpt>
      <trkpt lat="44.93285" lon="6.52075">
        <ele>2266.45</ele>
        <time>2013-05-04T07:49:28Z</time>
      </trkpt>
      <trkpt lat="44.93286" lon="6.5207">
        <ele>2267.89</ele>
        <time>2013-05-04T07:49:40Z</time>
      </trkpt>
      <trkpt lat="44.93287" lon="6.52064">
        <ele>2268.85</ele>
        <time>2013-05-04T07:49:53Z</time>
      </trkpt>
      <trkpt lat="44.93289" lon="6.5206">
        <ele>2270.77</ele>
        <time>2013-05-04T07:50:08Z</time>
      </trkpt>
      <trkpt lat="44.9329" lon="6.52054">
        <ele>2271.73</ele>
        <time>2013-05-04T07:50:22Z</time>
      </trkpt>
      <trkpt lat="44.9329" lon="6.52048">
        <ele>2272.69</ele>
        <time>2013-05-04T07:50:35Z</time>
      </trkpt>
      <trkpt lat="44.93289" lon="6.52042">
        <ele>2274.14</ele>
        <time>2013-05-04T07:50:46Z</time>
      </trkpt>
      <trkpt lat="44.9329" lon="6.52041">
        <ele>2275.58</ele>
        <time>2013-05-04T07:50:59Z</time>
      </trkpt>
      <trkpt lat="44.93294" lon="6.52039">
        <ele>2277.02</ele>
        <time>2013-05-04T07:51:11Z</time>
      </trkpt>
      <trkpt lat="44.93296" lon="6.52035">
        <ele>2278.46</ele>
        <time>2013-05-04T07:51:26Z</time>
      </trkpt>
      <trkpt lat="44.93297" lon="6.52031">
        <ele>2279.42</ele>
        <time>2013-05-04T07:51:38Z</time>
      </trkpt>
      <trkpt lat="44.933" lon="6.52025">
        <ele>2281.83</ele>
        <time>2013-05-04T07:51:54Z</time>
      </trkpt>
      <trkpt lat="44.93303" lon="6.52023">
        <ele>2283.75</ele>
        <time>2013-05-04T07:52:08Z</time>
      </trkpt>
      <trkpt lat="44.93307" lon="6.52019">
        <ele>2284.71</ele>
        <time>2013-05-04T07:52:22Z</time>
      </trkpt>
      <trkpt lat="44.93311" lon="6.52014">
        <ele>2286.15</ele>
        <time>2013-05-04T07:52:36Z</time>
      </trkpt>
      <trkpt lat="44.93312" lon="6.52012">
        <ele>2288.08</ele>
        <time>2013-05-04T07:52:50Z</time>
      </trkpt>
      <trkpt lat="44.93313" lon="6.52006">
        <ele>2289.52</ele>
        <time>2013-05-04T07:53:03Z</time>
      </trkpt>
      <trkpt lat="44.93314" lon="6.52002">
        <ele>2290.48</ele>
        <time>2013-05-04T07:53:16Z</time>
      </trkpt>
      <trkpt lat="44.93315" lon="6.51999">
        <ele>2292.4</ele>
        <time>2013-05-04T07:53:29Z</time>
      </trkpt>
      <trkpt lat="44.93316" lon="6.51995">
        <ele>2293.36</ele>
        <time>2013-05-04T07:53:42Z</time>
      </trkpt>
      <trkpt lat="44.93317" lon="6.5199">
        <ele>2294.32</ele>
        <time>2013-05-04T07:53:57Z</time>
      </trkpt>
      <trkpt lat="44.93319" lon="6.51985">
        <ele>2296.73</ele>
        <time>2013-05-04T07:54:09Z</time>
      </trkpt>
      <trkpt lat="44.93321" lon="6.51977">
        <ele>2297.21</ele>
        <time>2013-05-04T07:54:21Z</time>
      </trkpt>
      <trkpt lat="44.93321" lon="6.51976">
        <ele>2298.65</ele>
        <time>2013-05-04T07:54:33Z</time>
      </trkpt>
      <trkpt lat="44.93321" lon="6.51975">
        <ele>2299.13</ele>
        <time>2013-05-04T07:54:45Z</time>
      </trkpt>
      <trkpt lat="44.93321" lon="6.51975">
        <ele>2299.13</ele>
        <time>2013-05-04T07:55:08Z</time>
      </trkpt>
      <trkpt lat="44.93324" lon="6.51966">
        <ele>2300.57</ele>
        <time>2013-05-04T07:55:21Z</time>
      </trkpt>
      <trkpt lat="44.93324" lon="6.51964">
        <ele>2300.57</ele>
        <time>2013-05-04T07:55:22Z</time>
      </trkpt>
      <trkpt lat="44.93325" lon="6.51957">
        <ele>2302.01</ele>
        <time>2013-05-04T07:55:35Z</time>
      </trkpt>
      <trkpt lat="44.93325" lon="6.51953">
        <ele>2303.46</ele>
        <time>2013-05-04T07:55:46Z</time>
      </trkpt>
      <trkpt lat="44.93326" lon="6.51945">
        <ele>2304.9</ele>
        <time>2013-05-04T07:56:00Z</time>
      </trkpt>
      <trkpt lat="44.93328" lon="6.51939">
        <ele>2306.34</ele>
        <time>2013-05-04T07:56:13Z</time>
      </trkpt>
      <trkpt lat="44.93329" lon="6.51933">
        <ele>2307.78</ele>
        <time>2013-05-04T07:56:22Z</time>
      </trkpt>
      <trkpt lat="44.93329" lon="6.51929">
        <ele>2308.26</ele>
        <time>2013-05-04T07:56:34Z</time>
      </trkpt>
      <trkpt lat="44.93329" lon="6.51924">
        <ele>2309.7</ele>
        <time>2013-05-04T07:56:46Z</time>
      </trkpt>
      <trkpt lat="44.93329" lon="6.51918">
        <ele>2311.15</ele>
        <time>2013-05-04T07:56:59Z</time>
      </trkpt>
      <trkpt lat="44.93329" lon="6.51913">
        <ele>2312.59</ele>
        <time>2013-05-04T07:57:12Z</time>
      </trkpt>
      <trkpt lat="44.93329" lon="6.51909">
        <ele>2314.51</ele>
        <time>2013-05-04T07:57:24Z</time>
      </trkpt>
      <trkpt lat="44.9333" lon="6.51903">
        <ele>2315.95</ele>
        <time>2013-05-04T07:57:38Z</time>
      </trkpt>
      <trkpt lat="44.9333" lon="6.51897">
        <ele>2317.4</ele>
        <time>2013-05-04T07:57:51Z</time>
      </trkpt>
      <trkpt lat="44.9333" lon="6.51892">
        <ele>2318.84</ele>
        <time>2013-05-04T07:58:03Z</time>
      </trkpt>
      <trkpt lat="44.9333" lon="6.51888">
        <ele>2320.76</ele>
        <time>2013-05-04T07:58:11Z</time>
      </trkpt>
      <trkpt lat="44.9333" lon="6.51883">
        <ele>2320.76</ele>
        <time>2013-05-04T07:58:23Z</time>
      </trkpt>
      <trkpt lat="44.9333" lon="6.51877">
        <ele>2321.24</ele>
        <time>2013-05-04T07:58:35Z</time>
      </trkpt>
      <trkpt lat="44.9333" lon="6.51869">
        <ele>2322.2</ele>
        <time>2013-05-04T07:58:47Z</time>
      </trkpt>
      <trkpt lat="44.93331" lon="6.51863">
        <ele>2323.64</ele>
        <time>2013-05-04T07:59:00Z</time>
      </trkpt>
      <trkpt lat="44.93333" lon="6.51855">
        <ele>2324.12</ele>
        <time>2013-05-04T07:59:13Z</time>
      </trkpt>
      <trkpt lat="44.93334" lon="6.51846">
        <ele>2325.57</ele>
        <time>2013-05-04T07:59:28Z</time>
      </trkpt>
      <trkpt lat="44.93334" lon="6.51839">
        <ele>2327.01</ele>
        <time>2013-05-04T07:59:42Z</time>
      </trkpt>
      <trkpt lat="44.93334" lon="6.51834">
        <ele>2328.45</ele>
        <time>2013-05-04T07:59:56Z</time>
      </trkpt>
      <trkpt lat="44.93334" lon="6.5183">
        <ele>2329.89</ele>
        <time>2013-05-04T08:00:08Z</time>
      </trkpt>
      <trkpt lat="44.93333" lon="6.51829">
        <ele>2331.33</ele>
        <time>2013-05-04T08:00:12Z</time>
      </trkpt>
      <trkpt lat="44.93331" lon="6.51822">
        <ele>2331.33</ele>
        <time>2013-05-04T08:00:25Z</time>
      </trkpt>
      <trkpt lat="44.93331" lon="6.51819">
        <ele>2332.78</ele>
        <time>2013-05-04T08:00:37Z</time>
      </trkpt>
      <trkpt lat="44.9333" lon="6.51815">
        <ele>2333.74</ele>
        <time>2013-05-04T08:00:47Z</time>
      </trkpt>
      <trkpt lat="44.93329" lon="6.51811">
        <ele>2335.66</ele>
        <time>2013-05-04T08:00:59Z</time>
      </trkpt>
      <trkpt lat="44.9333" lon="6.51806">
        <ele>2336.62</ele>
        <time>2013-05-04T08:01:11Z</time>
      </trkpt>
      <trkpt lat="44.93331" lon="6.51804">
        <ele>2337.58</ele>
        <time>2013-05-04T08:01:23Z</time>
      </trkpt>
      <trkpt lat="44.93333" lon="6.51801">
        <ele>2339.02</ele>
        <time>2013-05-04T08:01:34Z</time>
      </trkpt>
      <trkpt lat="44.93334" lon="6.51797">
        <ele>2340.47</ele>
        <time>2013-05-04T08:01:46Z</time>
      </trkpt>
      <trkpt lat="44.93335" lon="6.51793">
        <ele>2341.91</ele>
        <time>2013-05-04T08:01:59Z</time>
      </trkpt>
      <trkpt lat="44.93337" lon="6.5179">
        <ele>2342.87</ele>
        <time>2013-05-04T08:02:10Z</time>
      </trkpt>
      <trkpt lat="44.93337" lon="6.51789">
        <ele>2344.79</ele>
        <time>2013-05-04T08:02:12Z</time>
      </trkpt>
      <trkpt lat="44.93337" lon="6.51788">
        <ele>2343.35</ele>
        <time>2013-05-04T08:02:14Z</time>
      </trkpt>
      <trkpt lat="44.93337" lon="6.51786">
        <ele>2343.35</ele>
        <time>2013-05-04T08:02:25Z</time>
      </trkpt>
      <trkpt lat="44.93338" lon="6.51785">
        <ele>2344.79</ele>
        <time>2013-05-04T08:02:28Z</time>
      </trkpt>
      <trkpt lat="44.93338" lon="6.51784">
        <ele>2345.75</ele>
        <time>2013-05-04T08:02:40Z</time>
      </trkpt>
      <trkpt lat="44.93339" lon="6.5178">
        <ele>2346.72</ele>
        <time>2013-05-04T08:02:51Z</time>
      </trkpt>
      <trkpt lat="44.93341" lon="6.51776">
        <ele>2348.16</ele>
        <time>2013-05-04T08:03:04Z</time>
      </trkpt>
      <trkpt lat="44.93342" lon="6.51774">
        <ele>2350.08</ele>
        <time>2013-05-04T08:03:16Z</time>
      </trkpt>
      <trkpt lat="44.93345" lon="6.5177">
        <ele>2351.04</ele>
        <time>2013-05-04T08:03:31Z</time>
      </trkpt>
      <trkpt lat="44.93345" lon="6.51769">
        <ele>2352.48</ele>
        <time>2013-05-04T08:03:43Z</time>
      </trkpt>
      <trkpt lat="44.93346" lon="6.51766">
        <ele>2353.44</ele>
        <time>2013-05-04T08:03:55Z</time>
      </trkpt>
      <trkpt lat="44.93346" lon="6.51763">
        <ele>2355.37</ele>
        <time>2013-05-04T08:04:10Z</time>
      </trkpt>
      <trkpt lat="44.93347" lon="6.51762">
        <ele>2356.81</ele>
        <time>2013-05-04T08:04:13Z</time>
      </trkpt>
      <trkpt lat="44.93349" lon="6.51759">
        <ele>2356.81</ele>
        <time>2013-05-04T08:04:27Z</time>
      </trkpt>
      <trkpt lat="44.93349" lon="6.51756">
        <ele>2358.25</ele>
        <time>2013-05-04T08:04:40Z</time>
      </trkpt>
      <trkpt lat="44.93351" lon="6.5175">
        <ele>2359.21</ele>
        <time>2013-05-04T08:04:51Z</time>
      </trkpt>
      <trkpt lat="44.93353" lon="6.51745">
        <ele>2360.65</ele>
        <time>2013-05-04T08:05:05Z</time>
      </trkpt>
      <trkpt lat="44.93352" lon="6.51744">
        <ele>2360.65</ele>
        <time>2013-05-04T08:05:21Z</time>
      </trkpt>
      <trkpt lat="44.93353" lon="6.51737">
        <ele>2362.1</ele>
        <time>2013-05-04T08:05:33Z</time>
      </trkpt>
      <trkpt lat="44.93353" lon="6.51733">
        <ele>2363.06</ele>
        <time>2013-05-04T08:05:47Z</time>
      </trkpt>
      <trkpt lat="44.93354" lon="6.51727">
        <ele>2364.98</ele>
        <time>2013-05-04T08:06:00Z</time>
      </trkpt>
      <trkpt lat="44.93354" lon="6.51722">
        <ele>2367.86</ele>
        <time>2013-05-04T08:06:13Z</time>
      </trkpt>
      <trkpt lat="44.93353" lon="6.51718">
        <ele>2366.42</ele>
        <time>2013-05-04T08:06:25Z</time>
      </trkpt>
      <trkpt lat="44.93353" lon="6.51713">
        <ele>2367.86</ele>
        <time>2013-05-04T08:06:32Z</time>
      </trkpt>
      <trkpt lat="44.93354" lon="6.51709">
        <ele>2369.31</ele>
        <time>2013-05-04T08:06:44Z</time>
      </trkpt>
      <trkpt lat="44.93353" lon="6.51703">
        <ele>2370.75</ele>
        <time>2013-05-04T08:06:58Z</time>
      </trkpt>
      <trkpt lat="44.93354" lon="6.51697">
        <ele>2371.71</ele>
        <time>2013-05-04T08:07:11Z</time>
      </trkpt>
      <trkpt lat="44.93353" lon="6.51692">
        <ele>2372.67</ele>
        <time>2013-05-04T08:07:24Z</time>
      </trkpt>
      <trkpt lat="44.93351" lon="6.51685">
        <ele>2374.11</ele>
        <time>2013-05-04T08:07:36Z</time>
      </trkpt>
      <trkpt lat="44.93351" lon="6.51679">
        <ele>2375.07</ele>
        <time>2013-05-04T08:07:48Z</time>
      </trkpt>
      <trkpt lat="44.93349" lon="6.51674">
        <ele>2376.04</ele>
        <time>2013-05-04T08:07:59Z</time>
      </trkpt>
      <trkpt lat="44.93348" lon="6.51671">
        <ele>2376.52</ele>
        <time>2013-05-04T08:08:11Z</time>
      </trkpt>
      <trkpt lat="44.93346" lon="6.51666">
        <ele>2377.96</ele>
        <time>2013-05-04T08:08:24Z</time>
      </trkpt>
      <trkpt lat="44.93344" lon="6.5166">
        <ele>2378.92</ele>
        <time>2013-05-04T08:08:35Z</time>
      </trkpt>
      <trkpt lat="44.93342" lon="6.51654">
        <ele>2379.88</ele>
        <time>2013-05-04T08:08:47Z</time>
      </trkpt>
      <trkpt lat="44.9334" lon="6.51651">
        <ele>2380.84</ele>
        <time>2013-05-04T08:08:59Z</time>
      </trkpt>
      <trkpt lat="44.93337" lon="6.51647">
        <ele>2381.8</ele>
        <time>2013-05-04T08:09:14Z</time>
      </trkpt>
      <trkpt lat="44.93334" lon="6.51644">
        <ele>2383.25</ele>
        <time>2013-05-04T08:09:27Z</time>
      </trkpt>
      <trkpt lat="44.93331" lon="6.51641">
        <ele>2384.21</ele>
        <time>2013-05-04T08:09:38Z</time>
      </trkpt>
      <trkpt lat="44.93327" lon="6.51637">
        <ele>2385.65</ele>
        <time>2013-05-04T08:09:52Z</time>
      </trkpt>
      <trkpt lat="44.93327" lon="6.51634">
        <ele>2386.61</ele>
        <time>2013-05-04T08:10:04Z</time>
      </trkpt>
      <trkpt lat="44.93327" lon="6.51632">
        <ele>2389.97</ele>
        <time>2013-05-04T08:10:16Z</time>
      </trkpt>
      <trkpt lat="44.93327" lon="6.51632">
        <ele>2389.97</ele>
        <time>2013-05-04T08:10:17Z</time>
      </trkpt>
      <trkpt lat="44.93327" lon="6.51632">
        <ele>2388.53</ele>
        <time>2013-05-04T08:10:33Z</time>
      </trkpt>
      <trkpt lat="44.93327" lon="6.51632">
        <ele>2389.97</ele>
        <time>2013-05-04T08:10:43Z</time>
      </trkpt>
      <trkpt lat="44.93327" lon="6.51631">
        <ele>2391.9</ele>
        <time>2013-05-04T08:10:58Z</time>
      </trkpt>
      <trkpt lat="44.93327" lon="6.51632">
        <ele>2392.86</ele>
        <time>2013-05-04T08:11:10Z</time>
      </trkpt>
      <trkpt lat="44.93327" lon="6.51632">
        <ele>2394.78</ele>
        <time>2013-05-04T08:11:23Z</time>
      </trkpt>
      <trkpt lat="44.93327" lon="6.5163">
        <ele>2395.74</ele>
        <time>2013-05-04T08:11:36Z</time>
      </trkpt>
      <trkpt lat="44.93327" lon="6.5163">
        <ele>2397.18</ele>
        <time>2013-05-04T08:11:50Z</time>
      </trkpt>
      <trkpt lat="44.93331" lon="6.51618">
        <ele>2398.63</ele>
        <time>2013-05-04T08:12:03Z</time>
      </trkpt>
      <trkpt lat="44.93333" lon="6.51611">
        <ele>2400.07</ele>
        <time>2013-05-04T08:12:18Z</time>
      </trkpt>
      <trkpt lat="44.93333" lon="6.51611">
        <ele>2399.59</ele>
        <time>2013-05-04T08:12:42Z</time>
      </trkpt>
      <trkpt lat="44.93333" lon="6.5161">
        <ele>2401.03</ele>
        <time>2013-05-04T08:13:00Z</time>
      </trkpt>
      <trkpt lat="44.93336" lon="6.51598">
        <ele>2401.99</ele>
        <time>2013-05-04T08:13:14Z</time>
      </trkpt>
      <trkpt lat="44.93336" lon="6.51598">
        <ele>2403.43</ele>
        <time>2013-05-04T08:13:27Z</time>
      </trkpt>
      <trkpt lat="44.93338" lon="6.5159">
        <ele>2404.88</ele>
        <time>2013-05-04T08:13:38Z</time>
      </trkpt>
      <trkpt lat="44.93339" lon="6.51588">
        <ele>2406.32</ele>
        <time>2013-05-04T08:13:50Z</time>
      </trkpt>
      <trkpt lat="44.93339" lon="6.51588">
        <ele>2407.76</ele>
        <time>2013-05-04T08:14:04Z</time>
      </trkpt>
      <trkpt lat="44.93339" lon="6.51588">
        <ele>2408.72</ele>
        <time>2013-05-04T08:14:17Z</time>
      </trkpt>
      <trkpt lat="44.93339" lon="6.51587">
        <ele>2410.64</ele>
        <time>2013-05-04T08:14:32Z</time>
      </trkpt>
      <trkpt lat="44.93339" lon="6.51587">
        <ele>2410.64</ele>
        <time>2013-05-04T08:14:33Z</time>
      </trkpt>
      <trkpt lat="44.93339" lon="6.51587">
        <ele>2411.6</ele>
        <time>2013-05-04T08:14:47Z</time>
      </trkpt>
      <trkpt lat="44.93339" lon="6.51585">
        <ele>2413.05</ele>
        <time>2013-05-04T08:15:03Z</time>
      </trkpt>
      <trkpt lat="44.93339" lon="6.51585">
        <ele>2414.49</ele>
        <time>2013-05-04T08:15:20Z</time>
      </trkpt>
      <trkpt lat="44.93341" lon="6.51577">
        <ele>2416.41</ele>
        <time>2013-05-04T08:15:34Z</time>
      </trkpt>
      <trkpt lat="44.93343" lon="6.51568">
        <ele>2417.37</ele>
        <time>2013-05-04T08:15:47Z</time>
      </trkpt>
      <trkpt lat="44.9335" lon="6.51551">
        <ele>2418.81</ele>
        <time>2013-05-04T08:15:59Z</time>
      </trkpt>
      <trkpt lat="44.93355" lon="6.51543">
        <ele>2419.78</ele>
        <time>2013-05-04T08:16:11Z</time>
      </trkpt>
      <trkpt lat="44.93362" lon="6.51534">
        <ele>2421.22</ele>
        <time>2013-05-04T08:16:23Z</time>
      </trkpt>
      <trkpt lat="44.93366" lon="6.51529">
        <ele>2422.66</ele>
        <time>2013-05-04T08:16:37Z</time>
      </trkpt>
      <trkpt lat="44.93372" lon="6.51521">
        <ele>2424.1</ele>
        <time>2013-05-04T08:16:53Z</time>
      </trkpt>
      <trkpt lat="44.93372" lon="6.51521">
        <ele>2425.54</ele>
        <time>2013-05-04T08:17:06Z</time>
      </trkpt>
      <trkpt lat="44.93372" lon="6.51521">
        <ele>2426.99</ele>
        <time>2013-05-04T08:17:19Z</time>
      </trkpt>
      <trkpt lat="44.93372" lon="6.51521">
        <ele>2428.43</ele>
        <time>2013-05-04T08:17:32Z</time>
      </trkpt>
      <trkpt lat="44.93372" lon="6.51519">
        <ele>2429.39</ele>
        <time>2013-05-04T08:17:48Z</time>
      </trkpt>
      <trkpt lat="44.93375" lon="6.51515">
        <ele>2431.31</ele>
        <time>2013-05-04T08:18:01Z</time>
      </trkpt>
      <trkpt lat="44.93383" lon="6.51506">
        <ele>2432.27</ele>
        <time>2013-05-04T08:18:13Z</time>
      </trkpt>
      <trkpt lat="44.93389" lon="6.51502">
        <ele>2433.23</ele>
        <time>2013-05-04T08:18:26Z</time>
      </trkpt>
      <trkpt lat="44.93393" lon="6.51495">
        <ele>2434.68</ele>
        <time>2013-05-04T08:18:38Z</time>
      </trkpt>
      <trkpt lat="44.93397" lon="6.51489">
        <ele>2436.12</ele>
        <time>2013-05-04T08:18:51Z</time>
      </trkpt>
      <trkpt lat="44.93398" lon="6.51486">
        <ele>2437.08</ele>
        <time>2013-05-04T08:19:03Z</time>
      </trkpt>
      <trkpt lat="44.93399" lon="6.51483">
        <ele>2438.04</ele>
        <time>2013-05-04T08:19:15Z</time>
      </trkpt>
      <trkpt lat="44.93401" lon="6.51477">
        <ele>2439.48</ele>
        <time>2013-05-04T08:19:27Z</time>
      </trkpt>
      <trkpt lat="44.93402" lon="6.51475">
        <ele>2440.44</ele>
        <time>2013-05-04T08:19:39Z</time>
      </trkpt>
      <trkpt lat="44.93402" lon="6.51475">
        <ele>2441.89</ele>
        <time>2013-05-04T08:19:51Z</time>
      </trkpt>
      <trkpt lat="44.93403" lon="6.51467">
        <ele>2443.33</ele>
        <time>2013-05-04T08:20:03Z</time>
      </trkpt>
      <trkpt lat="44.93404" lon="6.51462">
        <ele>2444.29</ele>
        <time>2013-05-04T08:20:14Z</time>
      </trkpt>
      <trkpt lat="44.93404" lon="6.51462">
        <ele>2445.73</ele>
        <time>2013-05-04T08:20:27Z</time>
      </trkpt>
      <trkpt lat="44.93404" lon="6.51462">
        <ele>2447.17</ele>
        <time>2013-05-04T08:20:39Z</time>
      </trkpt>
      <trkpt lat="44.93405" lon="6.51456">
        <ele>2448.62</ele>
        <time>2013-05-04T08:20:51Z</time>
      </trkpt>
      <trkpt lat="44.93407" lon="6.5145">
        <ele>2449.58</ele>
        <time>2013-05-04T08:21:04Z</time>
      </trkpt>
      <trkpt lat="44.93407" lon="6.51443">
        <ele>2451.02</ele>
        <time>2013-05-04T08:21:16Z</time>
      </trkpt>
      <trkpt lat="44.93409" lon="6.51439">
        <ele>2452.46</ele>
        <time>2013-05-04T08:21:28Z</time>
      </trkpt>
      <trkpt lat="44.93411" lon="6.51434">
        <ele>2453.42</ele>
        <time>2013-05-04T08:21:41Z</time>
      </trkpt>
      <trkpt lat="44.93415" lon="6.51428">
        <ele>2455.34</ele>
        <time>2013-05-04T08:21:53Z</time>
      </trkpt>
      <trkpt lat="44.93416" lon="6.51424">
        <ele>2455.82</ele>
        <time>2013-05-04T08:22:05Z</time>
      </trkpt>
      <trkpt lat="44.93419" lon="6.51421">
        <ele>2457.27</ele>
        <time>2013-05-04T08:22:19Z</time>
      </trkpt>
      <trkpt lat="44.93421" lon="6.51418">
        <ele>2458.71</ele>
        <time>2013-05-04T08:22:33Z</time>
      </trkpt>
      <trkpt lat="44.93423" lon="6.51414">
        <ele>2460.15</ele>
        <time>2013-05-04T08:22:44Z</time>
      </trkpt>
      <trkpt lat="44.93427" lon="6.51412">
        <ele>2461.11</ele>
        <time>2013-05-04T08:22:55Z</time>
      </trkpt>
      <trkpt lat="44.93427" lon="6.51412">
        <ele>2461.59</ele>
        <time>2013-05-04T08:23:09Z</time>
      </trkpt>
      <trkpt lat="44.93428" lon="6.51411">
        <ele>2462.55</ele>
        <time>2013-05-04T08:23:34Z</time>
      </trkpt>
      <trkpt lat="44.93435" lon="6.51405">
        <ele>2464.48</ele>
        <time>2013-05-04T08:23:48Z</time>
      </trkpt>
      <trkpt lat="44.93443" lon="6.51397">
        <ele>2465.92</ele>
        <time>2013-05-04T08:24:00Z</time>
      </trkpt>
      <trkpt lat="44.93447" lon="6.51394">
        <ele>2467.36</ele>
        <time>2013-05-04T08:24:15Z</time>
      </trkpt>
      <trkpt lat="44.93453" lon="6.51392">
        <ele>2469.28</ele>
        <time>2013-05-04T08:24:30Z</time>
      </trkpt>
      <trkpt lat="44.93459" lon="6.51389">
        <ele>2470.73</ele>
        <time>2013-05-04T08:24:44Z</time>
      </trkpt>
      <trkpt lat="44.93464" lon="6.51387">
        <ele>2472.17</ele>
        <time>2013-05-04T08:24:58Z</time>
      </trkpt>
      <trkpt lat="44.93466" lon="6.51386">
        <ele>2472.17</ele>
        <time>2013-05-04T08:25:12Z</time>
      </trkpt>
      <trkpt lat="44.93468" lon="6.51386">
        <ele>2473.13</ele>
        <time>2013-05-04T08:25:24Z</time>
      </trkpt>
      <trkpt lat="44.93471" lon="6.51385">
        <ele>2473.13</ele>
        <time>2013-05-04T08:25:39Z</time>
      </trkpt>
      <trkpt lat="44.93476" lon="6.51383">
        <ele>2474.09</ele>
        <time>2013-05-04T08:25:51Z</time>
      </trkpt>
      <trkpt lat="44.93476" lon="6.51384">
        <ele>2474.57</ele>
        <time>2013-05-04T08:26:07Z</time>
      </trkpt>
      <trkpt lat="44.93476" lon="6.51384">
        <ele>2473.13</ele>
        <time>2013-05-04T08:26:13Z</time>
      </trkpt>
      <trkpt lat="44.93477" lon="6.51383">
        <ele>2472.65</ele>
        <time>2013-05-04T08:26:28Z</time>
      </trkpt>
      <trkpt lat="44.93477" lon="6.51383">
        <ele>2472.65</ele>
        <time>2013-05-04T08:26:55Z</time>
      </trkpt>
      <trkpt lat="44.93477" lon="6.51383">
        <ele>2472.65</ele>
        <time>2013-05-04T08:27:28Z</time>
      </trkpt>
      <trkpt lat="44.93477" lon="6.51382">
        <ele>2472.65</ele>
        <time>2013-05-04T08:28:05Z</time>
      </trkpt>
      <trkpt lat="44.93478" lon="6.51382">
        <ele>2472.17</ele>
        <time>2013-05-04T08:28:42Z</time>
      </trkpt>
      <trkpt lat="44.93478" lon="6.51382">
        <ele>2472.17</ele>
        <time>2013-05-04T08:29:06Z</time>
      </trkpt>
      <trkpt lat="44.93479" lon="6.51382">
        <ele>2472.17</ele>
        <time>2013-05-04T08:29:43Z</time>
      </trkpt>
      <trkpt lat="44.93479" lon="6.51382">
        <ele>2472.17</ele>
        <time>2013-05-04T08:30:23Z</time>
      </trkpt>
      <trkpt lat="44.93479" lon="6.51381">
        <ele>2472.17</ele>
        <time>2013-05-04T08:30:58Z</time>
      </trkpt>
      <trkpt lat="44.93479" lon="6.51381">
        <ele>2472.17</ele>
        <time>2013-05-04T08:31:36Z</time>
      </trkpt>
      <trkpt lat="44.93479" lon="6.51382">
        <ele>2472.17</ele>
        <time>2013-05-04T08:32:14Z</time>
      </trkpt>
      <trkpt lat="44.93479" lon="6.51381">
        <ele>2472.17</ele>
        <time>2013-05-04T08:32:48Z</time>
      </trkpt>
      <trkpt lat="44.93479" lon="6.51381">
        <ele>2472.17</ele>
        <time>2013-05-04T08:33:23Z</time>
      </trkpt>
      <trkpt lat="44.93479" lon="6.51382">
        <ele>2472.17</ele>
        <time>2013-05-04T08:34:02Z</time>
      </trkpt>
      <trkpt lat="44.93479" lon="6.51382">
        <ele>2472.17</ele>
        <time>2013-05-04T08:34:37Z</time>
      </trkpt>
      <trkpt lat="44.93479" lon="6.51382">
        <ele>2472.17</ele>
        <time>2013-05-04T08:35:11Z</time>
      </trkpt>
      <trkpt lat="44.93479" lon="6.51382">
        <ele>2472.17</ele>
        <time>2013-05-04T08:35:50Z</time>
      </trkpt>
      <trkpt lat="44.93479" lon="6.51381">
        <ele>2472.17</ele>
        <time>2013-05-04T08:36:33Z</time>
      </trkpt>
      <trkpt lat="44.93479" lon="6.51381">
        <ele>2472.17</ele>
        <time>2013-05-04T08:37:10Z</time>
      </trkpt>
      <trkpt lat="44.93479" lon="6.51381">
        <ele>2472.17</ele>
        <time>2013-05-04T08:37:49Z</time>
      </trkpt>
      <trkpt lat="44.93479" lon="6.51381">
        <ele>2472.17</ele>
        <time>2013-05-04T08:38:22Z</time>
      </trkpt>
      <trkpt lat="44.93478" lon="6.51381">
        <ele>2471.69</ele>
        <time>2013-05-04T08:38:57Z</time>
      </trkpt>
      <trkpt lat="44.93478" lon="6.51381">
        <ele>2472.65</ele>
        <time>2013-05-04T08:39:12Z</time>
      </trkpt>
      <trkpt lat="44.93478" lon="6.51381">
        <ele>2472.65</ele>
        <time>2013-05-04T08:39:44Z</time>
      </trkpt>
      <trkpt lat="44.93478" lon="6.51381">
        <ele>2472.65</ele>
        <time>2013-05-04T08:40:18Z</time>
      </trkpt>
      <trkpt lat="44.93478" lon="6.51381">
        <ele>2472.65</ele>
        <time>2013-05-04T08:40:50Z</time>
      </trkpt>
      <trkpt lat="44.93479" lon="6.51382">
        <ele>2473.61</ele>
        <time>2013-05-04T08:41:07Z</time>
      </trkpt>
      <trkpt lat="44.93482" lon="6.5138">
        <ele>2474.09</ele>
        <time>2013-05-04T08:41:19Z</time>
      </trkpt>
      <trkpt lat="44.93487" lon="6.51373">
        <ele>2475.05</ele>
        <time>2013-05-04T08:41:31Z</time>
      </trkpt>
      <trkpt lat="44.93494" lon="6.51368">
        <ele>2476.01</ele>
        <time>2013-05-04T08:41:44Z</time>
      </trkpt>
      <trkpt lat="44.93498" lon="6.51363">
        <ele>2477.45</ele>
        <time>2013-05-04T08:41:58Z</time>
      </trkpt>
      <trkpt lat="44.93503" lon="6.51357">
        <ele>2478.42</ele>
        <time>2013-05-04T08:42:11Z</time>
      </trkpt>
      <trkpt lat="44.93509" lon="6.51352">
        <ele>2479.86</ele>
        <time>2013-05-04T08:42:27Z</time>
      </trkpt>
      <trkpt lat="44.93512" lon="6.51345">
        <ele>2480.82</ele>
        <time>2013-05-04T08:42:41Z</time>
      </trkpt>
      <trkpt lat="44.93515" lon="6.5134">
        <ele>2482.74</ele>
        <time>2013-05-04T08:42:56Z</time>
      </trkpt>
      <trkpt lat="44.9352" lon="6.51334">
        <ele>2483.7</ele>
        <time>2013-05-04T08:43:12Z</time>
      </trkpt>
      <trkpt lat="44.93522" lon="6.51327">
        <ele>2485.15</ele>
        <time>2013-05-04T08:43:26Z</time>
      </trkpt>
      <trkpt lat="44.93526" lon="6.5132">
        <ele>2486.11</ele>
        <time>2013-05-04T08:43:39Z</time>
      </trkpt>
      <trkpt lat="44.9353" lon="6.51316">
        <ele>2487.07</ele>
        <time>2013-05-04T08:43:51Z</time>
      </trkpt>
      <trkpt lat="44.93531" lon="6.51314">
        <ele>2488.03</ele>
        <time>2013-05-04T08:44:04Z</time>
      </trkpt>
      <trkpt lat="44.93534" lon="6.51307">
        <ele>2488.99</ele>
        <time>2013-05-04T08:44:13Z</time>
      </trkpt>
      <trkpt lat="44.93539" lon="6.51297">
        <ele>2488.99</ele>
        <time>2013-05-04T08:44:26Z</time>
      </trkpt>
      <trkpt lat="44.93546" lon="6.51289">
        <ele>2489.95</ele>
        <time>2013-05-04T08:44:40Z</time>
      </trkpt>
      <trkpt lat="44.9355" lon="6.51282">
        <ele>2491.39</ele>
        <time>2013-05-04T08:44:54Z</time>
      </trkpt>
      <trkpt lat="44.93554" lon="6.51271">
        <ele>2492.36</ele>
        <time>2013-05-04T08:45:06Z</time>
      </trkpt>
      <trkpt lat="44.93559" lon="6.51269">
        <ele>2493.8</ele>
        <time>2013-05-04T08:45:21Z</time>
      </trkpt>
      <trkpt lat="44.93562" lon="6.51264">
        <ele>2494.76</ele>
        <time>2013-05-04T08:45:35Z</time>
      </trkpt>
      <trkpt lat="44.93566" lon="6.51258">
        <ele>2496.2</ele>
        <time>2013-05-04T08:45:48Z</time>
      </trkpt>
      <trkpt lat="44.93568" lon="6.51255">
        <ele>2497.16</ele>
        <time>2013-05-04T08:46:02Z</time>
      </trkpt>
      <trkpt lat="44.93571" lon="6.51251">
        <ele>2498.12</ele>
        <time>2013-05-04T08:46:17Z</time>
      </trkpt>
      <trkpt lat="44.93573" lon="6.51249">
        <ele>2500.05</ele>
        <time>2013-05-04T08:46:33Z</time>
      </trkpt>
      <trkpt lat="44.93578" lon="6.51246">
        <ele>2501.01</ele>
        <time>2013-05-04T08:46:46Z</time>
      </trkpt>
      <trkpt lat="44.9358" lon="6.51244">
        <ele>2501.97</ele>
        <time>2013-05-04T08:46:59Z</time>
      </trkpt>
      <trkpt lat="44.93583" lon="6.51241">
        <ele>2502.93</ele>
        <time>2013-05-04T08:47:11Z</time>
      </trkpt>
      <trkpt lat="44.93586" lon="6.51239">
        <ele>2503.89</ele>
        <time>2013-05-04T08:47:25Z</time>
      </trkpt>
      <trkpt lat="44.93588" lon="6.51236">
        <ele>2505.33</ele>
        <time>2013-05-04T08:47:40Z</time>
      </trkpt>
      <trkpt lat="44.93591" lon="6.51232">
        <ele>2506.77</ele>
        <time>2013-05-04T08:47:51Z</time>
      </trkpt>
      <trkpt lat="44.93594" lon="6.5123">
        <ele>2507.74</ele>
        <time>2013-05-04T08:48:03Z</time>
      </trkpt>
      <trkpt lat="44.93597" lon="6.51226">
        <ele>2508.7</ele>
        <time>2013-05-04T08:48:15Z</time>
      </trkpt>
      <trkpt lat="44.93599" lon="6.51225">
        <ele>2509.66</ele>
        <time>2013-05-04T08:48:26Z</time>
      </trkpt>
      <trkpt lat="44.936" lon="6.51223">
        <ele>2510.62</ele>
        <time>2013-05-04T08:48:37Z</time>
      </trkpt>
      <trkpt lat="44.93603" lon="6.51221">
        <ele>2511.58</ele>
        <time>2013-05-04T08:48:48Z</time>
      </trkpt>
      <trkpt lat="44.93605" lon="6.51219">
        <ele>2513.02</ele>
        <time>2013-05-04T08:49:01Z</time>
      </trkpt>
      <trkpt lat="44.93607" lon="6.51216">
        <ele>2514.47</ele>
        <time>2013-05-04T08:49:14Z</time>
      </trkpt>
      <trkpt lat="44.9361" lon="6.51214">
        <ele>2515.43</ele>
        <time>2013-05-04T08:49:28Z</time>
      </trkpt>
      <trkpt lat="44.93612" lon="6.51212">
        <ele>2516.39</ele>
        <time>2013-05-04T08:49:40Z</time>
      </trkpt>
      <trkpt lat="44.93615" lon="6.51208">
        <ele>2517.35</ele>
        <time>2013-05-04T08:49:51Z</time>
      </trkpt>
      <trkpt lat="44.93617" lon="6.51205">
        <ele>2519.27</ele>
        <time>2013-05-04T08:49:58Z</time>
      </trkpt>
      <trkpt lat="44.9362" lon="6.51201">
        <ele>2519.27</ele>
        <time>2013-05-04T08:50:13Z</time>
      </trkpt>
      <trkpt lat="44.93621" lon="6.51198">
        <ele>2520.71</ele>
        <time>2013-05-04T08:50:28Z</time>
      </trkpt>
      <trkpt lat="44.93622" lon="6.51196">
        <ele>2521.19</ele>
        <time>2013-05-04T08:50:42Z</time>
      </trkpt>
      <trkpt lat="44.93622" lon="6.51196">
        <ele>2522.64</ele>
        <time>2013-05-04T08:50:46Z</time>
      </trkpt>
      <trkpt lat="44.93623" lon="6.51195">
        <ele>2521.68</ele>
        <time>2013-05-04T08:51:03Z</time>
      </trkpt>
      <trkpt lat="44.93623" lon="6.51195">
        <ele>2521.19</ele>
        <time>2013-05-04T08:51:18Z</time>
      </trkpt>
      <trkpt lat="44.93624" lon="6.51193">
        <ele>2520.71</ele>
        <time>2013-05-04T08:51:36Z</time>
      </trkpt>
      <trkpt lat="44.93624" lon="6.51193">
        <ele>2520.71</ele>
        <time>2013-05-04T08:52:02Z</time>
      </trkpt>
      <trkpt lat="44.93625" lon="6.51193">
        <ele>2520.71</ele>
        <time>2013-05-04T08:52:19Z</time>
      </trkpt>
      <trkpt lat="44.93625" lon="6.51193">
        <ele>2520.71</ele>
        <time>2013-05-04T08:52:41Z</time>
      </trkpt>
      <trkpt lat="44.93625" lon="6.51193">
        <ele>2520.71</ele>
        <time>2013-05-04T08:53:17Z</time>
      </trkpt>
      <trkpt lat="44.93625" lon="6.51193">
        <ele>2519.75</ele>
        <time>2013-05-04T08:53:42Z</time>
      </trkpt>
      <trkpt lat="44.93625" lon="6.51193">
        <ele>2520.23</ele>
        <time>2013-05-04T08:54:14Z</time>
      </trkpt>
      <trkpt lat="44.93625" lon="6.51192">
        <ele>2520.23</ele>
        <time>2013-05-04T08:54:48Z</time>
      </trkpt>
      <trkpt lat="44.93625" lon="6.51192">
        <ele>2519.75</ele>
        <time>2013-05-04T08:55:20Z</time>
      </trkpt>
      <trkpt lat="44.93625" lon="6.51192">
        <ele>2521.19</ele>
        <time>2013-05-04T08:55:25Z</time>
      </trkpt>
      <trkpt lat="44.93625" lon="6.51193">
        <ele>2521.19</ele>
        <time>2013-05-04T08:55:41Z</time>
      </trkpt>
      <trkpt lat="44.93625" lon="6.51193">
        <ele>2521.19</ele>
        <time>2013-05-04T08:55:59Z</time>
      </trkpt>
      <trkpt lat="44.93625" lon="6.51193">
        <ele>2520.71</ele>
        <time>2013-05-04T08:56:18Z</time>
      </trkpt>
      <trkpt lat="44.93624" lon="6.51193">
        <ele>2520.71</ele>
        <time>2013-05-04T08:56:28Z</time>
      </trkpt>
      <trkpt lat="44.93624" lon="6.51193">
        <ele>2520.71</ele>
        <time>2013-05-04T08:56:45Z</time>
      </trkpt>
      <trkpt lat="44.93627" lon="6.51192">
        <ele>2521.68</ele>
        <time>2013-05-04T08:56:58Z</time>
      </trkpt>
      <trkpt lat="44.9363" lon="6.5119">
        <ele>2522.64</ele>
        <time>2013-05-04T08:57:18Z</time>
      </trkpt>
      <trkpt lat="44.93632" lon="6.51187">
        <ele>2523.12</ele>
        <time>2013-05-04T08:57:33Z</time>
      </trkpt>
      <trkpt lat="44.93633" lon="6.51186">
        <ele>2523.6</ele>
        <time>2013-05-04T08:57:52Z</time>
      </trkpt>
      <trkpt lat="44.93635" lon="6.51184">
        <ele>2525.52</ele>
        <time>2013-05-04T08:58:04Z</time>
      </trkpt>
      <trkpt lat="44.93635" lon="6.51184">
        <ele>2526</ele>
        <time>2013-05-04T08:58:22Z</time>
      </trkpt>
      <trkpt lat="44.93635" lon="6.51184">
        <ele>2524.56</ele>
        <time>2013-05-04T08:58:26Z</time>
      </trkpt>
      <trkpt lat="44.93638" lon="6.5118">
        <ele>2526</ele>
        <time>2013-05-04T08:58:44Z</time>
      </trkpt>
      <trkpt lat="44.93643" lon="6.51175">
        <ele>2526.96</ele>
        <time>2013-05-04T08:58:58Z</time>
      </trkpt>
      <trkpt lat="44.93647" lon="6.51173">
        <ele>2528.89</ele>
        <time>2013-05-04T08:59:13Z</time>
      </trkpt>
      <trkpt lat="44.93649" lon="6.51169">
        <ele>2529.85</ele>
        <time>2013-05-04T08:59:25Z</time>
      </trkpt>
      <trkpt lat="44.93652" lon="6.51167">
        <ele>2531.29</ele>
        <time>2013-05-04T08:59:39Z</time>
      </trkpt>
      <trkpt lat="44.93657" lon="6.51165">
        <ele>2532.73</ele>
        <time>2013-05-04T08:59:50Z</time>
      </trkpt>
      <trkpt lat="44.93659" lon="6.51164">
        <ele>2533.69</ele>
        <time>2013-05-04T09:00:03Z</time>
      </trkpt>
      <trkpt lat="44.93663" lon="6.51162">
        <ele>2533.69</ele>
        <time>2013-05-04T09:00:18Z</time>
      </trkpt>
      <trkpt lat="44.93663" lon="6.51162">
        <ele>2535.13</ele>
        <time>2013-05-04T09:00:20Z</time>
      </trkpt>
      <trkpt lat="44.93667" lon="6.51159">
        <ele>2536.1</ele>
        <time>2013-05-04T09:00:35Z</time>
      </trkpt>
      <trkpt lat="44.93673" lon="6.51156">
        <ele>2537.54</ele>
        <time>2013-05-04T09:00:50Z</time>
      </trkpt>
      <trkpt lat="44.93676" lon="6.51155">
        <ele>2538.5</ele>
        <time>2013-05-04T09:01:03Z</time>
      </trkpt>
      <trkpt lat="44.93681" lon="6.51153">
        <ele>2539.94</ele>
        <time>2013-05-04T09:01:16Z</time>
      </trkpt>
      <trkpt lat="44.93683" lon="6.51152">
        <ele>2541.38</ele>
        <time>2013-05-04T09:01:29Z</time>
      </trkpt>
      <trkpt lat="44.93686" lon="6.51152">
        <ele>2541.86</ele>
        <time>2013-05-04T09:01:42Z</time>
      </trkpt>
      <trkpt lat="44.93692" lon="6.51152">
        <ele>2542.82</ele>
        <time>2013-05-04T09:01:54Z</time>
      </trkpt>
      <trkpt lat="44.93695" lon="6.51155">
        <ele>2543.79</ele>
        <time>2013-05-04T09:02:06Z</time>
      </trkpt>
      <trkpt lat="44.937" lon="6.51158">
        <ele>2543.79</ele>
        <time>2013-05-04T09:02:19Z</time>
      </trkpt>
      <trkpt lat="44.93704" lon="6.51161">
        <ele>2545.23</ele>
        <time>2013-05-04T09:02:32Z</time>
      </trkpt>
      <trkpt lat="44.93707" lon="6.51165">
        <ele>2546.19</ele>
        <time>2013-05-04T09:02:46Z</time>
      </trkpt>
      <trkpt lat="44.93709" lon="6.51168">
        <ele>2547.15</ele>
        <time>2013-05-04T09:02:59Z</time>
      </trkpt>
      <trkpt lat="44.93712" lon="6.51171">
        <ele>2547.63</ele>
        <time>2013-05-04T09:03:12Z</time>
      </trkpt>
      <trkpt lat="44.93714" lon="6.51174">
        <ele>2548.11</ele>
        <time>2013-05-04T09:03:24Z</time>
      </trkpt>
      <trkpt lat="44.93717" lon="6.51176">
        <ele>2548.59</ele>
        <time>2013-05-04T09:03:36Z</time>
      </trkpt>
      <trkpt lat="44.93719" lon="6.51178">
        <ele>2549.55</ele>
        <time>2013-05-04T09:03:48Z</time>
      </trkpt>
      <trkpt lat="44.9372" lon="6.5118">
        <ele>2550.03</ele>
        <time>2013-05-04T09:04:00Z</time>
      </trkpt>
      <trkpt lat="44.93722" lon="6.5118">
        <ele>2551.96</ele>
        <time>2013-05-04T09:04:05Z</time>
      </trkpt>
      <trkpt lat="44.93723" lon="6.5118">
        <ele>2550.51</ele>
        <time>2013-05-04T09:04:07Z</time>
      </trkpt>
      <trkpt lat="44.93723" lon="6.51182">
        <ele>2551</ele>
        <time>2013-05-04T09:04:19Z</time>
      </trkpt>
      <trkpt lat="44.93724" lon="6.51184">
        <ele>2551.96</ele>
        <time>2013-05-04T09:04:24Z</time>
      </trkpt>
      <trkpt lat="44.93724" lon="6.51184">
        <ele>2551.96</ele>
        <time>2013-05-04T09:04:26Z</time>
      </trkpt>
      <trkpt lat="44.93727" lon="6.51186">
        <ele>2552.92</ele>
        <time>2013-05-04T09:04:32Z</time>
      </trkpt>
      <trkpt lat="44.9373" lon="6.5119">
        <ele>2553.88</ele>
        <time>2013-05-04T09:04:45Z</time>
      </trkpt>
      <trkpt lat="44.93732" lon="6.51192">
        <ele>2554.84</ele>
        <time>2013-05-04T09:04:57Z</time>
      </trkpt>
      <trkpt lat="44.93732" lon="6.51192">
        <ele>2555.32</ele>
        <time>2013-05-04T09:05:04Z</time>
      </trkpt>
      <trkpt lat="44.93734" lon="6.51192">
        <ele>2556.28</ele>
        <time>2013-05-04T09:05:18Z</time>
      </trkpt>
      <trkpt lat="44.93734" lon="6.51192">
        <ele>2556.28</ele>
        <time>2013-05-04T09:05:36Z</time>
      </trkpt>
      <trkpt lat="44.93738" lon="6.51193">
        <ele>2558.21</ele>
        <time>2013-05-04T09:05:49Z</time>
      </trkpt>
      <trkpt lat="44.9374" lon="6.51193">
        <ele>2559.65</ele>
        <time>2013-05-04T09:06:03Z</time>
      </trkpt>
      <trkpt lat="44.93746" lon="6.51192">
        <ele>2560.13</ele>
        <time>2013-05-04T09:06:17Z</time>
      </trkpt>
      <trkpt lat="44.93747" lon="6.51192">
        <ele>2561.57</ele>
        <time>2013-05-04T09:06:23Z</time>
      </trkpt>
      <trkpt lat="44.93749" lon="6.51192">
        <ele>2562.53</ele>
        <time>2013-05-04T09:06:35Z</time>
      </trkpt>
      <trkpt lat="44.93752" lon="6.51191">
        <ele>2563.49</ele>
        <time>2013-05-04T09:06:47Z</time>
      </trkpt>
      <trkpt lat="44.93754" lon="6.51191">
        <ele>2565.42</ele>
        <time>2013-05-04T09:07:00Z</time>
      </trkpt>
      <trkpt lat="44.93759" lon="6.51192">
        <ele>2566.38</ele>
        <time>2013-05-04T09:07:13Z</time>
      </trkpt>
      <trkpt lat="44.93762" lon="6.51191">
        <ele>2567.82</ele>
        <time>2013-05-04T09:07:26Z</time>
      </trkpt>
      <trkpt lat="44.93762" lon="6.51191">
        <ele>2568.3</ele>
        <time>2013-05-04T09:07:41Z</time>
      </trkpt>
      <trkpt lat="44.93765" lon="6.51187">
        <ele>2569.26</ele>
        <time>2013-05-04T09:07:54Z</time>
      </trkpt>
      <trkpt lat="44.93766" lon="6.51183">
        <ele>2570.7</ele>
        <time>2013-05-04T09:08:05Z</time>
      </trkpt>
      <trkpt lat="44.93766" lon="6.51182">
        <ele>2572.63</ele>
        <time>2013-05-04T09:08:08Z</time>
      </trkpt>
      <trkpt lat="44.93766" lon="6.51182">
        <ele>2571.18</ele>
        <time>2013-05-04T09:08:10Z</time>
      </trkpt>
      <trkpt lat="44.93769" lon="6.51179">
        <ele>2572.63</ele>
        <time>2013-05-04T09:08:22Z</time>
      </trkpt>
      <trkpt lat="44.93771" lon="6.51176">
        <ele>2574.07</ele>
        <time>2013-05-04T09:08:34Z</time>
      </trkpt>
      <trkpt lat="44.93773" lon="6.51174">
        <ele>2575.03</ele>
        <time>2013-05-04T09:08:45Z</time>
      </trkpt>
      <trkpt lat="44.93775" lon="6.51172">
        <ele>2575.99</ele>
        <time>2013-05-04T09:08:55Z</time>
      </trkpt>
      <trkpt lat="44.93777" lon="6.5117">
        <ele>2576.95</ele>
        <time>2013-05-04T09:09:08Z</time>
      </trkpt>
      <trkpt lat="44.93779" lon="6.51167">
        <ele>2577.43</ele>
        <time>2013-05-04T09:09:24Z</time>
      </trkpt>
      <trkpt lat="44.93781" lon="6.51162">
        <ele>2578.87</ele>
        <time>2013-05-04T09:09:35Z</time>
      </trkpt>
      <trkpt lat="44.93784" lon="6.51158">
        <ele>2580.32</ele>
        <time>2013-05-04T09:09:48Z</time>
      </trkpt>
      <trkpt lat="44.93787" lon="6.51154">
        <ele>2581.28</ele>
        <time>2013-05-04T09:10:00Z</time>
      </trkpt>
      <trkpt lat="44.93789" lon="6.51152">
        <ele>2584.16</ele>
        <time>2013-05-04T09:10:09Z</time>
      </trkpt>
      <trkpt lat="44.93789" lon="6.51152">
        <ele>2582.72</ele>
        <time>2013-05-04T09:10:12Z</time>
      </trkpt>
      <trkpt lat="44.93792" lon="6.51149">
        <ele>2584.16</ele>
        <time>2013-05-04T09:10:24Z</time>
      </trkpt>
      <trkpt lat="44.93796" lon="6.51144">
        <ele>2585.12</ele>
        <time>2013-05-04T09:10:37Z</time>
      </trkpt>
      <trkpt lat="44.938" lon="6.51141">
        <ele>2586.08</ele>
        <time>2013-05-04T09:10:51Z</time>
      </trkpt>
      <trkpt lat="44.93804" lon="6.51138">
        <ele>2587.04</ele>
        <time>2013-05-04T09:11:05Z</time>
      </trkpt>
      <trkpt lat="44.93807" lon="6.51134">
        <ele>2587.53</ele>
        <time>2013-05-04T09:11:18Z</time>
      </trkpt>
      <trkpt lat="44.93809" lon="6.5113">
        <ele>2588.97</ele>
        <time>2013-05-04T09:11:32Z</time>
      </trkpt>
      <trkpt lat="44.93813" lon="6.51124">
        <ele>2590.41</ele>
        <time>2013-05-04T09:11:46Z</time>
      </trkpt>
      <trkpt lat="44.93814" lon="6.51123">
        <ele>2590.89</ele>
        <time>2013-05-04T09:12:05Z</time>
      </trkpt>
      <trkpt lat="44.93814" lon="6.51121">
        <ele>2592.81</ele>
        <time>2013-05-04T09:12:10Z</time>
      </trkpt>
      <trkpt lat="44.93817" lon="6.51118">
        <ele>2593.29</ele>
        <time>2013-05-04T09:12:22Z</time>
      </trkpt>
      <trkpt lat="44.93819" lon="6.51113">
        <ele>2594.74</ele>
        <time>2013-05-04T09:12:37Z</time>
      </trkpt>
      <trkpt lat="44.9382" lon="6.51108">
        <ele>2596.18</ele>
        <time>2013-05-04T09:12:53Z</time>
      </trkpt>
      <trkpt lat="44.93821" lon="6.51107">
        <ele>2597.14</ele>
        <time>2013-05-04T09:12:59Z</time>
      </trkpt>
      <trkpt lat="44.93823" lon="6.51101">
        <ele>2597.62</ele>
        <time>2013-05-04T09:13:11Z</time>
      </trkpt>
      <trkpt lat="44.93825" lon="6.51097">
        <ele>2599.06</ele>
        <time>2013-05-04T09:13:22Z</time>
      </trkpt>
      <trkpt lat="44.93826" lon="6.51094">
        <ele>2600.02</ele>
        <time>2013-05-04T09:13:34Z</time>
      </trkpt>
      <trkpt lat="44.93828" lon="6.51091">
        <ele>2600.98</ele>
        <time>2013-05-04T09:13:46Z</time>
      </trkpt>
      <trkpt lat="44.93829" lon="6.51086">
        <ele>2602.43</ele>
        <time>2013-05-04T09:13:59Z</time>
      </trkpt>
      <trkpt lat="44.93831" lon="6.51082">
        <ele>2603.87</ele>
        <time>2013-05-04T09:14:12Z</time>
      </trkpt>
      <trkpt lat="44.93831" lon="6.5108">
        <ele>2603.87</ele>
        <time>2013-05-04T09:14:26Z</time>
      </trkpt>
      <trkpt lat="44.93831" lon="6.51078">
        <ele>2605.31</ele>
        <time>2013-05-04T09:14:31Z</time>
      </trkpt>
      <trkpt lat="44.9383" lon="6.51076">
        <ele>2605.79</ele>
        <time>2013-05-04T09:14:46Z</time>
      </trkpt>
      <trkpt lat="44.93828" lon="6.51073">
        <ele>2607.23</ele>
        <time>2013-05-04T09:14:57Z</time>
      </trkpt>
      <trkpt lat="44.93827" lon="6.51069">
        <ele>2608.19</ele>
        <time>2013-05-04T09:15:09Z</time>
      </trkpt>
      <trkpt lat="44.93824" lon="6.51067">
        <ele>2609.64</ele>
        <time>2013-05-04T09:15:21Z</time>
      </trkpt>
      <trkpt lat="44.93821" lon="6.51064">
        <ele>2611.08</ele>
        <time>2013-05-04T09:15:36Z</time>
      </trkpt>
      <trkpt lat="44.93818" lon="6.51061">
        <ele>2612.04</ele>
        <time>2013-05-04T09:15:49Z</time>
      </trkpt>
      <trkpt lat="44.93815" lon="6.51059">
        <ele>2613.48</ele>
        <time>2013-05-04T09:16:01Z</time>
      </trkpt>
      <trkpt lat="44.93815" lon="6.51059">
        <ele>2613.48</ele>
        <time>2013-05-04T09:16:20Z</time>
      </trkpt>
      <trkpt lat="44.93815" lon="6.51059">
        <ele>2614.44</ele>
        <time>2013-05-04T09:16:30Z</time>
      </trkpt>
      <trkpt lat="44.93817" lon="6.51055">
        <ele>2614.44</ele>
        <time>2013-05-04T09:16:42Z</time>
      </trkpt>
      <trkpt lat="44.93818" lon="6.51053">
        <ele>2615.4</ele>
        <time>2013-05-04T09:16:54Z</time>
      </trkpt>
      <trkpt lat="44.9382" lon="6.51051">
        <ele>2616.85</ele>
        <time>2013-05-04T09:17:07Z</time>
      </trkpt>
      <trkpt lat="44.93823" lon="6.51046">
        <ele>2618.29</ele>
        <time>2013-05-04T09:17:20Z</time>
      </trkpt>
      <trkpt lat="44.93824" lon="6.51044">
        <ele>2619.25</ele>
        <time>2013-05-04T09:17:32Z</time>
      </trkpt>
      <trkpt lat="44.93826" lon="6.5104">
        <ele>2620.21</ele>
        <time>2013-05-04T09:17:45Z</time>
      </trkpt>
      <trkpt lat="44.93828" lon="6.51036">
        <ele>2622.13</ele>
        <time>2013-05-04T09:17:58Z</time>
      </trkpt>
      <trkpt lat="44.9383" lon="6.51033">
        <ele>2623.09</ele>
        <time>2013-05-04T09:18:09Z</time>
      </trkpt>
      <trkpt lat="44.93831" lon="6.51033">
        <ele>2624.54</ele>
        <time>2013-05-04T09:18:13Z</time>
      </trkpt>
      <trkpt lat="44.93831" lon="6.51033">
        <ele>2623.58</ele>
        <time>2013-05-04T09:18:15Z</time>
      </trkpt>
      <trkpt lat="44.93831" lon="6.51033">
        <ele>2624.54</ele>
        <time>2013-05-04T09:18:28Z</time>
      </trkpt>
      <trkpt lat="44.93831" lon="6.51029">
        <ele>2624.54</ele>
        <time>2013-05-04T09:18:49Z</time>
      </trkpt>
      <trkpt lat="44.93831" lon="6.51029">
        <ele>2625.98</ele>
        <time>2013-05-04T09:19:09Z</time>
      </trkpt>
      <trkpt lat="44.93831" lon="6.51028">
        <ele>2625.98</ele>
        <time>2013-05-04T09:19:20Z</time>
      </trkpt>
      <trkpt lat="44.93829" lon="6.51025">
        <ele>2627.9</ele>
        <time>2013-05-04T09:19:31Z</time>
      </trkpt>
      <trkpt lat="44.93829" lon="6.51025">
        <ele>2628.86</ele>
        <time>2013-05-04T09:19:42Z</time>
      </trkpt>
      <trkpt lat="44.93829" lon="6.51025">
        <ele>2630.3</ele>
        <time>2013-05-04T09:19:55Z</time>
      </trkpt>
      <trkpt lat="44.93826" lon="6.5102">
        <ele>2631.75</ele>
        <time>2013-05-04T09:20:07Z</time>
      </trkpt>
      <trkpt lat="44.93824" lon="6.51018">
        <ele>2632.71</ele>
        <time>2013-05-04T09:20:14Z</time>
      </trkpt>
      <trkpt lat="44.9382" lon="6.51013">
        <ele>2632.71</ele>
        <time>2013-05-04T09:20:27Z</time>
      </trkpt>
      <trkpt lat="44.93817" lon="6.51009">
        <ele>2633.67</ele>
        <time>2013-05-04T09:20:38Z</time>
      </trkpt>
      <trkpt lat="44.93814" lon="6.51006">
        <ele>2635.11</ele>
        <time>2013-05-04T09:20:49Z</time>
      </trkpt>
      <trkpt lat="44.9381" lon="6.51002">
        <ele>2636.07</ele>
        <time>2013-05-04T09:21:01Z</time>
      </trkpt>
      <trkpt lat="44.93806" lon="6.50998">
        <ele>2637.51</ele>
        <time>2013-05-04T09:21:14Z</time>
      </trkpt>
      <trkpt lat="44.93804" lon="6.50995">
        <ele>2638.48</ele>
        <time>2013-05-04T09:21:24Z</time>
      </trkpt>
      <trkpt lat="44.93801" lon="6.50992">
        <ele>2639.44</ele>
        <time>2013-05-04T09:21:37Z</time>
      </trkpt>
      <trkpt lat="44.93797" lon="6.50988">
        <ele>2640.4</ele>
        <time>2013-05-04T09:21:49Z</time>
      </trkpt>
      <trkpt lat="44.93794" lon="6.50985">
        <ele>2641.84</ele>
        <time>2013-05-04T09:22:01Z</time>
      </trkpt>
      <trkpt lat="44.93792" lon="6.50983">
        <ele>2643.76</ele>
        <time>2013-05-04T09:22:13Z</time>
      </trkpt>
      <trkpt lat="44.93791" lon="6.50982">
        <ele>2645.21</ele>
        <time>2013-05-04T09:22:16Z</time>
      </trkpt>
      <trkpt lat="44.93791" lon="6.50981">
        <ele>2643.76</ele>
        <time>2013-05-04T09:22:18Z</time>
      </trkpt>
      <trkpt lat="44.93789" lon="6.50978">
        <ele>2645.21</ele>
        <time>2013-05-04T09:22:29Z</time>
      </trkpt>
      <trkpt lat="44.93789" lon="6.50977">
        <ele>2645.69</ele>
        <time>2013-05-04T09:22:47Z</time>
      </trkpt>
      <trkpt lat="44.93789" lon="6.50977">
        <ele>2647.13</ele>
        <time>2013-05-04T09:23:02Z</time>
      </trkpt>
      <trkpt lat="44.93789" lon="6.50975">
        <ele>2647.13</ele>
        <time>2013-05-04T09:23:20Z</time>
      </trkpt>
      <trkpt lat="44.93791" lon="6.50971">
        <ele>2648.09</ele>
        <time>2013-05-04T09:23:35Z</time>
      </trkpt>
      <trkpt lat="44.93794" lon="6.50967">
        <ele>2649.53</ele>
        <time>2013-05-04T09:23:49Z</time>
      </trkpt>
      <trkpt lat="44.93798" lon="6.50962">
        <ele>2650.97</ele>
        <time>2013-05-04T09:24:02Z</time>
      </trkpt>
      <trkpt lat="44.93799" lon="6.50959">
        <ele>2653.86</ele>
        <time>2013-05-04T09:24:16Z</time>
      </trkpt>
      <trkpt lat="44.93799" lon="6.50958">
        <ele>2653.86</ele>
        <time>2013-05-04T09:24:17Z</time>
      </trkpt>
      <trkpt lat="44.93799" lon="6.50958">
        <ele>2652.42</ele>
        <time>2013-05-04T09:24:19Z</time>
      </trkpt>
      <trkpt lat="44.93801" lon="6.50956">
        <ele>2653.86</ele>
        <time>2013-05-04T09:24:32Z</time>
      </trkpt>
      <trkpt lat="44.938" lon="6.50952">
        <ele>2654.82</ele>
        <time>2013-05-04T09:24:43Z</time>
      </trkpt>
      <trkpt lat="44.93798" lon="6.50949">
        <ele>2655.78</ele>
        <time>2013-05-04T09:24:54Z</time>
      </trkpt>
      <trkpt lat="44.93799" lon="6.50948">
        <ele>2656.74</ele>
        <time>2013-05-04T09:25:06Z</time>
      </trkpt>
      <trkpt lat="44.93799" lon="6.50948">
        <ele>2658.18</ele>
        <time>2013-05-04T09:25:20Z</time>
      </trkpt>
      <trkpt lat="44.938" lon="6.50947">
        <ele>2656.74</ele>
        <time>2013-05-04T09:25:22Z</time>
      </trkpt>
      <trkpt lat="44.93801" lon="6.50945">
        <ele>2657.7</ele>
        <time>2013-05-04T09:25:42Z</time>
      </trkpt>
      <trkpt lat="44.93802" lon="6.50942">
        <ele>2658.66</ele>
        <time>2013-05-04T09:25:55Z</time>
      </trkpt>
      <trkpt lat="44.93805" lon="6.50939">
        <ele>2660.59</ele>
        <time>2013-05-04T09:26:09Z</time>
      </trkpt>
      <trkpt lat="44.93806" lon="6.50935">
        <ele>2661.55</ele>
        <time>2013-05-04T09:26:22Z</time>
      </trkpt>
      <trkpt lat="44.93807" lon="6.50932">
        <ele>2662.51</ele>
        <time>2013-05-04T09:26:31Z</time>
      </trkpt>
      <trkpt lat="44.93809" lon="6.5093">
        <ele>2663.95</ele>
        <time>2013-05-04T09:26:42Z</time>
      </trkpt>
      <trkpt lat="44.9381" lon="6.50927">
        <ele>2664.43</ele>
        <time>2013-05-04T09:26:54Z</time>
      </trkpt>
      <trkpt lat="44.93811" lon="6.50923">
        <ele>2665.39</ele>
        <time>2013-05-04T09:27:07Z</time>
      </trkpt>
      <trkpt lat="44.93812" lon="6.5092">
        <ele>2666.83</ele>
        <time>2013-05-04T09:27:20Z</time>
      </trkpt>
      <trkpt lat="44.93814" lon="6.50914">
        <ele>2668.28</ele>
        <time>2013-05-04T09:27:34Z</time>
      </trkpt>
      <trkpt lat="44.93814" lon="6.5091">
        <ele>2669.24</ele>
        <time>2013-05-04T09:27:45Z</time>
      </trkpt>
      <trkpt lat="44.93815" lon="6.50906">
        <ele>2670.68</ele>
        <time>2013-05-04T09:27:57Z</time>
      </trkpt>
      <trkpt lat="44.93816" lon="6.50901">
        <ele>2672.12</ele>
        <time>2013-05-04T09:28:13Z</time>
      </trkpt>
      <trkpt lat="44.93816" lon="6.50896">
        <ele>2672.12</ele>
        <time>2013-05-04T09:28:30Z</time>
      </trkpt>
      <trkpt lat="44.93817" lon="6.50889">
        <ele>2674.52</ele>
        <time>2013-05-04T09:28:42Z</time>
      </trkpt>
      <trkpt lat="44.93819" lon="6.50889">
        <ele>2674.52</ele>
        <time>2013-05-04T09:28:58Z</time>
      </trkpt>
      <trkpt lat="44.93822" lon="6.50888">
        <ele>2673.08</ele>
        <time>2013-05-04T09:29:12Z</time>
      </trkpt>
      <trkpt lat="44.93823" lon="6.50887">
        <ele>2673.08</ele>
        <time>2013-05-04T09:29:24Z</time>
      </trkpt>
      <trkpt lat="44.93823" lon="6.50887">
        <ele>2673.08</ele>
        <time>2013-05-04T09:29:53Z</time>
      </trkpt>
      <trkpt lat="44.93823" lon="6.50887">
        <ele>2673.56</ele>
        <time>2013-05-04T09:30:21Z</time>
      </trkpt>
      <trkpt lat="44.93824" lon="6.50887">
        <ele>2673.08</ele>
        <time>2013-05-04T09:30:46Z</time>
      </trkpt>
      <trkpt lat="44.93824" lon="6.50887">
        <ele>2672.6</ele>
        <time>2013-05-04T09:31:06Z</time>
      </trkpt>
      <trkpt lat="44.93824" lon="6.50887">
        <ele>2672.6</ele>
        <time>2013-05-04T09:31:26Z</time>
      </trkpt>
      <trkpt lat="44.93824" lon="6.50887">
        <ele>2674.04</ele>
        <time>2013-05-04T09:31:50Z</time>
      </trkpt>
      <trkpt lat="44.93822" lon="6.50887">
        <ele>2674.04</ele>
        <time>2013-05-04T09:32:05Z</time>
      </trkpt>
      <trkpt lat="44.93818" lon="6.50886">
        <ele>2675.01</ele>
        <time>2013-05-04T09:32:21Z</time>
      </trkpt>
      <trkpt lat="44.93814" lon="6.50886">
        <ele>2675.01</ele>
        <time>2013-05-04T09:32:35Z</time>
      </trkpt>
      <trkpt lat="44.93813" lon="6.50887">
        <ele>2677.89</ele>
        <time>2013-05-04T09:32:53Z</time>
      </trkpt>
      <trkpt lat="44.93812" lon="6.50887">
        <ele>2677.89</ele>
        <time>2013-05-04T09:33:20Z</time>
      </trkpt>
      <trkpt lat="44.93809" lon="6.50888">
        <ele>2678.37</ele>
        <time>2013-05-04T09:33:31Z</time>
      </trkpt>
      <trkpt lat="44.93809" lon="6.50888">
        <ele>2678.37</ele>
        <time>2013-05-04T09:33:45Z</time>
      </trkpt>
      <trkpt lat="44.93809" lon="6.50888">
        <ele>2678.37</ele>
        <time>2013-05-04T09:34:03Z</time>
      </trkpt>
      <trkpt lat="44.93809" lon="6.50888">
        <ele>2679.33</ele>
        <time>2013-05-04T09:34:23Z</time>
      </trkpt>
      <trkpt lat="44.93809" lon="6.50888">
        <ele>2678.85</ele>
        <time>2013-05-04T09:34:38Z</time>
      </trkpt>
      <trkpt lat="44.93806" lon="6.50886">
        <ele>2679.81</ele>
        <time>2013-05-04T09:34:44Z</time>
      </trkpt>
      <trkpt lat="44.93806" lon="6.50887">
        <ele>2679.81</ele>
        <time>2013-05-04T09:34:57Z</time>
      </trkpt>
      <trkpt lat="44.93806" lon="6.50887">
        <ele>2679.81</ele>
        <time>2013-05-04T09:35:09Z</time>
      </trkpt>
      <trkpt lat="44.93806" lon="6.50887">
        <ele>2678.85</ele>
        <time>2013-05-04T09:35:17Z</time>
      </trkpt>
      <trkpt lat="44.93807" lon="6.50888">
        <ele>2678.85</ele>
        <time>2013-05-04T09:35:31Z</time>
      </trkpt>
      <trkpt lat="44.93807" lon="6.50888">
        <ele>2678.85</ele>
        <time>2013-05-04T09:35:49Z</time>
      </trkpt>
      <trkpt lat="44.93806" lon="6.50888">
        <ele>2678.85</ele>
        <time>2013-05-04T09:36:14Z</time>
      </trkpt>
      <trkpt lat="44.93806" lon="6.50888">
        <ele>2680.29</ele>
        <time>2013-05-04T09:36:23Z</time>
      </trkpt>
      <trkpt lat="44.93806" lon="6.50888">
        <ele>2678.85</ele>
        <time>2013-05-04T09:36:25Z</time>
      </trkpt>
      <trkpt lat="44.93804" lon="6.50888">
        <ele>2678.85</ele>
        <time>2013-05-04T09:36:52Z</time>
      </trkpt>
      <trkpt lat="44.93804" lon="6.50888">
        <ele>2678.85</ele>
        <time>2013-05-04T09:37:28Z</time>
      </trkpt>
      <trkpt lat="44.93803" lon="6.50889">
        <ele>2678.85</ele>
        <time>2013-05-04T09:38:04Z</time>
      </trkpt>
      <trkpt lat="44.93803" lon="6.50889">
        <ele>2678.85</ele>
        <time>2013-05-04T09:38:26Z</time>
      </trkpt>
      <trkpt lat="44.93803" lon="6.50889">
        <ele>2678.85</ele>
        <time>2013-05-04T09:38:56Z</time>
      </trkpt>
      <trkpt lat="44.93803" lon="6.50889">
        <ele>2678.85</ele>
        <time>2013-05-04T09:39:34Z</time>
      </trkpt>
      <trkpt lat="44.93803" lon="6.50889">
        <ele>2678.85</ele>
        <time>2013-05-04T09:40:07Z</time>
      </trkpt>
      <trkpt lat="44.93803" lon="6.50889">
        <ele>2678.85</ele>
        <time>2013-05-04T09:40:33Z</time>
      </trkpt>
      <trkpt lat="44.93802" lon="6.50889">
        <ele>2678.37</ele>
        <time>2013-05-04T09:41:03Z</time>
      </trkpt>
      <trkpt lat="44.93802" lon="6.5089">
        <ele>2678.37</ele>
        <time>2013-05-04T09:41:37Z</time>
      </trkpt>
      <trkpt lat="44.93802" lon="6.50889">
        <ele>2678.37</ele>
        <time>2013-05-04T09:41:50Z</time>
      </trkpt>
      <trkpt lat="44.93802" lon="6.50889">
        <ele>2678.37</ele>
        <time>2013-05-04T09:42:18Z</time>
      </trkpt>
      <trkpt lat="44.93802" lon="6.5089">
        <ele>2678.37</ele>
        <time>2013-05-04T09:42:51Z</time>
      </trkpt>
      <trkpt lat="44.93802" lon="6.5089">
        <ele>2679.81</ele>
        <time>2013-05-04T09:43:05Z</time>
      </trkpt>
      <trkpt lat="44.93802" lon="6.5089">
        <ele>2679.81</ele>
        <time>2013-05-04T09:43:25Z</time>
      </trkpt>
      <trkpt lat="44.93802" lon="6.5089">
        <ele>2679.81</ele>
        <time>2013-05-04T09:44:00Z</time>
      </trkpt>
      <trkpt lat="44.93802" lon="6.5089">
        <ele>2678.37</ele>
        <time>2013-05-04T09:44:04Z</time>
      </trkpt>
      <trkpt lat="44.93803" lon="6.5089">
        <ele>2679.33</ele>
        <time>2013-05-04T09:44:33Z</time>
      </trkpt>
      <trkpt lat="44.93803" lon="6.5089">
        <ele>2678.85</ele>
        <time>2013-05-04T09:45:13Z</time>
      </trkpt>
      <trkpt lat="44.93803" lon="6.50891">
        <ele>2678.85</ele>
        <time>2013-05-04T09:45:46Z</time>
      </trkpt>
      <trkpt lat="44.93803" lon="6.50891">
        <ele>2678.85</ele>
        <time>2013-05-04T09:46:10Z</time>
      </trkpt>
      <trkpt lat="44.93803" lon="6.50891">
        <ele>2679.33</ele>
        <time>2013-05-04T09:46:35Z</time>
      </trkpt>
      <trkpt lat="44.93804" lon="6.50891">
        <ele>2679.33</ele>
        <time>2013-05-04T09:47:08Z</time>
      </trkpt>
      <trkpt lat="44.93804" lon="6.50891">
        <ele>2679.33</ele>
        <time>2013-05-04T09:47:42Z</time>
      </trkpt>
      <trkpt lat="44.93804" lon="6.50891">
        <ele>2678.85</ele>
        <time>2013-05-04T09:48:17Z</time>
      </trkpt>
      <trkpt lat="44.93804" lon="6.50891">
        <ele>2678.85</ele>
        <time>2013-05-04T09:48:50Z</time>
      </trkpt>
      <trkpt lat="44.93804" lon="6.50891">
        <ele>2678.85</ele>
        <time>2013-05-04T09:49:22Z</time>
      </trkpt>
      <trkpt lat="44.93804" lon="6.50891">
        <ele>2678.85</ele>
        <time>2013-05-04T09:49:57Z</time>
      </trkpt>
      <trkpt lat="44.93804" lon="6.50892">
        <ele>2678.85</ele>
        <time>2013-05-04T09:50:23Z</time>
      </trkpt>
      <trkpt lat="44.93804" lon="6.50892">
        <ele>2680.29</ele>
        <time>2013-05-04T09:50:30Z</time>
      </trkpt>
      <trkpt lat="44.93804" lon="6.50892">
        <ele>2678.85</ele>
        <time>2013-05-04T09:50:32Z</time>
      </trkpt>
      <trkpt lat="44.93804" lon="6.50892">
        <ele>2678.85</ele>
        <time>2013-05-04T09:50:56Z</time>
      </trkpt>
      <trkpt lat="44.93803" lon="6.50892">
        <ele>2678.85</ele>
        <time>2013-05-04T09:51:17Z</time>
      </trkpt>
      <trkpt lat="44.93803" lon="6.50892">
        <ele>2678.85</ele>
        <time>2013-05-04T09:51:40Z</time>
      </trkpt>
      <trkpt lat="44.93803" lon="6.50892">
        <ele>2678.85</ele>
        <time>2013-05-04T09:52:07Z</time>
      </trkpt>
      <trkpt lat="44.93803" lon="6.50892">
        <ele>2680.29</ele>
        <time>2013-05-04T09:52:31Z</time>
      </trkpt>
      <trkpt lat="44.93803" lon="6.50892">
        <ele>2678.85</ele>
        <time>2013-05-04T09:52:33Z</time>
      </trkpt>
      <trkpt lat="44.93803" lon="6.50891">
        <ele>2678.85</ele>
        <time>2013-05-04T09:53:04Z</time>
      </trkpt>
      <trkpt lat="44.93803" lon="6.50891">
        <ele>2678.85</ele>
        <time>2013-05-04T09:53:35Z</time>
      </trkpt>
      <trkpt lat="44.93803" lon="6.50891">
        <ele>2678.85</ele>
        <time>2013-05-04T09:54:09Z</time>
      </trkpt>
      <trkpt lat="44.93803" lon="6.50891">
        <ele>2680.29</ele>
        <time>2013-05-04T09:54:32Z</time>
      </trkpt>
      <trkpt lat="44.93803" lon="6.50891">
        <ele>2679.33</ele>
        <time>2013-05-04T09:54:34Z</time>
      </trkpt>
      <trkpt lat="44.93803" lon="6.50891">
        <ele>2678.85</ele>
        <time>2013-05-04T09:55:03Z</time>
      </trkpt>
      <trkpt lat="44.93803" lon="6.50891">
        <ele>2678.85</ele>
        <time>2013-05-04T09:55:30Z</time>
      </trkpt>
      <trkpt lat="44.93804" lon="6.50891">
        <ele>2678.85</ele>
        <time>2013-05-04T09:56:05Z</time>
      </trkpt>
      <trkpt lat="44.93804" lon="6.5089">
        <ele>2680.77</ele>
        <time>2013-05-04T09:56:33Z</time>
      </trkpt>
      <trkpt lat="44.93804" lon="6.5089">
        <ele>2679.33</ele>
        <time>2013-05-04T09:56:35Z</time>
      </trkpt>
      <trkpt lat="44.93804" lon="6.5089">
        <ele>2679.33</ele>
        <time>2013-05-04T09:57:06Z</time>
      </trkpt>
      <trkpt lat="44.93804" lon="6.5089">
        <ele>2679.33</ele>
        <time>2013-05-04T09:57:36Z</time>
      </trkpt>
      <trkpt lat="44.93804" lon="6.5089">
        <ele>2679.33</ele>
        <time>2013-05-04T09:58:08Z</time>
      </trkpt>
      <trkpt lat="44.93804" lon="6.5089">
        <ele>2680.77</ele>
        <time>2013-05-04T09:58:34Z</time>
      </trkpt>
      <trkpt lat="44.93804" lon="6.5089">
        <ele>2679.33</ele>
        <time>2013-05-04T09:58:36Z</time>
      </trkpt>
      <trkpt lat="44.93804" lon="6.5089">
        <ele>2679.33</ele>
        <time>2013-05-04T09:59:08Z</time>
      </trkpt>
      <trkpt lat="44.93804" lon="6.5089">
        <ele>2679.33</ele>
        <time>2013-05-04T09:59:44Z</time>
      </trkpt>
      <trkpt lat="44.93804" lon="6.5089">
        <ele>2679.33</ele>
        <time>2013-05-04T10:00:15Z</time>
      </trkpt>
      <trkpt lat="44.93804" lon="6.5089">
        <ele>2680.77</ele>
        <time>2013-05-04T10:00:35Z</time>
      </trkpt>
      <trkpt lat="44.93803" lon="6.5089">
        <ele>2679.81</ele>
        <time>2013-05-04T10:01:09Z</time>
      </trkpt>
      <trkpt lat="44.93803" lon="6.5089">
        <ele>2679.33</ele>
        <time>2013-05-04T10:01:41Z</time>
      </trkpt>
      <trkpt lat="44.93803" lon="6.50889">
        <ele>2679.33</ele>
        <time>2013-05-04T10:02:15Z</time>
      </trkpt>
      <trkpt lat="44.93803" lon="6.50889">
        <ele>2680.77</ele>
        <time>2013-05-04T10:02:36Z</time>
      </trkpt>
      <trkpt lat="44.93803" lon="6.50889">
        <ele>2679.33</ele>
        <time>2013-05-04T10:02:38Z</time>
      </trkpt>
      <trkpt lat="44.93802" lon="6.50889">
        <ele>2679.33</ele>
        <time>2013-05-04T10:03:09Z</time>
      </trkpt>
      <trkpt lat="44.93802" lon="6.50889">
        <ele>2678.85</ele>
        <time>2013-05-04T10:03:47Z</time>
      </trkpt>
      <trkpt lat="44.93802" lon="6.50889">
        <ele>2678.85</ele>
        <time>2013-05-04T10:04:15Z</time>
      </trkpt>
      <trkpt lat="44.93802" lon="6.50889">
        <ele>2679.33</ele>
        <time>2013-05-04T10:04:46Z</time>
      </trkpt>
      <trkpt lat="44.93803" lon="6.50888">
        <ele>2679.33</ele>
        <time>2013-05-04T10:05:05Z</time>
      </trkpt>
      <trkpt lat="44.93803" lon="6.50888">
        <ele>2679.33</ele>
        <time>2013-05-04T10:05:30Z</time>
      </trkpt>
      <trkpt lat="44.93802" lon="6.50889">
        <ele>2679.33</ele>
        <time>2013-05-04T10:05:57Z</time>
      </trkpt>
      <trkpt lat="44.93802" lon="6.50889">
        <ele>2679.33</ele>
        <time>2013-05-04T10:06:28Z</time>
      </trkpt>
      <trkpt lat="44.93802" lon="6.50889">
        <ele>2679.33</ele>
        <time>2013-05-04T10:06:59Z</time>
      </trkpt>
      <trkpt lat="44.93802" lon="6.50889">
        <ele>2679.33</ele>
        <time>2013-05-04T10:07:28Z</time>
      </trkpt>
      <trkpt lat="44.93803" lon="6.50887">
        <ele>2680.77</ele>
        <time>2013-05-04T10:07:33Z</time>
      </trkpt>
      <trkpt lat="44.93803" lon="6.50886">
        <ele>2680.77</ele>
        <time>2013-05-04T10:07:47Z</time>
      </trkpt>
      <trkpt lat="44.93803" lon="6.50884">
        <ele>2680.77</ele>
        <time>2013-05-04T10:08:04Z</time>
      </trkpt>
      <trkpt lat="44.93806" lon="6.50886">
        <ele>2680.77</ele>
        <time>2013-05-04T10:08:16Z</time>
      </trkpt>
      <trkpt lat="44.93806" lon="6.50886">
        <ele>2680.77</ele>
        <time>2013-05-04T10:08:29Z</time>
      </trkpt>
      <trkpt lat="44.93806" lon="6.50886">
        <ele>2680.29</ele>
        <time>2013-05-04T10:08:46Z</time>
      </trkpt>
      <trkpt lat="44.93806" lon="6.50887">
        <ele>2680.29</ele>
        <time>2013-05-04T10:09:02Z</time>
      </trkpt>
      <trkpt lat="44.93806" lon="6.50887">
        <ele>2680.29</ele>
        <time>2013-05-04T10:09:21Z</time>
      </trkpt>
      <trkpt lat="44.93806" lon="6.50888">
        <ele>2680.29</ele>
        <time>2013-05-04T10:09:44Z</time>
      </trkpt>
      <trkpt lat="44.93806" lon="6.50887">
        <ele>2680.29</ele>
        <time>2013-05-04T10:10:00Z</time>
      </trkpt>
      <trkpt lat="44.93806" lon="6.50887">
        <ele>2680.29</ele>
        <time>2013-05-04T10:10:17Z</time>
      </trkpt>
      <trkpt lat="44.93806" lon="6.50887">
        <ele>2680.29</ele>
        <time>2013-05-04T10:10:34Z</time>
      </trkpt>
      <trkpt lat="44.9381" lon="6.50888">
        <ele>2678.85</ele>
        <time>2013-05-04T10:10:45Z</time>
      </trkpt>
      <trkpt lat="44.93811" lon="6.50887">
        <ele>2678.37</ele>
        <time>2013-05-04T10:11:04Z</time>
      </trkpt>
      <trkpt lat="44.93811" lon="6.50887">
        <ele>2678.37</ele>
        <time>2013-05-04T10:11:25Z</time>
      </trkpt>
      <trkpt lat="44.93811" lon="6.50888">
        <ele>2678.37</ele>
        <time>2013-05-04T10:11:35Z</time>
      </trkpt>
      <trkpt lat="44.93809" lon="6.50905">
        <ele>2675.01</ele>
        <time>2013-05-04T10:11:43Z</time>
      </trkpt>
      <trkpt lat="44.93808" lon="6.50912">
        <ele>2671.64</ele>
        <time>2013-05-04T10:11:45Z</time>
      </trkpt>
      <trkpt lat="44.93809" lon="6.50916">
        <ele>2671.64</ele>
        <time>2013-05-04T10:11:46Z</time>
      </trkpt>
      <trkpt lat="44.93809" lon="6.50919">
        <ele>2669.24</ele>
        <time>2013-05-04T10:11:47Z</time>
      </trkpt>
      <trkpt lat="44.93807" lon="6.50928">
        <ele>2666.83</ele>
        <time>2013-05-04T10:11:50Z</time>
      </trkpt>
      <trkpt lat="44.93804" lon="6.50933">
        <ele>2662.51</ele>
        <time>2013-05-04T10:11:52Z</time>
      </trkpt>
      <trkpt lat="44.93803" lon="6.50936">
        <ele>2662.51</ele>
        <time>2013-05-04T10:11:53Z</time>
      </trkpt>
      <trkpt lat="44.93805" lon="6.50938">
        <ele>2659.62</ele>
        <time>2013-05-04T10:11:56Z</time>
      </trkpt>
      <trkpt lat="44.93805" lon="6.50938">
        <ele>2659.62</ele>
        <time>2013-05-04T10:11:57Z</time>
      </trkpt>
      <trkpt lat="44.938" lon="6.50949">
        <ele>2655.78</ele>
        <time>2013-05-04T10:12:01Z</time>
      </trkpt>
      <trkpt lat="44.93798" lon="6.50962">
        <ele>2651.45</ele>
        <time>2013-05-04T10:12:04Z</time>
      </trkpt>
      <trkpt lat="44.93793" lon="6.50966">
        <ele>2650.49</ele>
        <time>2013-05-04T10:12:06Z</time>
      </trkpt>
      <trkpt lat="44.93792" lon="6.50975">
        <ele>2647.13</ele>
        <time>2013-05-04T10:12:08Z</time>
      </trkpt>
      <trkpt lat="44.93789" lon="6.50983">
        <ele>2643.28</ele>
        <time>2013-05-04T10:12:10Z</time>
      </trkpt>
      <trkpt lat="44.93788" lon="6.50995">
        <ele>2638.48</ele>
        <time>2013-05-04T10:12:13Z</time>
      </trkpt>
      <trkpt lat="44.93785" lon="6.51">
        <ele>2635.59</ele>
        <time>2013-05-04T10:12:16Z</time>
      </trkpt>
      <trkpt lat="44.93785" lon="6.51">
        <ele>2635.59</ele>
        <time>2013-05-04T10:12:17Z</time>
      </trkpt>
      <trkpt lat="44.93785" lon="6.51">
        <ele>2636.07</ele>
        <time>2013-05-04T10:12:23Z</time>
      </trkpt>
      <trkpt lat="44.93785" lon="6.51">
        <ele>2637.51</ele>
        <time>2013-05-04T10:12:41Z</time>
      </trkpt>
      <trkpt lat="44.93785" lon="6.51">
        <ele>2636.07</ele>
        <time>2013-05-04T10:12:42Z</time>
      </trkpt>
      <trkpt lat="44.93779" lon="6.5101">
        <ele>2632.23</ele>
        <time>2013-05-04T10:12:47Z</time>
      </trkpt>
      <trkpt lat="44.93776" lon="6.51011">
        <ele>2632.23</ele>
        <time>2013-05-04T10:12:48Z</time>
      </trkpt>
      <trkpt lat="44.93779" lon="6.51022">
        <ele>2628.38</ele>
        <time>2013-05-04T10:12:51Z</time>
      </trkpt>
      <trkpt lat="44.93777" lon="6.51029">
        <ele>2625.5</ele>
        <time>2013-05-04T10:12:53Z</time>
      </trkpt>
      <trkpt lat="44.93774" lon="6.51039">
        <ele>2620.21</ele>
        <time>2013-05-04T10:12:56Z</time>
      </trkpt>
      <trkpt lat="44.93776" lon="6.51048">
        <ele>2616.37</ele>
        <time>2013-05-04T10:12:59Z</time>
      </trkpt>
      <trkpt lat="44.93776" lon="6.51055">
        <ele>2613</ele>
        <time>2013-05-04T10:13:01Z</time>
      </trkpt>
      <trkpt lat="44.93774" lon="6.51056">
        <ele>2612.04</ele>
        <time>2013-05-04T10:13:02Z</time>
      </trkpt>
      <trkpt lat="44.93764" lon="6.51058">
        <ele>2609.64</ele>
        <time>2013-05-04T10:13:06Z</time>
      </trkpt>
      <trkpt lat="44.93763" lon="6.51058">
        <ele>2608.67</ele>
        <time>2013-05-04T10:13:07Z</time>
      </trkpt>
      <trkpt lat="44.93762" lon="6.51064">
        <ele>2606.75</ele>
        <time>2013-05-04T10:13:11Z</time>
      </trkpt>
      <trkpt lat="44.93762" lon="6.51064">
        <ele>2607.71</ele>
        <time>2013-05-04T10:13:27Z</time>
      </trkpt>
      <trkpt lat="44.93762" lon="6.51064">
        <ele>2607.71</ele>
        <time>2013-05-04T10:13:53Z</time>
      </trkpt>
      <trkpt lat="44.9376" lon="6.51079">
        <ele>2603.39</ele>
        <time>2013-05-04T10:13:58Z</time>
      </trkpt>
      <trkpt lat="44.93761" lon="6.51091">
        <ele>2599.06</ele>
        <time>2013-05-04T10:14:01Z</time>
      </trkpt>
      <trkpt lat="44.9376" lon="6.51098">
        <ele>2595.7</ele>
        <time>2013-05-04T10:14:03Z</time>
      </trkpt>
      <trkpt lat="44.93759" lon="6.51103">
        <ele>2592.33</ele>
        <time>2013-05-04T10:14:05Z</time>
      </trkpt>
      <trkpt lat="44.93758" lon="6.51112">
        <ele>2589.45</ele>
        <time>2013-05-04T10:14:08Z</time>
      </trkpt>
      <trkpt lat="44.9376" lon="6.51112">
        <ele>2588.49</ele>
        <time>2013-05-04T10:14:10Z</time>
      </trkpt>
      <trkpt lat="44.9376" lon="6.51112">
        <ele>2588.97</ele>
        <time>2013-05-04T10:14:19Z</time>
      </trkpt>
      <trkpt lat="44.93762" lon="6.51119">
        <ele>2587.53</ele>
        <time>2013-05-04T10:14:22Z</time>
      </trkpt>
      <trkpt lat="44.93759" lon="6.51135">
        <ele>2581.76</ele>
        <time>2013-05-04T10:14:26Z</time>
      </trkpt>
      <trkpt lat="44.93759" lon="6.51138">
        <ele>2581.76</ele>
        <time>2013-05-04T10:14:27Z</time>
      </trkpt>
      <trkpt lat="44.93753" lon="6.5114">
        <ele>2577.91</ele>
        <time>2013-05-04T10:14:29Z</time>
      </trkpt>
      <trkpt lat="44.93751" lon="6.51149">
        <ele>2574.55</ele>
        <time>2013-05-04T10:14:32Z</time>
      </trkpt>
      <trkpt lat="44.93748" lon="6.51151">
        <ele>2571.18</ele>
        <time>2013-05-04T10:14:35Z</time>
      </trkpt>
      <trkpt lat="44.93749" lon="6.51162">
        <ele>2567.34</ele>
        <time>2013-05-04T10:14:38Z</time>
      </trkpt>
      <trkpt lat="44.93745" lon="6.5116">
        <ele>2565.42</ele>
        <time>2013-05-04T10:14:40Z</time>
      </trkpt>
      <trkpt lat="44.93745" lon="6.51161">
        <ele>2564.93</ele>
        <time>2013-05-04T10:14:44Z</time>
      </trkpt>
      <trkpt lat="44.93743" lon="6.51169">
        <ele>2562.05</ele>
        <time>2013-05-04T10:14:47Z</time>
      </trkpt>
      <trkpt lat="44.93735" lon="6.51172">
        <ele>2558.21</ele>
        <time>2013-05-04T10:14:50Z</time>
      </trkpt>
      <trkpt lat="44.93734" lon="6.51172">
        <ele>2558.21</ele>
        <time>2013-05-04T10:14:56Z</time>
      </trkpt>
      <trkpt lat="44.93734" lon="6.51172">
        <ele>2558.21</ele>
        <time>2013-05-04T10:15:20Z</time>
      </trkpt>
      <trkpt lat="44.93734" lon="6.51172">
        <ele>2558.21</ele>
        <time>2013-05-04T10:15:46Z</time>
      </trkpt>
      <trkpt lat="44.93734" lon="6.51172">
        <ele>2558.21</ele>
        <time>2013-05-04T10:15:57Z</time>
      </trkpt>
      <trkpt lat="44.93722" lon="6.51166">
        <ele>2555.8</ele>
        <time>2013-05-04T10:16:01Z</time>
      </trkpt>
      <trkpt lat="44.9371" lon="6.51151">
        <ele>2551.96</ele>
        <time>2013-05-04T10:16:04Z</time>
      </trkpt>
      <trkpt lat="44.93695" lon="6.51136">
        <ele>2547.15</ele>
        <time>2013-05-04T10:16:08Z</time>
      </trkpt>
      <trkpt lat="44.93679" lon="6.51129">
        <ele>2543.79</ele>
        <time>2013-05-04T10:16:18Z</time>
      </trkpt>
      <trkpt lat="44.93674" lon="6.51129">
        <ele>2543.31</ele>
        <time>2013-05-04T10:16:21Z</time>
      </trkpt>
      <trkpt lat="44.93669" lon="6.51146">
        <ele>2538.98</ele>
        <time>2013-05-04T10:16:25Z</time>
      </trkpt>
      <trkpt lat="44.93662" lon="6.51154">
        <ele>2535.61</ele>
        <time>2013-05-04T10:16:27Z</time>
      </trkpt>
      <trkpt lat="44.93659" lon="6.51168">
        <ele>2532.73</ele>
        <time>2013-05-04T10:16:29Z</time>
      </trkpt>
      <trkpt lat="44.93655" lon="6.51171">
        <ele>2530.33</ele>
        <time>2013-05-04T10:16:30Z</time>
      </trkpt>
      <trkpt lat="44.93638" lon="6.51186">
        <ele>2522.64</ele>
        <time>2013-05-04T10:16:34Z</time>
      </trkpt>
      <trkpt lat="44.93621" lon="6.51197">
        <ele>2518.79</ele>
        <time>2013-05-04T10:16:38Z</time>
      </trkpt>
      <trkpt lat="44.93612" lon="6.51204">
        <ele>2513.98</ele>
        <time>2013-05-04T10:16:40Z</time>
      </trkpt>
      <trkpt lat="44.93608" lon="6.51205">
        <ele>2514.47</ele>
        <time>2013-05-04T10:16:41Z</time>
      </trkpt>
      <trkpt lat="44.93593" lon="6.51218">
        <ele>2510.62</ele>
        <time>2013-05-04T10:16:45Z</time>
      </trkpt>
      <trkpt lat="44.93582" lon="6.51222">
        <ele>2506.29</ele>
        <time>2013-05-04T10:16:47Z</time>
      </trkpt>
      <trkpt lat="44.93574" lon="6.51219">
        <ele>2504.37</ele>
        <time>2013-05-04T10:16:50Z</time>
      </trkpt>
      <trkpt lat="44.93573" lon="6.51219">
        <ele>2504.37</ele>
        <time>2013-05-04T10:16:51Z</time>
      </trkpt>
      <trkpt lat="44.93567" lon="6.51219">
        <ele>2503.41</ele>
        <time>2013-05-04T10:16:55Z</time>
      </trkpt>
      <trkpt lat="44.93563" lon="6.51234">
        <ele>2501.01</ele>
        <time>2013-05-04T10:16:59Z</time>
      </trkpt>
      <trkpt lat="44.93553" lon="6.51238">
        <ele>2497.16</ele>
        <time>2013-05-04T10:17:02Z</time>
      </trkpt>
      <trkpt lat="44.93543" lon="6.51253">
        <ele>2493.32</ele>
        <time>2013-05-04T10:17:05Z</time>
      </trkpt>
      <trkpt lat="44.93531" lon="6.51275">
        <ele>2489.47</ele>
        <time>2013-05-04T10:17:08Z</time>
      </trkpt>
      <trkpt lat="44.9352" lon="6.51289">
        <ele>2485.15</ele>
        <time>2013-05-04T10:17:10Z</time>
      </trkpt>
      <trkpt lat="44.93508" lon="6.51311">
        <ele>2482.26</ele>
        <time>2013-05-04T10:17:13Z</time>
      </trkpt>
      <trkpt lat="44.93498" lon="6.51322">
        <ele>2479.38</ele>
        <time>2013-05-04T10:17:15Z</time>
      </trkpt>
      <trkpt lat="44.93468" lon="6.51348">
        <ele>2472.17</ele>
        <time>2013-05-04T10:17:20Z</time>
      </trkpt>
      <trkpt lat="44.93456" lon="6.51356">
        <ele>2468.8</ele>
        <time>2013-05-04T10:17:22Z</time>
      </trkpt>
      <trkpt lat="44.93446" lon="6.51367">
        <ele>2465.92</ele>
        <time>2013-05-04T10:17:24Z</time>
      </trkpt>
      <trkpt lat="44.93433" lon="6.51382">
        <ele>2460.63</ele>
        <time>2013-05-04T10:17:27Z</time>
      </trkpt>
      <trkpt lat="44.93432" lon="6.51387">
        <ele>2459.19</ele>
        <time>2013-05-04T10:17:29Z</time>
      </trkpt>
      <trkpt lat="44.93433" lon="6.51387">
        <ele>2460.15</ele>
        <time>2013-05-04T10:17:41Z</time>
      </trkpt>
      <trkpt lat="44.93433" lon="6.51386">
        <ele>2459.67</ele>
        <time>2013-05-04T10:18:02Z</time>
      </trkpt>
      <trkpt lat="44.93433" lon="6.51386">
        <ele>2459.67</ele>
        <time>2013-05-04T10:18:29Z</time>
      </trkpt>
      <trkpt lat="44.93433" lon="6.51386">
        <ele>2460.15</ele>
        <time>2013-05-04T10:18:51Z</time>
      </trkpt>
      <trkpt lat="44.93433" lon="6.51387">
        <ele>2460.15</ele>
        <time>2013-05-04T10:19:12Z</time>
      </trkpt>
      <trkpt lat="44.93433" lon="6.51392">
        <ele>2459.67</ele>
        <time>2013-05-04T10:19:17Z</time>
      </trkpt>
      <trkpt lat="44.93422" lon="6.51408">
        <ele>2454.86</ele>
        <time>2013-05-04T10:19:25Z</time>
      </trkpt>
      <trkpt lat="44.93411" lon="6.51419">
        <ele>2451.5</ele>
        <time>2013-05-04T10:19:28Z</time>
      </trkpt>
      <trkpt lat="44.93407" lon="6.51431">
        <ele>2448.13</ele>
        <time>2013-05-04T10:19:30Z</time>
      </trkpt>
      <trkpt lat="44.93399" lon="6.51436">
        <ele>2444.77</ele>
        <time>2013-05-04T10:19:32Z</time>
      </trkpt>
      <trkpt lat="44.93396" lon="6.51447">
        <ele>2441.41</ele>
        <time>2013-05-04T10:19:34Z</time>
      </trkpt>
      <trkpt lat="44.93389" lon="6.51452">
        <ele>2437.08</ele>
        <time>2013-05-04T10:19:36Z</time>
      </trkpt>
      <trkpt lat="44.93386" lon="6.51463">
        <ele>2432.27</ele>
        <time>2013-05-04T10:19:38Z</time>
      </trkpt>
      <trkpt lat="44.93378" lon="6.51473">
        <ele>2427.95</ele>
        <time>2013-05-04T10:19:41Z</time>
      </trkpt>
      <trkpt lat="44.93374" lon="6.51481">
        <ele>2423.14</ele>
        <time>2013-05-04T10:19:43Z</time>
      </trkpt>
      <trkpt lat="44.93375" lon="6.51487">
        <ele>2423.62</ele>
        <time>2013-05-04T10:19:44Z</time>
      </trkpt>
      <trkpt lat="44.93374" lon="6.51502">
        <ele>2419.78</ele>
        <time>2013-05-04T10:19:47Z</time>
      </trkpt>
      <trkpt lat="44.93367" lon="6.51505">
        <ele>2415.93</ele>
        <time>2013-05-04T10:19:49Z</time>
      </trkpt>
      <trkpt lat="44.93365" lon="6.51525">
        <ele>2411.6</ele>
        <time>2013-05-04T10:19:53Z</time>
      </trkpt>
      <trkpt lat="44.93357" lon="6.51533">
        <ele>2407.76</ele>
        <time>2013-05-04T10:19:56Z</time>
      </trkpt>
      <trkpt lat="44.93353" lon="6.5155">
        <ele>2404.39</ele>
        <time>2013-05-04T10:19:59Z</time>
      </trkpt>
      <trkpt lat="44.93344" lon="6.51571">
        <ele>2400.55</ele>
        <time>2013-05-04T10:20:03Z</time>
      </trkpt>
      <trkpt lat="44.93343" lon="6.51582">
        <ele>2397.67</ele>
        <time>2013-05-04T10:20:05Z</time>
      </trkpt>
      <trkpt lat="44.93341" lon="6.51587">
        <ele>2396.7</ele>
        <time>2013-05-04T10:20:06Z</time>
      </trkpt>
      <trkpt lat="44.93331" lon="6.51607">
        <ele>2390.94</ele>
        <time>2013-05-04T10:20:10Z</time>
      </trkpt>
      <trkpt lat="44.93323" lon="6.5161">
        <ele>2388.05</ele>
        <time>2013-05-04T10:20:12Z</time>
      </trkpt>
      <trkpt lat="44.93324" lon="6.51617">
        <ele>2386.61</ele>
        <time>2013-05-04T10:20:14Z</time>
      </trkpt>
      <trkpt lat="44.93324" lon="6.51616">
        <ele>2386.13</ele>
        <time>2013-05-04T10:20:29Z</time>
      </trkpt>
      <trkpt lat="44.93324" lon="6.51616">
        <ele>2386.13</ele>
        <time>2013-05-04T10:20:46Z</time>
      </trkpt>
      <trkpt lat="44.93324" lon="6.51616">
        <ele>2386.13</ele>
        <time>2013-05-04T10:20:57Z</time>
      </trkpt>
      <trkpt lat="44.93316" lon="6.51629">
        <ele>2382.76</ele>
        <time>2013-05-04T10:21:01Z</time>
      </trkpt>
      <trkpt lat="44.93315" lon="6.51639">
        <ele>2379.4</ele>
        <time>2013-05-04T10:21:03Z</time>
      </trkpt>
      <trkpt lat="44.9331" lon="6.51651">
        <ele>2375.07</ele>
        <time>2013-05-04T10:21:06Z</time>
      </trkpt>
      <trkpt lat="44.93305" lon="6.51651">
        <ele>2373.15</ele>
        <time>2013-05-04T10:21:07Z</time>
      </trkpt>
      <trkpt lat="44.93285" lon="6.51654">
        <ele>2369.31</ele>
        <time>2013-05-04T10:21:11Z</time>
      </trkpt>
      <trkpt lat="44.93285" lon="6.51669">
        <ele>2365.94</ele>
        <time>2013-05-04T10:21:14Z</time>
      </trkpt>
      <trkpt lat="44.93298" lon="6.51679">
        <ele>2361.62</ele>
        <time>2013-05-04T10:21:17Z</time>
      </trkpt>
      <trkpt lat="44.93304" lon="6.51684">
        <ele>2360.65</ele>
        <time>2013-05-04T10:21:19Z</time>
      </trkpt>
      <trkpt lat="44.93301" lon="6.51696">
        <ele>2357.77</ele>
        <time>2013-05-04T10:21:23Z</time>
      </trkpt>
      <trkpt lat="44.93299" lon="6.51695">
        <ele>2357.77</ele>
        <time>2013-05-04T10:21:24Z</time>
      </trkpt>
      <trkpt lat="44.93299" lon="6.51696">
        <ele>2357.29</ele>
        <time>2013-05-04T10:21:34Z</time>
      </trkpt>
      <trkpt lat="44.93299" lon="6.51715">
        <ele>2353.93</ele>
        <time>2013-05-04T10:21:39Z</time>
      </trkpt>
      <trkpt lat="44.9329" lon="6.51724">
        <ele>2350.08</ele>
        <time>2013-05-04T10:21:42Z</time>
      </trkpt>
      <trkpt lat="44.93292" lon="6.51741">
        <ele>2346.23</ele>
        <time>2013-05-04T10:21:45Z</time>
      </trkpt>
      <trkpt lat="44.93283" lon="6.51748">
        <ele>2342.39</ele>
        <time>2013-05-04T10:21:48Z</time>
      </trkpt>
      <trkpt lat="44.93278" lon="6.51764">
        <ele>2337.58</ele>
        <time>2013-05-04T10:21:52Z</time>
      </trkpt>
      <trkpt lat="44.93276" lon="6.51773">
        <ele>2334.22</ele>
        <time>2013-05-04T10:21:55Z</time>
      </trkpt>
      <trkpt lat="44.93277" lon="6.51774">
        <ele>2334.7</ele>
        <time>2013-05-04T10:22:04Z</time>
      </trkpt>
      <trkpt lat="44.93277" lon="6.51774">
        <ele>2334.22</ele>
        <time>2013-05-04T10:22:26Z</time>
      </trkpt>
      <trkpt lat="44.93277" lon="6.51774">
        <ele>2334.22</ele>
        <time>2013-05-04T10:22:43Z</time>
      </trkpt>
      <trkpt lat="44.9327" lon="6.51791">
        <ele>2330.37</ele>
        <time>2013-05-04T10:22:48Z</time>
      </trkpt>
      <trkpt lat="44.93268" lon="6.51808">
        <ele>2324.61</ele>
        <time>2013-05-04T10:22:51Z</time>
      </trkpt>
      <trkpt lat="44.93265" lon="6.51818">
        <ele>2321.24</ele>
        <time>2013-05-04T10:22:53Z</time>
      </trkpt>
      <trkpt lat="44.93267" lon="6.5183">
        <ele>2317.88</ele>
        <time>2013-05-04T10:22:55Z</time>
      </trkpt>
      <trkpt lat="44.93261" lon="6.51842">
        <ele>2313.55</ele>
        <time>2013-05-04T10:22:58Z</time>
      </trkpt>
      <trkpt lat="44.93257" lon="6.51851">
        <ele>2310.67</ele>
        <time>2013-05-04T10:23:00Z</time>
      </trkpt>
      <trkpt lat="44.93252" lon="6.51858">
        <ele>2306.82</ele>
        <time>2013-05-04T10:23:02Z</time>
      </trkpt>
      <trkpt lat="44.93245" lon="6.5187">
        <ele>2302.49</ele>
        <time>2013-05-04T10:23:05Z</time>
      </trkpt>
      <trkpt lat="44.93244" lon="6.51885">
        <ele>2297.69</ele>
        <time>2013-05-04T10:23:08Z</time>
      </trkpt>
      <trkpt lat="44.9324" lon="6.51896">
        <ele>2293.36</ele>
        <time>2013-05-04T10:23:11Z</time>
      </trkpt>
      <trkpt lat="44.93233" lon="6.51901">
        <ele>2290.48</ele>
        <time>2013-05-04T10:23:13Z</time>
      </trkpt>
      <trkpt lat="44.9323" lon="6.51906">
        <ele>2285.19</ele>
        <time>2013-05-04T10:23:16Z</time>
      </trkpt>
      <trkpt lat="44.93222" lon="6.51917">
        <ele>2281.35</ele>
        <time>2013-05-04T10:23:22Z</time>
      </trkpt>
      <trkpt lat="44.93214" lon="6.51916">
        <ele>2279.9</ele>
        <time>2013-05-04T10:23:24Z</time>
      </trkpt>
      <trkpt lat="44.93208" lon="6.51917">
        <ele>2279.42</ele>
        <time>2013-05-04T10:23:26Z</time>
      </trkpt>
      <trkpt lat="44.93206" lon="6.51931">
        <ele>2275.1</ele>
        <time>2013-05-04T10:23:29Z</time>
      </trkpt>
      <trkpt lat="44.93197" lon="6.5194">
        <ele>2271.25</ele>
        <time>2013-05-04T10:23:31Z</time>
      </trkpt>
      <trkpt lat="44.9319" lon="6.51952">
        <ele>2266.93</ele>
        <time>2013-05-04T10:23:34Z</time>
      </trkpt>
      <trkpt lat="44.9319" lon="6.51959">
        <ele>2265.96</ele>
        <time>2013-05-04T10:23:35Z</time>
      </trkpt>
      <trkpt lat="44.93184" lon="6.51985">
        <ele>2255.87</ele>
        <time>2013-05-04T10:23:39Z</time>
      </trkpt>
      <trkpt lat="44.93188" lon="6.51993">
        <ele>2250.58</ele>
        <time>2013-05-04T10:23:43Z</time>
      </trkpt>
      <trkpt lat="44.93188" lon="6.51993">
        <ele>2250.58</ele>
        <time>2013-05-04T10:23:44Z</time>
      </trkpt>
      <trkpt lat="44.93188" lon="6.51993">
        <ele>2253.47</ele>
        <time>2013-05-04T10:23:46Z</time>
      </trkpt>
      <trkpt lat="44.93188" lon="6.51992">
        <ele>2252.99</ele>
        <time>2013-05-04T10:23:58Z</time>
      </trkpt>
      <trkpt lat="44.93188" lon="6.51992">
        <ele>2252.99</ele>
        <time>2013-05-04T10:24:22Z</time>
      </trkpt>
      <trkpt lat="44.93188" lon="6.51992">
        <ele>2252.99</ele>
        <time>2013-05-04T10:24:41Z</time>
      </trkpt>
      <trkpt lat="44.93188" lon="6.51992">
        <ele>2252.99</ele>
        <time>2013-05-04T10:25:03Z</time>
      </trkpt>
      <trkpt lat="44.93188" lon="6.51992">
        <ele>2252.99</ele>
        <time>2013-05-04T10:25:31Z</time>
      </trkpt>
      <trkpt lat="44.93188" lon="6.51992">
        <ele>2252.99</ele>
        <time>2013-05-04T10:25:52Z</time>
      </trkpt>
      <trkpt lat="44.93188" lon="6.51992">
        <ele>2252.99</ele>
        <time>2013-05-04T10:26:06Z</time>
      </trkpt>
      <trkpt lat="44.93188" lon="6.51992">
        <ele>2252.99</ele>
        <time>2013-05-04T10:26:20Z</time>
      </trkpt>
      <trkpt lat="44.93188" lon="6.51991">
        <ele>2252.99</ele>
        <time>2013-05-04T10:26:35Z</time>
      </trkpt>
      <trkpt lat="44.93188" lon="6.51991">
        <ele>2252.99</ele>
        <time>2013-05-04T10:26:38Z</time>
      </trkpt>
      <trkpt lat="44.93181" lon="6.52008">
        <ele>2248.66</ele>
        <time>2013-05-04T10:26:43Z</time>
      </trkpt>
      <trkpt lat="44.93179" lon="6.52021">
        <ele>2247.22</ele>
        <time>2013-05-04T10:26:45Z</time>
      </trkpt>
      <trkpt lat="44.93176" lon="6.52024">
        <ele>2245.3</ele>
        <time>2013-05-04T10:26:46Z</time>
      </trkpt>
      <trkpt lat="44.9317" lon="6.5204">
        <ele>2235.68</ele>
        <time>2013-05-04T10:26:51Z</time>
      </trkpt>
      <trkpt lat="44.93154" lon="6.52049">
        <ele>2231.84</ele>
        <time>2013-05-04T10:26:54Z</time>
      </trkpt>
      <trkpt lat="44.93145" lon="6.52052">
        <ele>2231.36</ele>
        <time>2013-05-04T10:26:56Z</time>
      </trkpt>
      <trkpt lat="44.93137" lon="6.52054">
        <ele>2229.43</ele>
        <time>2013-05-04T10:27:00Z</time>
      </trkpt>
      <trkpt lat="44.9314" lon="6.5207">
        <ele>2225.11</ele>
        <time>2013-05-04T10:27:04Z</time>
      </trkpt>
      <trkpt lat="44.93138" lon="6.5208">
        <ele>2220.78</ele>
        <time>2013-05-04T10:27:06Z</time>
      </trkpt>
      <trkpt lat="44.93134" lon="6.52082">
        <ele>2218.86</ele>
        <time>2013-05-04T10:27:07Z</time>
      </trkpt>
      <trkpt lat="44.93127" lon="6.52085">
        <ele>2216.94</ele>
        <time>2013-05-04T10:27:09Z</time>
      </trkpt>
      <trkpt lat="44.93123" lon="6.52086">
        <ele>2215.98</ele>
        <time>2013-05-04T10:27:10Z</time>
      </trkpt>
      <trkpt lat="44.93123" lon="6.52102">
        <ele>2212.61</ele>
        <time>2013-05-04T10:27:13Z</time>
      </trkpt>
      <trkpt lat="44.93118" lon="6.52114">
        <ele>2208.29</ele>
        <time>2013-05-04T10:27:15Z</time>
      </trkpt>
      <trkpt lat="44.93105" lon="6.52126">
        <ele>2203.96</ele>
        <time>2013-05-04T10:27:17Z</time>
      </trkpt>
      <trkpt lat="44.93094" lon="6.52134">
        <ele>2204.92</ele>
        <time>2013-05-04T10:27:20Z</time>
      </trkpt>
      <trkpt lat="44.93092" lon="6.52143">
        <ele>2202.52</ele>
        <time>2013-05-04T10:27:25Z</time>
      </trkpt>
      <trkpt lat="44.93091" lon="6.52143">
        <ele>2202.52</ele>
        <time>2013-05-04T10:27:44Z</time>
      </trkpt>
      <trkpt lat="44.93091" lon="6.52143">
        <ele>2202.52</ele>
        <time>2013-05-04T10:28:06Z</time>
      </trkpt>
      <trkpt lat="44.9309" lon="6.52143">
        <ele>2202.52</ele>
        <time>2013-05-04T10:28:23Z</time>
      </trkpt>
      <trkpt lat="44.9309" lon="6.52143">
        <ele>2202.52</ele>
        <time>2013-05-04T10:28:44Z</time>
      </trkpt>
      <trkpt lat="44.93091" lon="6.52143">
        <ele>2202.52</ele>
        <time>2013-05-04T10:29:06Z</time>
      </trkpt>
      <trkpt lat="44.93091" lon="6.52143">
        <ele>2202.52</ele>
        <time>2013-05-04T10:29:28Z</time>
      </trkpt>
      <trkpt lat="44.93091" lon="6.52143">
        <ele>2202.52</ele>
        <time>2013-05-04T10:29:54Z</time>
      </trkpt>
      <trkpt lat="44.93091" lon="6.52143">
        <ele>2202.52</ele>
        <time>2013-05-04T10:29:57Z</time>
      </trkpt>
      <trkpt lat="44.93086" lon="6.52161">
        <ele>2200.59</ele>
        <time>2013-05-04T10:30:02Z</time>
      </trkpt>
      <trkpt lat="44.93089" lon="6.52186">
        <ele>2192.9</ele>
        <time>2013-05-04T10:30:07Z</time>
      </trkpt>
      <trkpt lat="44.93089" lon="6.52211">
        <ele>2187.62</ele>
        <time>2013-05-04T10:30:10Z</time>
      </trkpt>
      <trkpt lat="44.93083" lon="6.52224">
        <ele>2183.29</ele>
        <time>2013-05-04T10:30:12Z</time>
      </trkpt>
      <trkpt lat="44.93076" lon="6.52242">
        <ele>2180.41</ele>
        <time>2013-05-04T10:30:14Z</time>
      </trkpt>
      <trkpt lat="44.93072" lon="6.52277">
        <ele>2176.08</ele>
        <time>2013-05-04T10:30:17Z</time>
      </trkpt>
      <trkpt lat="44.93073" lon="6.52334">
        <ele>2170.31</ele>
        <time>2013-05-04T10:30:21Z</time>
      </trkpt>
      <trkpt lat="44.93073" lon="6.52378">
        <ele>2166.95</ele>
        <time>2013-05-04T10:30:24Z</time>
      </trkpt>
      <trkpt lat="44.93073" lon="6.52392">
        <ele>2165.99</ele>
        <time>2013-05-04T10:30:25Z</time>
      </trkpt>
      <trkpt lat="44.93064" lon="6.52439">
        <ele>2160.7</ele>
        <time>2013-05-04T10:30:29Z</time>
      </trkpt>
      <trkpt lat="44.93057" lon="6.52462">
        <ele>2158.78</ele>
        <time>2013-05-04T10:30:32Z</time>
      </trkpt>
      <trkpt lat="44.93051" lon="6.52481">
        <ele>2154.93</ele>
        <time>2013-05-04T10:30:35Z</time>
      </trkpt>
      <trkpt lat="44.93045" lon="6.52497">
        <ele>2151.09</ele>
        <time>2013-05-04T10:30:38Z</time>
      </trkpt>
      <trkpt lat="44.93038" lon="6.52507">
        <ele>2148.68</ele>
        <time>2013-05-04T10:30:41Z</time>
      </trkpt>
      <trkpt lat="44.93029" lon="6.52509">
        <ele>2146.28</ele>
        <time>2013-05-04T10:30:44Z</time>
      </trkpt>
      <trkpt lat="44.93026" lon="6.5251">
        <ele>2146.28</ele>
        <time>2013-05-04T10:30:54Z</time>
      </trkpt>
      <trkpt lat="44.93025" lon="6.5251">
        <ele>2146.28</ele>
        <time>2013-05-04T10:31:12Z</time>
      </trkpt>
      <trkpt lat="44.93028" lon="6.52532">
        <ele>2142.92</ele>
        <time>2013-05-04T10:31:17Z</time>
      </trkpt>
      <trkpt lat="44.93024" lon="6.52541">
        <ele>2139.55</ele>
        <time>2013-05-04T10:31:19Z</time>
      </trkpt>
      <trkpt lat="44.93016" lon="6.52554">
        <ele>2134.74</ele>
        <time>2013-05-04T10:31:22Z</time>
      </trkpt>
      <trkpt lat="44.93008" lon="6.52568">
        <ele>2129.46</ele>
        <time>2013-05-04T10:31:25Z</time>
      </trkpt>
      <trkpt lat="44.93003" lon="6.52577">
        <ele>2126.57</ele>
        <time>2013-05-04T10:31:27Z</time>
      </trkpt>
      <trkpt lat="44.92998" lon="6.52591">
        <ele>2121.29</ele>
        <time>2013-05-04T10:31:30Z</time>
      </trkpt>
      <trkpt lat="44.92993" lon="6.52601">
        <ele>2117.44</ele>
        <time>2013-05-04T10:31:33Z</time>
      </trkpt>
      <trkpt lat="44.92989" lon="6.52614">
        <ele>2114.08</ele>
        <time>2013-05-04T10:31:37Z</time>
      </trkpt>
      <trkpt lat="44.92982" lon="6.52622">
        <ele>2109.27</ele>
        <time>2013-05-04T10:31:41Z</time>
      </trkpt>
      <trkpt lat="44.9298" lon="6.52626">
        <ele>2109.75</ele>
        <time>2013-05-04T10:31:42Z</time>
      </trkpt>
      <trkpt lat="44.92971" lon="6.5264">
        <ele>2105.42</ele>
        <time>2013-05-04T10:31:46Z</time>
      </trkpt>
      <trkpt lat="44.92965" lon="6.52646">
        <ele>2102.54</ele>
        <time>2013-05-04T10:31:48Z</time>
      </trkpt>
      <trkpt lat="44.9296" lon="6.52659">
        <ele>2098.21</ele>
        <time>2013-05-04T10:31:51Z</time>
      </trkpt>
      <trkpt lat="44.92963" lon="6.52669">
        <ele>2096.77</ele>
        <time>2013-05-04T10:31:53Z</time>
      </trkpt>
      <trkpt lat="44.92966" lon="6.52677">
        <ele>2095.33</ele>
        <time>2013-05-04T10:31:55Z</time>
      </trkpt>
      <trkpt lat="44.92959" lon="6.5268">
        <ele>2091.97</ele>
        <time>2013-05-04T10:31:58Z</time>
      </trkpt>
      <trkpt lat="44.92957" lon="6.52679">
        <ele>2091.97</ele>
        <time>2013-05-04T10:31:59Z</time>
      </trkpt>
      <trkpt lat="44.92956" lon="6.52679">
        <ele>2092.93</ele>
        <time>2013-05-04T10:32:04Z</time>
      </trkpt>
      <trkpt lat="44.92956" lon="6.52679">
        <ele>2092.45</ele>
        <time>2013-05-04T10:32:07Z</time>
      </trkpt>
      <trkpt lat="44.92956" lon="6.52696">
        <ele>2089.56</ele>
        <time>2013-05-04T10:32:14Z</time>
      </trkpt>
      <trkpt lat="44.92948" lon="6.52714">
        <ele>2085.24</ele>
        <time>2013-05-04T10:32:18Z</time>
      </trkpt>
      <trkpt lat="44.92944" lon="6.52733">
        <ele>2080.43</ele>
        <time>2013-05-04T10:32:21Z</time>
      </trkpt>
      <trkpt lat="44.92945" lon="6.52746">
        <ele>2078.51</ele>
        <time>2013-05-04T10:32:23Z</time>
      </trkpt>
      <trkpt lat="44.92943" lon="6.52777">
        <ele>2069.38</ele>
        <time>2013-05-04T10:32:28Z</time>
      </trkpt>
      <trkpt lat="44.92942" lon="6.52791">
        <ele>2066.01</ele>
        <time>2013-05-04T10:32:30Z</time>
      </trkpt>
      <trkpt lat="44.9294" lon="6.52815">
        <ele>2061.2</ele>
        <time>2013-05-04T10:32:33Z</time>
      </trkpt>
      <trkpt lat="44.92939" lon="6.52822">
        <ele>2060.72</ele>
        <time>2013-05-04T10:32:34Z</time>
      </trkpt>
      <trkpt lat="44.92934" lon="6.52857">
        <ele>2053.51</ele>
        <time>2013-05-04T10:32:39Z</time>
      </trkpt>
      <trkpt lat="44.92929" lon="6.52882">
        <ele>2048.23</ele>
        <time>2013-05-04T10:32:43Z</time>
      </trkpt>
      <trkpt lat="44.92928" lon="6.52897">
        <ele>2043.42</ele>
        <time>2013-05-04T10:32:46Z</time>
      </trkpt>
      <trkpt lat="44.92926" lon="6.52897">
        <ele>2040.05</ele>
        <time>2013-05-04T10:32:48Z</time>
      </trkpt>
      <trkpt lat="44.92926" lon="6.52898">
        <ele>2042.94</ele>
        <time>2013-05-04T10:32:49Z</time>
      </trkpt>
      <trkpt lat="44.92926" lon="6.52897">
        <ele>2043.9</ele>
        <time>2013-05-04T10:33:07Z</time>
      </trkpt>
      <trkpt lat="44.92926" lon="6.52897">
        <ele>2043.9</ele>
        <time>2013-05-04T10:33:24Z</time>
      </trkpt>
      <trkpt lat="44.92926" lon="6.52897">
        <ele>2043.9</ele>
        <time>2013-05-04T10:33:46Z</time>
      </trkpt>
      <trkpt lat="44.92926" lon="6.52898">
        <ele>2043.9</ele>
        <time>2013-05-04T10:34:08Z</time>
      </trkpt>
      <trkpt lat="44.92926" lon="6.52897">
        <ele>2043.9</ele>
        <time>2013-05-04T10:34:24Z</time>
      </trkpt>
      <trkpt lat="44.92926" lon="6.52897">
        <ele>2043.9</ele>
        <time>2013-05-04T10:34:43Z</time>
      </trkpt>
      <trkpt lat="44.92926" lon="6.52898">
        <ele>2043.9</ele>
        <time>2013-05-04T10:35:05Z</time>
      </trkpt>
      <trkpt lat="44.92925" lon="6.52898">
        <ele>2043.9</ele>
        <time>2013-05-04T10:35:26Z</time>
      </trkpt>
      <trkpt lat="44.92925" lon="6.52898">
        <ele>2043.9</ele>
        <time>2013-05-04T10:35:51Z</time>
      </trkpt>
      <trkpt lat="44.92924" lon="6.52897">
        <ele>2043.42</ele>
        <time>2013-05-04T10:36:08Z</time>
      </trkpt>
      <trkpt lat="44.92924" lon="6.52897">
        <ele>2043.42</ele>
        <time>2013-05-04T10:36:34Z</time>
      </trkpt>
      <trkpt lat="44.92924" lon="6.52897">
        <ele>2042.94</ele>
        <time>2013-05-04T10:37:05Z</time>
      </trkpt>
      <trkpt lat="44.92925" lon="6.52897">
        <ele>2042.94</ele>
        <time>2013-05-04T10:37:26Z</time>
      </trkpt>
      <trkpt lat="44.92925" lon="6.52897">
        <ele>2042.94</ele>
        <time>2013-05-04T10:37:47Z</time>
      </trkpt>
      <trkpt lat="44.92925" lon="6.52897">
        <ele>2042.94</ele>
        <time>2013-05-04T10:37:56Z</time>
      </trkpt>
      <trkpt lat="44.92927" lon="6.52906">
        <ele>2042.46</ele>
        <time>2013-05-04T10:38:00Z</time>
      </trkpt>
      <trkpt lat="44.92936" lon="6.52913">
        <ele>2041.5</ele>
        <time>2013-05-04T10:38:02Z</time>
      </trkpt>
      <trkpt lat="44.92939" lon="6.52935">
        <ele>2036.21</ele>
        <time>2013-05-04T10:38:06Z</time>
      </trkpt>
      <trkpt lat="44.92937" lon="6.52955">
        <ele>2032.36</ele>
        <time>2013-05-04T10:38:09Z</time>
      </trkpt>
      <trkpt lat="44.92936" lon="6.52969">
        <ele>2028.52</ele>
        <time>2013-05-04T10:38:11Z</time>
      </trkpt>
      <trkpt lat="44.92934" lon="6.52982">
        <ele>2025.15</ele>
        <time>2013-05-04T10:38:13Z</time>
      </trkpt>
      <trkpt lat="44.9293" lon="6.53019">
        <ele>2015.54</ele>
        <time>2013-05-04T10:38:18Z</time>
      </trkpt>
      <trkpt lat="44.92928" lon="6.53042">
        <ele>2012.66</ele>
        <time>2013-05-04T10:38:21Z</time>
      </trkpt>
      <trkpt lat="44.92925" lon="6.53063">
        <ele>2008.33</ele>
        <time>2013-05-04T10:38:24Z</time>
      </trkpt>
      <trkpt lat="44.92927" lon="6.53063">
        <ele>2008.33</ele>
        <time>2013-05-04T10:38:25Z</time>
      </trkpt>
      <trkpt lat="44.92932" lon="6.53066">
        <ele>2006.89</ele>
        <time>2013-05-04T10:38:31Z</time>
      </trkpt>
      <trkpt lat="44.92932" lon="6.53066">
        <ele>2007.85</ele>
        <time>2013-05-04T10:38:48Z</time>
      </trkpt>
      <trkpt lat="44.92928" lon="6.53088">
        <ele>2005.93</ele>
        <time>2013-05-04T10:38:55Z</time>
      </trkpt>
      <trkpt lat="44.92924" lon="6.53106">
        <ele>2002.56</ele>
        <time>2013-05-04T10:38:59Z</time>
      </trkpt>
      <trkpt lat="44.92924" lon="6.53126">
        <ele>1999.2</ele>
        <time>2013-05-04T10:39:04Z</time>
      </trkpt>
      <trkpt lat="44.92917" lon="6.53139">
        <ele>1996.8</ele>
        <time>2013-05-04T10:39:08Z</time>
      </trkpt>
      <trkpt lat="44.92912" lon="6.53164">
        <ele>1992.95</ele>
        <time>2013-05-04T10:39:13Z</time>
      </trkpt>
      <trkpt lat="44.92905" lon="6.53186">
        <ele>1989.59</ele>
        <time>2013-05-04T10:39:17Z</time>
      </trkpt>
      <trkpt lat="44.92904" lon="6.53193">
        <ele>1988.62</ele>
        <time>2013-05-04T10:39:18Z</time>
      </trkpt>
      <trkpt lat="44.92898" lon="6.53226">
        <ele>1983.34</ele>
        <time>2013-05-04T10:39:23Z</time>
      </trkpt>
      <trkpt lat="44.92894" lon="6.53247">
        <ele>1979.49</ele>
        <time>2013-05-04T10:39:27Z</time>
      </trkpt>
      <trkpt lat="44.92883" lon="6.53257">
        <ele>1976.61</ele>
        <time>2013-05-04T10:39:30Z</time>
      </trkpt>
      <trkpt lat="44.92886" lon="6.53267">
        <ele>1975.17</ele>
        <time>2013-05-04T10:39:32Z</time>
      </trkpt>
      <trkpt lat="44.92886" lon="6.53283">
        <ele>1971.8</ele>
        <time>2013-05-04T10:39:35Z</time>
      </trkpt>
      <trkpt lat="44.92886" lon="6.53289">
        <ele>1971.8</ele>
        <time>2013-05-04T10:39:36Z</time>
      </trkpt>
      <trkpt lat="44.92884" lon="6.53307">
        <ele>1970.36</ele>
        <time>2013-05-04T10:39:39Z</time>
      </trkpt>
      <trkpt lat="44.92885" lon="6.53328">
        <ele>1966.99</ele>
        <time>2013-05-04T10:39:42Z</time>
      </trkpt>
      <trkpt lat="44.92886" lon="6.53339">
        <ele>1965.55</ele>
        <time>2013-05-04T10:39:44Z</time>
      </trkpt>
      <trkpt lat="44.92887" lon="6.53377">
        <ele>1962.19</ele>
        <time>2013-05-04T10:39:49Z</time>
      </trkpt>
      <trkpt lat="44.92889" lon="6.53391">
        <ele>1960.27</ele>
        <time>2013-05-04T10:39:51Z</time>
      </trkpt>
      <trkpt lat="44.92882" lon="6.53403">
        <ele>1959.3</ele>
        <time>2013-05-04T10:40:01Z</time>
      </trkpt>
      <trkpt lat="44.92882" lon="6.53402">
        <ele>1958.82</ele>
        <time>2013-05-04T10:40:20Z</time>
      </trkpt>
      <trkpt lat="44.92882" lon="6.53402">
        <ele>1958.82</ele>
        <time>2013-05-04T10:40:39Z</time>
      </trkpt>
      <trkpt lat="44.92883" lon="6.53402">
        <ele>1959.3</ele>
        <time>2013-05-04T10:40:59Z</time>
      </trkpt>
      <trkpt lat="44.92884" lon="6.53401">
        <ele>1958.82</ele>
        <time>2013-05-04T10:41:14Z</time>
      </trkpt>
      <trkpt lat="44.92885" lon="6.53402">
        <ele>1958.82</ele>
        <time>2013-05-04T10:41:40Z</time>
      </trkpt>
      <trkpt lat="44.92885" lon="6.53402">
        <ele>1958.82</ele>
        <time>2013-05-04T10:42:05Z</time>
      </trkpt>
      <trkpt lat="44.92885" lon="6.53402">
        <ele>1958.82</ele>
        <time>2013-05-04T10:42:24Z</time>
      </trkpt>
      <trkpt lat="44.92885" lon="6.53403">
        <ele>1958.82</ele>
        <time>2013-05-04T10:42:47Z</time>
      </trkpt>
      <trkpt lat="44.92885" lon="6.53403">
        <ele>1958.82</ele>
        <time>2013-05-04T10:42:48Z</time>
      </trkpt>
      <trkpt lat="44.92883" lon="6.53407">
        <ele>1958.34</ele>
        <time>2013-05-04T10:43:01Z</time>
      </trkpt>
      <trkpt lat="44.92883" lon="6.53408">
        <ele>1957.86</ele>
        <time>2013-05-04T10:43:16Z</time>
      </trkpt>
      <trkpt lat="44.92883" lon="6.53408">
        <ele>1957.86</ele>
        <time>2013-05-04T10:43:38Z</time>
      </trkpt>
      <trkpt lat="44.92884" lon="6.5341">
        <ele>1957.86</ele>
        <time>2013-05-04T10:43:54Z</time>
      </trkpt>
      <trkpt lat="44.92884" lon="6.5341">
        <ele>1957.86</ele>
        <time>2013-05-04T10:44:11Z</time>
      </trkpt>
      <trkpt lat="44.92884" lon="6.5341">
        <ele>1957.86</ele>
        <time>2013-05-04T10:44:28Z</time>
      </trkpt>
      <trkpt lat="44.92884" lon="6.5341">
        <ele>1957.86</ele>
        <time>2013-05-04T10:44:31Z</time>
      </trkpt>
      <trkpt lat="44.92893" lon="6.53431">
        <ele>1955.46</ele>
        <time>2013-05-04T10:44:38Z</time>
      </trkpt>
      <trkpt lat="44.92898" lon="6.53456">
        <ele>1952.09</ele>
        <time>2013-05-04T10:44:42Z</time>
      </trkpt>
      <trkpt lat="44.929" lon="6.53463">
        <ele>1951.13</ele>
        <time>2013-05-04T10:44:43Z</time>
      </trkpt>
      <trkpt lat="44.92904" lon="6.53484">
        <ele>1949.69</ele>
        <time>2013-05-04T10:44:46Z</time>
      </trkpt>
      <trkpt lat="44.92903" lon="6.5349">
        <ele>1948.73</ele>
        <time>2013-05-04T10:44:47Z</time>
      </trkpt>
      <trkpt lat="44.92902" lon="6.53504">
        <ele>1947.77</ele>
        <time>2013-05-04T10:44:50Z</time>
      </trkpt>
      <trkpt lat="44.92908" lon="6.53514">
        <ele>1945.85</ele>
        <time>2013-05-04T10:44:55Z</time>
      </trkpt>
      <trkpt lat="44.92912" lon="6.53511">
        <ele>1946.81</ele>
        <time>2013-05-04T10:44:57Z</time>
      </trkpt>
      <trkpt lat="44.92919" lon="6.5352">
        <ele>1942.48</ele>
        <time>2013-05-04T10:45:01Z</time>
      </trkpt>
      <trkpt lat="44.92921" lon="6.53524">
        <ele>1941.52</ele>
        <time>2013-05-04T10:45:12Z</time>
      </trkpt>
      <trkpt lat="44.92923" lon="6.53527">
        <ele>1940.56</ele>
        <time>2013-05-04T10:45:21Z</time>
      </trkpt>
      <trkpt lat="44.92925" lon="6.53529">
        <ele>1940.56</ele>
        <time>2013-05-04T10:45:23Z</time>
      </trkpt>
      <trkpt lat="44.92929" lon="6.53535">
        <ele>1940.56</ele>
        <time>2013-05-04T10:45:27Z</time>
      </trkpt>
      <trkpt lat="44.92931" lon="6.53535">
        <ele>1940.56</ele>
        <time>2013-05-04T10:45:40Z</time>
      </trkpt>
      <trkpt lat="44.92931" lon="6.53535">
        <ele>1940.56</ele>
        <time>2013-05-04T10:46:02Z</time>
      </trkpt>
      <trkpt lat="44.9293" lon="6.53535">
        <ele>1940.56</ele>
        <time>2013-05-04T10:46:06Z</time>
      </trkpt>
      <trkpt lat="44.92938" lon="6.53552">
        <ele>1938.16</ele>
        <time>2013-05-04T10:46:10Z</time>
      </trkpt>
      <trkpt lat="44.92945" lon="6.53573">
        <ele>1936.23</ele>
        <time>2013-05-04T10:46:12Z</time>
      </trkpt>
      <trkpt lat="44.92963" lon="6.53602">
        <ele>1929.02</ele>
        <time>2013-05-04T10:46:16Z</time>
      </trkpt>
      <trkpt lat="44.92976" lon="6.5362">
        <ele>1925.66</ele>
        <time>2013-05-04T10:46:19Z</time>
      </trkpt>
      <trkpt lat="44.92987" lon="6.53648">
        <ele>1921.81</ele>
        <time>2013-05-04T10:46:23Z</time>
      </trkpt>
      <trkpt lat="44.92998" lon="6.53669">
        <ele>1919.41</ele>
        <time>2013-05-04T10:46:26Z</time>
      </trkpt>
      <trkpt lat="44.93018" lon="6.53715">
        <ele>1915.08</ele>
        <time>2013-05-04T10:46:31Z</time>
      </trkpt>
      <trkpt lat="44.93037" lon="6.53737">
        <ele>1913.64</ele>
        <time>2013-05-04T10:46:35Z</time>
      </trkpt>
      <trkpt lat="44.93043" lon="6.53744">
        <ele>1911.72</ele>
        <time>2013-05-04T10:46:37Z</time>
      </trkpt>
      <trkpt lat="44.93069" lon="6.5377">
        <ele>1907.39</ele>
        <time>2013-05-04T10:46:47Z</time>
      </trkpt>
      <trkpt lat="44.93095" lon="6.53796">
        <ele>1903.07</ele>
        <time>2013-05-04T10:46:53Z</time>
      </trkpt>
      <trkpt lat="44.93111" lon="6.53814">
        <ele>1900.66</ele>
        <time>2013-05-04T10:46:56Z</time>
      </trkpt>
      <trkpt lat="44.93131" lon="6.53846">
        <ele>1897.78</ele>
        <time>2013-05-04T10:47:00Z</time>
      </trkpt>
      <trkpt lat="44.93136" lon="6.53854">
        <ele>1897.78</ele>
        <time>2013-05-04T10:47:01Z</time>
      </trkpt>
      <trkpt lat="44.93148" lon="6.53878">
        <ele>1895.86</ele>
        <time>2013-05-04T10:47:04Z</time>
      </trkpt>
      <trkpt lat="44.93166" lon="6.53911">
        <ele>1892.97</ele>
        <time>2013-05-04T10:47:10Z</time>
      </trkpt>
      <trkpt lat="44.93171" lon="6.53932">
        <ele>1891.05</ele>
        <time>2013-05-04T10:47:14Z</time>
      </trkpt>
      <trkpt lat="44.93171" lon="6.53937">
        <ele>1890.09</ele>
        <time>2013-05-04T10:47:15Z</time>
      </trkpt>
      <trkpt lat="44.93169" lon="6.53941">
        <ele>1889.13</ele>
        <time>2013-05-04T10:47:24Z</time>
      </trkpt>
      <trkpt lat="44.93169" lon="6.53941">
        <ele>1889.61</ele>
        <time>2013-05-04T10:47:39Z</time>
      </trkpt>
      <trkpt lat="44.93167" lon="6.5394">
        <ele>1889.13</ele>
        <time>2013-05-04T10:47:51Z</time>
      </trkpt>
      <trkpt lat="44.93166" lon="6.5394">
        <ele>1889.13</ele>
        <time>2013-05-04T10:48:07Z</time>
      </trkpt>
      <trkpt lat="44.93164" lon="6.53939">
        <ele>1889.13</ele>
        <time>2013-05-04T10:48:19Z</time>
      </trkpt>
      <trkpt lat="44.93165" lon="6.53938">
        <ele>1889.13</ele>
        <time>2013-05-04T10:48:36Z</time>
      </trkpt>
      <trkpt lat="44.93165" lon="6.53938">
        <ele>1889.13</ele>
        <time>2013-05-04T10:48:53Z</time>
      </trkpt>
      <trkpt lat="44.93165" lon="6.53938">
        <ele>1889.13</ele>
        <time>2013-05-04T10:48:57Z</time>
      </trkpt>
      <trkpt lat="44.93164" lon="6.53949">
        <ele>1888.65</ele>
        <time>2013-05-04T10:49:02Z</time>
      </trkpt>
      <trkpt lat="44.93165" lon="6.54004">
        <ele>1885.76</ele>
        <time>2013-05-04T10:49:16Z</time>
      </trkpt>
      <trkpt lat="44.93169" lon="6.54042">
        <ele>1884.32</ele>
        <time>2013-05-04T10:49:29Z</time>
      </trkpt>
      <trkpt lat="44.93167" lon="6.54093">
        <ele>1881.44</ele>
        <time>2013-05-04T10:49:40Z</time>
      </trkpt>
      <trkpt lat="44.93167" lon="6.54111">
        <ele>1880</ele>
        <time>2013-05-04T10:49:43Z</time>
      </trkpt>
      <trkpt lat="44.93176" lon="6.5412">
        <ele>1877.11</ele>
        <time>2013-05-04T10:49:48Z</time>
      </trkpt>
      <trkpt lat="44.93176" lon="6.5412">
        <ele>1877.59</ele>
        <time>2013-05-04T10:50:03Z</time>
      </trkpt>
      <trkpt lat="44.93176" lon="6.5412">
        <ele>1877.59</ele>
        <time>2013-05-04T10:50:18Z</time>
      </trkpt>
      <trkpt lat="44.93175" lon="6.5412">
        <ele>1877.59</ele>
        <time>2013-05-04T10:50:27Z</time>
      </trkpt>
      <trkpt lat="44.93175" lon="6.5412">
        <ele>1877.59</ele>
        <time>2013-05-04T10:50:37Z</time>
      </trkpt>
      <trkpt lat="44.93186" lon="6.54133">
        <ele>1874.23</ele>
        <time>2013-05-04T10:50:42Z</time>
      </trkpt>
      <trkpt lat="44.93195" lon="6.54139">
        <ele>1872.79</ele>
        <time>2013-05-04T10:50:44Z</time>
      </trkpt>
      <trkpt lat="44.93198" lon="6.54145">
        <ele>1869.9</ele>
        <time>2013-05-04T10:50:45Z</time>
      </trkpt>
      <trkpt lat="44.93211" lon="6.54155">
        <ele>1866.54</ele>
        <time>2013-05-04T10:50:48Z</time>
      </trkpt>
      <trkpt lat="44.93215" lon="6.54159">
        <ele>1863.65</ele>
        <time>2013-05-04T10:50:49Z</time>
      </trkpt>
      <trkpt lat="44.93224" lon="6.54166">
        <ele>1860.29</ele>
        <time>2013-05-04T10:50:51Z</time>
      </trkpt>
      <trkpt lat="44.93231" lon="6.54172">
        <ele>1856.92</ele>
        <time>2013-05-04T10:50:53Z</time>
      </trkpt>
      <trkpt lat="44.93239" lon="6.54178">
        <ele>1852.6</ele>
        <time>2013-05-04T10:50:55Z</time>
      </trkpt>
      <trkpt lat="44.93241" lon="6.5419">
        <ele>1849.71</ele>
        <time>2013-05-04T10:50:57Z</time>
      </trkpt>
      <trkpt lat="44.93245" lon="6.54194">
        <ele>1846.35</ele>
        <time>2013-05-04T10:50:58Z</time>
      </trkpt>
      <trkpt lat="44.93248" lon="6.54199">
        <ele>1848.75</ele>
        <time>2013-05-04T10:50:59Z</time>
      </trkpt>
      <trkpt lat="44.93253" lon="6.54207">
        <ele>1845.39</ele>
        <time>2013-05-04T10:51:01Z</time>
      </trkpt>
      <trkpt lat="44.93256" lon="6.54217">
        <ele>1841.54</ele>
        <time>2013-05-04T10:51:03Z</time>
      </trkpt>
      <trkpt lat="44.93259" lon="6.5422">
        <ele>1841.54</ele>
        <time>2013-05-04T10:51:04Z</time>
      </trkpt>
      <trkpt lat="44.93263" lon="6.54228">
        <ele>1838.18</ele>
        <time>2013-05-04T10:51:06Z</time>
      </trkpt>
      <trkpt lat="44.93271" lon="6.54227">
        <ele>1834.81</ele>
        <time>2013-05-04T10:51:08Z</time>
      </trkpt>
      <trkpt lat="44.93277" lon="6.54221">
        <ele>1832.41</ele>
        <time>2013-05-04T10:51:10Z</time>
      </trkpt>
      <trkpt lat="44.93278" lon="6.54218">
        <ele>1830.97</ele>
        <time>2013-05-04T10:51:16Z</time>
      </trkpt>
      <trkpt lat="44.93278" lon="6.54217">
        <ele>1833.37</ele>
        <time>2013-05-04T10:51:18Z</time>
      </trkpt>
      <trkpt lat="44.93279" lon="6.54218">
        <ele>1833.37</ele>
        <time>2013-05-04T10:51:41Z</time>
      </trkpt>
      <trkpt lat="44.9328" lon="6.54217">
        <ele>1833.37</ele>
        <time>2013-05-04T10:51:43Z</time>
      </trkpt>
      <trkpt lat="44.9329" lon="6.54228">
        <ele>1829.53</ele>
        <time>2013-05-04T10:51:47Z</time>
      </trkpt>
      <trkpt lat="44.933" lon="6.54235">
        <ele>1824.72</ele>
        <time>2013-05-04T10:51:50Z</time>
      </trkpt>
      <trkpt lat="44.93309" lon="6.54241">
        <ele>1819.91</ele>
        <time>2013-05-04T10:51:53Z</time>
      </trkpt>
      <trkpt lat="44.93321" lon="6.54243">
        <ele>1814.63</ele>
        <time>2013-05-04T10:51:56Z</time>
      </trkpt>
      <trkpt lat="44.93327" lon="6.54237">
        <ele>1813.18</ele>
        <time>2013-05-04T10:51:58Z</time>
      </trkpt>
      <trkpt lat="44.93332" lon="6.54243">
        <ele>1809.82</ele>
        <time>2013-05-04T10:52:00Z</time>
      </trkpt>
      <trkpt lat="44.93343" lon="6.54229">
        <ele>1806.45</ele>
        <time>2013-05-04T10:52:04Z</time>
      </trkpt>
      <trkpt lat="44.93345" lon="6.5423">
        <ele>1806.45</ele>
        <time>2013-05-04T10:52:05Z</time>
      </trkpt>
      <trkpt lat="44.93354" lon="6.54242">
        <ele>1804.05</ele>
        <time>2013-05-04T10:52:10Z</time>
      </trkpt>
      <trkpt lat="44.93364" lon="6.5425">
        <ele>1800.21</ele>
        <time>2013-05-04T10:52:14Z</time>
      </trkpt>
      <trkpt lat="44.93367" lon="6.5425">
        <ele>1800.21</ele>
        <time>2013-05-04T10:52:15Z</time>
      </trkpt>
      <trkpt lat="44.93377" lon="6.54263">
        <ele>1797.32</ele>
        <time>2013-05-04T10:52:19Z</time>
      </trkpt>
      <trkpt lat="44.93388" lon="6.54273">
        <ele>1794.92</ele>
        <time>2013-05-04T10:52:22Z</time>
      </trkpt>
      <trkpt lat="44.93398" lon="6.54282">
        <ele>1793</ele>
        <time>2013-05-04T10:52:25Z</time>
      </trkpt>
      <trkpt lat="44.93403" lon="6.54289">
        <ele>1791.07</ele>
        <time>2013-05-04T10:52:27Z</time>
      </trkpt>
      <trkpt lat="44.93416" lon="6.54305">
        <ele>1788.67</ele>
        <time>2013-05-04T10:52:32Z</time>
      </trkpt>
      <trkpt lat="44.93424" lon="6.54311">
        <ele>1788.19</ele>
        <time>2013-05-04T10:52:36Z</time>
      </trkpt>
      <trkpt lat="44.93442" lon="6.54302">
        <ele>1787.23</ele>
        <time>2013-05-04T10:52:50Z</time>
      </trkpt>
      <trkpt lat="44.9346" lon="6.54299">
        <ele>1786.75</ele>
        <time>2013-05-04T10:53:02Z</time>
      </trkpt>
      <trkpt lat="44.93465" lon="6.54298">
        <ele>1785.79</ele>
        <time>2013-05-04T10:53:04Z</time>
      </trkpt>
      <trkpt lat="44.93467" lon="6.54297">
        <ele>1785.79</ele>
        <time>2013-05-04T10:53:15Z</time>
      </trkpt>
      <trkpt lat="44.93467" lon="6.54297">
        <ele>1785.79</ele>
        <time>2013-05-04T10:53:28Z</time>
      </trkpt>
      <trkpt lat="44.93468" lon="6.54296">
        <ele>1785.31</ele>
        <time>2013-05-04T10:53:38Z</time>
      </trkpt>
      <trkpt lat="44.93468" lon="6.54297">
        <ele>1785.31</ele>
        <time>2013-05-04T10:53:50Z</time>
      </trkpt>
      <trkpt lat="44.93467" lon="6.54297">
        <ele>1785.31</ele>
        <time>2013-05-04T10:54:02Z</time>
      </trkpt>
      <trkpt lat="44.93472" lon="6.54297">
        <ele>1784.34</ele>
        <time>2013-05-04T10:54:14Z</time>
      </trkpt>
      <trkpt lat="44.93472" lon="6.54298">
        <ele>1783.86</ele>
        <time>2013-05-04T10:54:25Z</time>
      </trkpt>
      <trkpt lat="44.93472" lon="6.54298">
        <ele>1783.86</ele>
        <time>2013-05-04T10:54:42Z</time>
      </trkpt>
      <trkpt lat="44.93472" lon="6.54297">
        <ele>1783.86</ele>
        <time>2013-05-04T10:54:53Z</time>
      </trkpt>
      <trkpt lat="44.93471" lon="6.54297">
        <ele>1784.34</ele>
        <time>2013-05-04T10:55:08Z</time>
      </trkpt>
      <trkpt lat="44.93471" lon="6.54297">
        <ele>1784.82</ele>
        <time>2013-05-04T10:55:29Z</time>
      </trkpt>
      <trkpt lat="44.93471" lon="6.54296">
        <ele>1782.9</ele>
        <time>2013-05-04T10:55:53Z</time>
      </trkpt>
      <trkpt lat="44.93471" lon="6.54296">
        <ele>1782.9</ele>
        <time>2013-05-04T10:56:13Z</time>
      </trkpt>
      <trkpt lat="44.93472" lon="6.54296">
        <ele>1784.34</ele>
        <time>2013-05-04T10:56:31Z</time>
      </trkpt>
      <trkpt lat="44.93472" lon="6.54296">
        <ele>1784.34</ele>
        <time>2013-05-04T10:56:36Z</time>
      </trkpt>
      <trkpt lat="44.93474" lon="6.54298">
        <ele>1784.34</ele>
        <time>2013-05-04T10:56:39Z</time>
      </trkpt>
      <trkpt lat="44.93477" lon="6.54298">
        <ele>1784.34</ele>
        <time>2013-05-04T10:56:41Z</time>
      </trkpt>
      <trkpt lat="44.93481" lon="6.54303">
        <ele>1782.9</ele>
        <time>2013-05-04T10:56:46Z</time>
      </trkpt>
      <trkpt lat="44.93492" lon="6.54305">
        <ele>1780.98</ele>
        <time>2013-05-04T10:56:57Z</time>
      </trkpt>
      <trkpt lat="44.93499" lon="6.54306">
        <ele>1780.5</ele>
        <time>2013-05-04T10:57:04Z</time>
      </trkpt>
      <trkpt lat="44.93509" lon="6.54309">
        <ele>1778.1</ele>
        <time>2013-05-04T10:57:13Z</time>
      </trkpt>
      <trkpt lat="44.93511" lon="6.5431">
        <ele>1777.13</ele>
        <time>2013-05-04T10:57:15Z</time>
      </trkpt>
      <trkpt lat="44.93516" lon="6.54313">
        <ele>1776.65</ele>
        <time>2013-05-04T10:57:24Z</time>
      </trkpt>
      <trkpt lat="44.93517" lon="6.54314">
        <ele>1776.17</ele>
        <time>2013-05-04T10:57:26Z</time>
      </trkpt>
      <trkpt lat="44.93529" lon="6.54321">
        <ele>1774.25</ele>
        <time>2013-05-04T10:57:37Z</time>
      </trkpt>
      <trkpt lat="44.93534" lon="6.54323">
        <ele>1773.77</ele>
        <time>2013-05-04T10:57:41Z</time>
      </trkpt>
      <trkpt lat="44.93551" lon="6.54328">
        <ele>1771.37</ele>
        <time>2013-05-04T10:57:56Z</time>
      </trkpt>
      <trkpt lat="44.93554" lon="6.54332">
        <ele>1770.89</ele>
        <time>2013-05-04T10:58:00Z</time>
      </trkpt>
      <trkpt lat="44.93566" lon="6.54341">
        <ele>1768.96</ele>
        <time>2013-05-04T10:58:12Z</time>
      </trkpt>
      <trkpt lat="44.93568" lon="6.54342">
        <ele>1768.96</ele>
        <time>2013-05-04T10:58:14Z</time>
      </trkpt>
      <trkpt lat="44.93576" lon="6.54344">
        <ele>1766.56</ele>
        <time>2013-05-04T10:58:21Z</time>
      </trkpt>
      <trkpt lat="44.93584" lon="6.54348">
        <ele>1765.12</ele>
        <time>2013-05-04T10:58:27Z</time>
      </trkpt>
      <trkpt lat="44.93588" lon="6.54351">
        <ele>1764.16</ele>
        <time>2013-05-04T10:58:31Z</time>
      </trkpt>
      <trkpt lat="44.93596" lon="6.54354">
        <ele>1762.71</ele>
        <time>2013-05-04T10:58:38Z</time>
      </trkpt>
      <trkpt lat="44.93608" lon="6.54362">
        <ele>1760.31</ele>
        <time>2013-05-04T10:58:50Z</time>
      </trkpt>
      <trkpt lat="44.93611" lon="6.54365">
        <ele>1760.31</ele>
        <time>2013-05-04T10:58:53Z</time>
      </trkpt>
      <trkpt lat="44.93623" lon="6.54379">
        <ele>1758.39</ele>
        <time>2013-05-04T10:59:06Z</time>
      </trkpt>
      <trkpt lat="44.9363" lon="6.54386">
        <ele>1756.95</ele>
        <time>2013-05-04T10:59:13Z</time>
      </trkpt>
      <trkpt lat="44.93635" lon="6.54387">
        <ele>1755.5</ele>
        <time>2013-05-04T10:59:17Z</time>
      </trkpt>
      <trkpt lat="44.93651" lon="6.54392">
        <ele>1753.58</ele>
        <time>2013-05-04T10:59:31Z</time>
      </trkpt>
      <trkpt lat="44.93654" lon="6.54393">
        <ele>1752.14</ele>
        <time>2013-05-04T10:59:34Z</time>
      </trkpt>
      <trkpt lat="44.93676" lon="6.54393">
        <ele>1748.78</ele>
        <time>2013-05-04T10:59:51Z</time>
      </trkpt>
      <trkpt lat="44.93678" lon="6.54393">
        <ele>1747.81</ele>
        <time>2013-05-04T10:59:53Z</time>
      </trkpt>
      <trkpt lat="44.9368" lon="6.54392">
        <ele>1747.81</ele>
        <time>2013-05-04T10:59:55Z</time>
      </trkpt>
      <trkpt lat="44.93693" lon="6.54383">
        <ele>1744.93</ele>
        <time>2013-05-04T11:00:07Z</time>
      </trkpt>
      <trkpt lat="44.93708" lon="6.54375">
        <ele>1742.53</ele>
        <time>2013-05-04T11:00:22Z</time>
      </trkpt>
      <trkpt lat="44.93717" lon="6.54367">
        <ele>1741.08</ele>
        <time>2013-05-04T11:00:35Z</time>
      </trkpt>
      <trkpt lat="44.93733" lon="6.54354">
        <ele>1739.16</ele>
        <time>2013-05-04T11:00:52Z</time>
      </trkpt>
      <trkpt lat="44.93748" lon="6.54345">
        <ele>1737.24</ele>
        <time>2013-05-04T11:01:05Z</time>
      </trkpt>
      <trkpt lat="44.93765" lon="6.54343">
        <ele>1735.8</ele>
        <time>2013-05-04T11:01:19Z</time>
      </trkpt>
      <trkpt lat="44.93782" lon="6.54342">
        <ele>1733.88</ele>
        <time>2013-05-04T11:01:33Z</time>
      </trkpt>
      <trkpt lat="44.93799" lon="6.54342">
        <ele>1731.47</ele>
        <time>2013-05-04T11:01:47Z</time>
      </trkpt>
      <trkpt lat="44.93816" lon="6.54342">
        <ele>1729.55</ele>
        <time>2013-05-04T11:02:00Z</time>
      </trkpt>
      <trkpt lat="44.9382" lon="6.54344">
        <ele>1729.07</ele>
        <time>2013-05-04T11:02:04Z</time>
      </trkpt>
      <trkpt lat="44.93836" lon="6.54346">
        <ele>1726.67</ele>
        <time>2013-05-04T11:02:18Z</time>
      </trkpt>
      <trkpt lat="44.9385" lon="6.54349">
        <ele>1724.26</ele>
        <time>2013-05-04T11:02:30Z</time>
      </trkpt>
      <trkpt lat="44.93853" lon="6.5435">
        <ele>1723.3</ele>
        <time>2013-05-04T11:02:33Z</time>
      </trkpt>
      <trkpt lat="44.93859" lon="6.54352">
        <ele>1722.34</ele>
        <time>2013-05-04T11:02:37Z</time>
      </trkpt>
      <trkpt lat="44.93873" lon="6.54359">
        <ele>1720.9</ele>
        <time>2013-05-04T11:02:51Z</time>
      </trkpt>
      <trkpt lat="44.93883" lon="6.5437">
        <ele>1718.97</ele>
        <time>2013-05-04T11:03:06Z</time>
      </trkpt>
      <trkpt lat="44.93886" lon="6.54373">
        <ele>1717.53</ele>
        <time>2013-05-04T11:03:11Z</time>
      </trkpt>
      <trkpt lat="44.93889" lon="6.54381">
        <ele>1716.09</ele>
        <time>2013-05-04T11:03:18Z</time>
      </trkpt>
      <trkpt lat="44.93892" lon="6.54398">
        <ele>1714.17</ele>
        <time>2013-05-04T11:03:31Z</time>
      </trkpt>
      <trkpt lat="44.93897" lon="6.54405">
        <ele>1712.73</ele>
        <time>2013-05-04T11:03:38Z</time>
      </trkpt>
      <trkpt lat="44.93907" lon="6.5441">
        <ele>1711.28</ele>
        <time>2013-05-04T11:03:51Z</time>
      </trkpt>
      <trkpt lat="44.93916" lon="6.54405">
        <ele>1710.32</ele>
        <time>2013-05-04T11:04:05Z</time>
      </trkpt>
      <trkpt lat="44.93925" lon="6.544">
        <ele>1709.36</ele>
        <time>2013-05-04T11:04:18Z</time>
      </trkpt>
      <trkpt lat="44.93926" lon="6.54409">
        <ele>1705.52</ele>
        <time>2013-05-04T11:04:31Z</time>
      </trkpt>
      <trkpt lat="44.93924" lon="6.54416">
        <ele>1704.55</ele>
        <time>2013-05-04T11:04:37Z</time>
      </trkpt>
      <trkpt lat="44.93923" lon="6.54422">
        <ele>1703.59</ele>
        <time>2013-05-04T11:04:42Z</time>
      </trkpt>
      <trkpt lat="44.9392" lon="6.54435">
        <ele>1699.75</ele>
        <time>2013-05-04T11:04:53Z</time>
      </trkpt>
      <trkpt lat="44.93917" lon="6.54447">
        <ele>1696.86</ele>
        <time>2013-05-04T11:05:05Z</time>
      </trkpt>
      <trkpt lat="44.93917" lon="6.54449">
        <ele>1695.9</ele>
        <time>2013-05-04T11:05:07Z</time>
      </trkpt>
      <trkpt lat="44.93911" lon="6.54458">
        <ele>1692.06</ele>
        <time>2013-05-04T11:05:19Z</time>
      </trkpt>
      <trkpt lat="44.93908" lon="6.54463">
        <ele>1691.1</ele>
        <time>2013-05-04T11:05:29Z</time>
      </trkpt>
      <trkpt lat="44.93909" lon="6.54469">
        <ele>1690.14</ele>
        <time>2013-05-04T11:05:32Z</time>
      </trkpt>
      <trkpt lat="44.93912" lon="6.54477">
        <ele>1689.17</ele>
        <time>2013-05-04T11:05:44Z</time>
      </trkpt>
      <trkpt lat="44.93912" lon="6.54479">
        <ele>1689.17</ele>
        <time>2013-05-04T11:05:46Z</time>
      </trkpt>
      <trkpt lat="44.93914" lon="6.5449">
        <ele>1688.21</ele>
        <time>2013-05-04T11:05:54Z</time>
      </trkpt>
      <trkpt lat="44.93925" lon="6.54502">
        <ele>1685.81</ele>
        <time>2013-05-04T11:06:06Z</time>
      </trkpt>
      <trkpt lat="44.93934" lon="6.54507">
        <ele>1683.41</ele>
        <time>2013-05-04T11:06:14Z</time>
      </trkpt>
      <trkpt lat="44.93948" lon="6.54508">
        <ele>1681</ele>
        <time>2013-05-04T11:06:29Z</time>
      </trkpt>
      <trkpt lat="44.93958" lon="6.54505">
        <ele>1679.56</ele>
        <time>2013-05-04T11:06:42Z</time>
      </trkpt>
      <trkpt lat="44.93959" lon="6.54507">
        <ele>1678.12</ele>
        <time>2013-05-04T11:06:53Z</time>
      </trkpt>
      <trkpt lat="44.93958" lon="6.54509">
        <ele>1678.6</ele>
        <time>2013-05-04T11:07:10Z</time>
      </trkpt>
      <trkpt lat="44.93958" lon="6.54509">
        <ele>1678.12</ele>
        <time>2013-05-04T11:07:30Z</time>
      </trkpt>
      <trkpt lat="44.93959" lon="6.54509">
        <ele>1678.12</ele>
        <time>2013-05-04T11:07:55Z</time>
      </trkpt>
      <trkpt lat="44.93958" lon="6.5451">
        <ele>1678.12</ele>
        <time>2013-05-04T11:08:13Z</time>
      </trkpt>
      <trkpt lat="44.93958" lon="6.5451">
        <ele>1678.12</ele>
        <time>2013-05-04T11:08:34Z</time>
      </trkpt>
      <trkpt lat="44.93957" lon="6.54508">
        <ele>1679.56</ele>
        <time>2013-05-04T11:08:55Z</time>
      </trkpt>
      <trkpt lat="44.93956" lon="6.54508">
        <ele>1679.56</ele>
        <time>2013-05-04T11:08:56Z</time>
      </trkpt>
      <trkpt lat="44.93957" lon="6.54508">
        <ele>1680.04</ele>
        <time>2013-05-04T11:09:12Z</time>
      </trkpt>
      <trkpt lat="44.93957" lon="6.54508">
        <ele>1679.08</ele>
        <time>2013-05-04T11:09:23Z</time>
      </trkpt>
      <trkpt lat="44.93957" lon="6.54508">
        <ele>1680.04</ele>
        <time>2013-05-04T11:09:32Z</time>
      </trkpt>
      <trkpt lat="44.93956" lon="6.54508">
        <ele>1680.04</ele>
        <time>2013-05-04T11:09:43Z</time>
      </trkpt>
      <trkpt lat="44.93956" lon="6.54507">
        <ele>1680.04</ele>
        <time>2013-05-04T11:09:59Z</time>
      </trkpt>
      <trkpt lat="44.93955" lon="6.54507">
        <ele>1680.04</ele>
        <time>2013-05-04T11:10:16Z</time>
      </trkpt>
      <trkpt lat="44.93956" lon="6.54507">
        <ele>1680.04</ele>
        <time>2013-05-04T11:10:36Z</time>
      </trkpt>
      <trkpt lat="44.93957" lon="6.54508">
        <ele>1680.04</ele>
        <time>2013-05-04T11:10:44Z</time>
      </trkpt>
      <trkpt lat="44.93966" lon="6.54512">
        <ele>1677.64</ele>
        <time>2013-05-04T11:10:48Z</time>
      </trkpt>
      <trkpt lat="44.9397" lon="6.54526">
        <ele>1673.31</ele>
        <time>2013-05-04T11:10:52Z</time>
      </trkpt>
      <trkpt lat="44.93976" lon="6.54538">
        <ele>1669.47</ele>
        <time>2013-05-04T11:10:55Z</time>
      </trkpt>
      <trkpt lat="44.9398" lon="6.54547">
        <ele>1665.14</ele>
        <time>2013-05-04T11:10:57Z</time>
      </trkpt>
      <trkpt lat="44.93981" lon="6.54555">
        <ele>1662.26</ele>
        <time>2013-05-04T11:10:59Z</time>
      </trkpt>
      <trkpt lat="44.93983" lon="6.54565">
        <ele>1658.41</ele>
        <time>2013-05-04T11:11:02Z</time>
      </trkpt>
      <trkpt lat="44.93986" lon="6.54571">
        <ele>1656.49</ele>
        <time>2013-05-04T11:11:04Z</time>
      </trkpt>
      <trkpt lat="44.93985" lon="6.54578">
        <ele>1652.64</ele>
        <time>2013-05-04T11:11:06Z</time>
      </trkpt>
      <trkpt lat="44.9399" lon="6.5459">
        <ele>1648.8</ele>
        <time>2013-05-04T11:11:09Z</time>
      </trkpt>
      <trkpt lat="44.93993" lon="6.54598">
        <ele>1645.43</ele>
        <time>2013-05-04T11:11:11Z</time>
      </trkpt>
      <trkpt lat="44.93994" lon="6.5461">
        <ele>1641.59</ele>
        <time>2013-05-04T11:11:14Z</time>
      </trkpt>
      <trkpt lat="44.93998" lon="6.54608">
        <ele>1638.7</ele>
        <time>2013-05-04T11:11:18Z</time>
      </trkpt>
      <trkpt lat="44.93998" lon="6.54608">
        <ele>1640.63</ele>
        <time>2013-05-04T11:11:22Z</time>
      </trkpt>
      <trkpt lat="44.93998" lon="6.54608">
        <ele>1640.63</ele>
        <time>2013-05-04T11:11:24Z</time>
      </trkpt>
      <trkpt lat="44.94006" lon="6.54617">
        <ele>1637.26</ele>
        <time>2013-05-04T11:11:28Z</time>
      </trkpt>
      <trkpt lat="44.94009" lon="6.54614">
        <ele>1635.82</ele>
        <time>2013-05-04T11:11:30Z</time>
      </trkpt>
      <trkpt lat="44.94008" lon="6.54612">
        <ele>1635.34</ele>
        <time>2013-05-04T11:11:40Z</time>
      </trkpt>
      <trkpt lat="44.94008" lon="6.54612">
        <ele>1635.34</ele>
        <time>2013-05-04T11:11:45Z</time>
      </trkpt>
      <trkpt lat="44.9402" lon="6.54621">
        <ele>1631.98</ele>
        <time>2013-05-04T11:11:52Z</time>
      </trkpt>
      <trkpt lat="44.94023" lon="6.54627">
        <ele>1629.09</ele>
        <time>2013-05-04T11:11:55Z</time>
      </trkpt>
      <trkpt lat="44.94025" lon="6.54627">
        <ele>1628.61</ele>
        <time>2013-05-04T11:11:58Z</time>
      </trkpt>
      <trkpt lat="44.94036" lon="6.54636">
        <ele>1623.8</ele>
        <time>2013-05-04T11:12:03Z</time>
      </trkpt>
      <trkpt lat="44.94044" lon="6.54638">
        <ele>1622.36</ele>
        <time>2013-05-04T11:12:05Z</time>
      </trkpt>
      <trkpt lat="44.9406" lon="6.54643">
        <ele>1619.96</ele>
        <time>2013-05-04T11:12:14Z</time>
      </trkpt>
      <trkpt lat="44.94061" lon="6.54643">
        <ele>1619</ele>
        <time>2013-05-04T11:12:30Z</time>
      </trkpt>
      <trkpt lat="44.94061" lon="6.54644">
        <ele>1619</ele>
        <time>2013-05-04T11:12:47Z</time>
      </trkpt>
      <trkpt lat="44.94061" lon="6.54644">
        <ele>1619</ele>
        <time>2013-05-04T11:13:00Z</time>
      </trkpt>
      <trkpt lat="44.94064" lon="6.54644">
        <ele>1619</ele>
        <time>2013-05-04T11:13:08Z</time>
      </trkpt>
      <trkpt lat="44.94076" lon="6.54654">
        <ele>1615.63</ele>
        <time>2013-05-04T11:13:13Z</time>
      </trkpt>
      <trkpt lat="44.94084" lon="6.54663">
        <ele>1612.27</ele>
        <time>2013-05-04T11:13:16Z</time>
      </trkpt>
      <trkpt lat="44.94088" lon="6.54673">
        <ele>1608.9</ele>
        <time>2013-05-04T11:13:19Z</time>
      </trkpt>
      <trkpt lat="44.94095" lon="6.5467">
        <ele>1607.46</ele>
        <time>2013-05-04T11:13:21Z</time>
      </trkpt>
      <trkpt lat="44.94115" lon="6.54686">
        <ele>1603.62</ele>
        <time>2013-05-04T11:13:27Z</time>
      </trkpt>
      <trkpt lat="44.94118" lon="6.5469">
        <ele>1602.66</ele>
        <time>2013-05-04T11:13:28Z</time>
      </trkpt>
      <trkpt lat="44.94128" lon="6.547">
        <ele>1601.21</ele>
        <time>2013-05-04T11:13:31Z</time>
      </trkpt>
      <trkpt lat="44.94131" lon="6.54702">
        <ele>1600.25</ele>
        <time>2013-05-04T11:13:34Z</time>
      </trkpt>
      <trkpt lat="44.94133" lon="6.54709">
        <ele>1599.77</ele>
        <time>2013-05-04T11:13:38Z</time>
      </trkpt>
      <trkpt lat="44.94131" lon="6.54714">
        <ele>1599.29</ele>
        <time>2013-05-04T11:13:45Z</time>
      </trkpt>
      <trkpt lat="44.94129" lon="6.54715">
        <ele>1599.29</ele>
        <time>2013-05-04T11:13:47Z</time>
      </trkpt>
      <trkpt lat="44.94116" lon="6.5472">
        <ele>1597.85</ele>
        <time>2013-05-04T11:13:54Z</time>
      </trkpt>
      <trkpt lat="44.94102" lon="6.54721">
        <ele>1594.48</ele>
        <time>2013-05-04T11:14:02Z</time>
      </trkpt>
      <trkpt lat="44.94102" lon="6.54721">
        <ele>1594</ele>
        <time>2013-05-04T11:14:17Z</time>
      </trkpt>
      <trkpt lat="44.94092" lon="6.54727">
        <ele>1591.12</ele>
        <time>2013-05-04T11:14:22Z</time>
      </trkpt>
      <trkpt lat="44.94094" lon="6.54735">
        <ele>1588.72</ele>
        <time>2013-05-04T11:14:24Z</time>
      </trkpt>
      <trkpt lat="44.94099" lon="6.5474">
        <ele>1587.75</ele>
        <time>2013-05-04T11:14:27Z</time>
      </trkpt>
      <trkpt lat="44.94099" lon="6.54741">
        <ele>1587.27</ele>
        <time>2013-05-04T11:14:42Z</time>
      </trkpt>
      <trkpt lat="44.941" lon="6.54741">
        <ele>1587.27</ele>
        <time>2013-05-04T11:15:01Z</time>
      </trkpt>
      <trkpt lat="44.941" lon="6.54742">
        <ele>1587.27</ele>
        <time>2013-05-04T11:15:19Z</time>
      </trkpt>
      <trkpt lat="44.941" lon="6.54742">
        <ele>1586.79</ele>
        <time>2013-05-04T11:15:37Z</time>
      </trkpt>
      <trkpt lat="44.941" lon="6.54742">
        <ele>1586.79</ele>
        <time>2013-05-04T11:15:40Z</time>
      </trkpt>
      <trkpt lat="44.94107" lon="6.54756">
        <ele>1583.91</ele>
        <time>2013-05-04T11:15:45Z</time>
      </trkpt>
      <trkpt lat="44.94111" lon="6.54766">
        <ele>1580.06</ele>
        <time>2013-05-04T11:15:48Z</time>
      </trkpt>
      <trkpt lat="44.94122" lon="6.5477">
        <ele>1577.18</ele>
        <time>2013-05-04T11:15:52Z</time>
      </trkpt>
      <trkpt lat="44.9412" lon="6.54779">
        <ele>1573.33</ele>
        <time>2013-05-04T11:15:54Z</time>
      </trkpt>
      <trkpt lat="44.94124" lon="6.54787">
        <ele>1569.49</ele>
        <time>2013-05-04T11:15:57Z</time>
      </trkpt>
      <trkpt lat="44.94124" lon="6.54789">
        <ele>1568.53</ele>
        <time>2013-05-04T11:15:59Z</time>
      </trkpt>
      <trkpt lat="44.94124" lon="6.54789">
        <ele>1568.05</ele>
        <time>2013-05-04T11:16:14Z</time>
      </trkpt>
      <trkpt lat="44.94124" lon="6.54789">
        <ele>1568.05</ele>
        <time>2013-05-04T11:16:28Z</time>
      </trkpt>
      <trkpt lat="44.94124" lon="6.54795">
        <ele>1567.09</ele>
        <time>2013-05-04T11:16:39Z</time>
      </trkpt>
      <trkpt lat="44.94128" lon="6.54805">
        <ele>1564.68</ele>
        <time>2013-05-04T11:16:49Z</time>
      </trkpt>
      <trkpt lat="44.94138" lon="6.54811">
        <ele>1560.84</ele>
        <time>2013-05-04T11:17:01Z</time>
      </trkpt>
      <trkpt lat="44.94139" lon="6.54818">
        <ele>1559.4</ele>
        <time>2013-05-04T11:17:08Z</time>
      </trkpt>
      <trkpt lat="44.9414" lon="6.54824">
        <ele>1557.95</ele>
        <time>2013-05-04T11:17:11Z</time>
      </trkpt>
      <trkpt lat="44.94145" lon="6.54821">
        <ele>1557.47</ele>
        <time>2013-05-04T11:17:15Z</time>
      </trkpt>
      <trkpt lat="44.94152" lon="6.54819">
        <ele>1556.99</ele>
        <time>2013-05-04T11:17:20Z</time>
      </trkpt>
      <trkpt lat="44.94164" lon="6.54809">
        <ele>1555.55</ele>
        <time>2013-05-04T11:17:32Z</time>
      </trkpt>
      <trkpt lat="44.94168" lon="6.54804">
        <ele>1555.55</ele>
        <time>2013-05-04T11:17:36Z</time>
      </trkpt>
      <trkpt lat="44.94175" lon="6.54796">
        <ele>1554.59</ele>
        <time>2013-05-04T11:17:44Z</time>
      </trkpt>
      <trkpt lat="44.94178" lon="6.54791">
        <ele>1553.63</ele>
        <time>2013-05-04T11:17:48Z</time>
      </trkpt>
      <trkpt lat="44.94193" lon="6.54785">
        <ele>1553.15</ele>
        <time>2013-05-04T11:17:59Z</time>
      </trkpt>
      <trkpt lat="44.94202" lon="6.54779">
        <ele>1551.71</ele>
        <time>2013-05-04T11:18:07Z</time>
      </trkpt>
      <trkpt lat="44.94209" lon="6.54775">
        <ele>1551.22</ele>
        <time>2013-05-04T11:18:13Z</time>
      </trkpt>
      <trkpt lat="44.9422" lon="6.54768">
        <ele>1550.26</ele>
        <time>2013-05-04T11:18:23Z</time>
      </trkpt>
      <trkpt lat="44.94223" lon="6.54766">
        <ele>1550.26</ele>
        <time>2013-05-04T11:18:26Z</time>
      </trkpt>
      <trkpt lat="44.94237" lon="6.54761">
        <ele>1548.34</ele>
        <time>2013-05-04T11:18:38Z</time>
      </trkpt>
      <trkpt lat="44.94239" lon="6.54759">
        <ele>1548.34</ele>
        <time>2013-05-04T11:18:40Z</time>
      </trkpt>
      <trkpt lat="44.94245" lon="6.54757">
        <ele>1547.38</ele>
        <time>2013-05-04T11:18:44Z</time>
      </trkpt>
      <trkpt lat="44.9426" lon="6.54757">
        <ele>1545.94</ele>
        <time>2013-05-04T11:18:55Z</time>
      </trkpt>
      <trkpt lat="44.94272" lon="6.54757">
        <ele>1544.01</ele>
        <time>2013-05-04T11:19:05Z</time>
      </trkpt>
      <trkpt lat="44.94287" lon="6.54762">
        <ele>1542.09</ele>
        <time>2013-05-04T11:19:17Z</time>
      </trkpt>
      <trkpt lat="44.9429" lon="6.54763">
        <ele>1542.09</ele>
        <time>2013-05-04T11:19:19Z</time>
      </trkpt>
      <trkpt lat="44.94301" lon="6.54766">
        <ele>1540.65</ele>
        <time>2013-05-04T11:19:28Z</time>
      </trkpt>
      <trkpt lat="44.94312" lon="6.54768">
        <ele>1538.73</ele>
        <time>2013-05-04T11:19:39Z</time>
      </trkpt>
      <trkpt lat="44.94318" lon="6.54768">
        <ele>1538.25</ele>
        <time>2013-05-04T11:19:45Z</time>
      </trkpt>
      <trkpt lat="44.94326" lon="6.54766">
        <ele>1536.32</ele>
        <time>2013-05-04T11:19:58Z</time>
      </trkpt>
      <trkpt lat="44.94325" lon="6.54766">
        <ele>1536.32</ele>
        <time>2013-05-04T11:20:12Z</time>
      </trkpt>
      <trkpt lat="44.94324" lon="6.54768">
        <ele>1536.32</ele>
        <time>2013-05-04T11:20:32Z</time>
      </trkpt>
      <trkpt lat="44.94324" lon="6.54768">
        <ele>1535.84</ele>
        <time>2013-05-04T11:20:51Z</time>
      </trkpt>
      <trkpt lat="44.94323" lon="6.54771">
        <ele>1535.84</ele>
        <time>2013-05-04T11:21:05Z</time>
      </trkpt>
      <trkpt lat="44.94322" lon="6.54772">
        <ele>1536.8</ele>
        <time>2013-05-04T11:21:12Z</time>
      </trkpt>
      <trkpt lat="44.94328" lon="6.5477">
        <ele>1535.84</ele>
        <time>2013-05-04T11:21:16Z</time>
      </trkpt>
      <trkpt lat="44.9434" lon="6.54769">
        <ele>1533.92</ele>
        <time>2013-05-04T11:21:26Z</time>
      </trkpt>
      <trkpt lat="44.94342" lon="6.54768">
        <ele>1533.44</ele>
        <time>2013-05-04T11:21:38Z</time>
      </trkpt>
      <trkpt lat="44.94341" lon="6.54768">
        <ele>1533.44</ele>
        <time>2013-05-04T11:21:56Z</time>
      </trkpt>
      <trkpt lat="44.94343" lon="6.54766">
        <ele>1533.44</ele>
        <time>2013-05-04T11:22:11Z</time>
      </trkpt>
      <trkpt lat="44.94343" lon="6.54766">
        <ele>1533.44</ele>
        <time>2013-05-04T11:22:30Z</time>
      </trkpt>
      <trkpt lat="44.94343" lon="6.54766">
        <ele>1533.44</ele>
        <time>2013-05-04T11:22:51Z</time>
      </trkpt>
      <trkpt lat="44.94343" lon="6.54766">
        <ele>1533.44</ele>
        <time>2013-05-04T11:23:15Z</time>
      </trkpt>
      <trkpt lat="44.94343" lon="6.54766">
        <ele>1533.44</ele>
        <time>2013-05-04T11:23:32Z</time>
      </trkpt>
      <trkpt lat="44.94343" lon="6.54765">
        <ele>1533.44</ele>
        <time>2013-05-04T11:23:55Z</time>
      </trkpt>
      <trkpt lat="44.94344" lon="6.54766">
        <ele>1533.44</ele>
        <time>2013-05-04T11:23:59Z</time>
      </trkpt>
      <trkpt lat="44.94353" lon="6.54775">
        <ele>1530.08</ele>
        <time>2013-05-04T11:24:03Z</time>
      </trkpt>
      <trkpt lat="44.94355" lon="6.54785">
        <ele>1526.23</ele>
        <time>2013-05-04T11:24:06Z</time>
      </trkpt>
      <trkpt lat="44.94358" lon="6.54788">
        <ele>1526.23</ele>
        <time>2013-05-04T11:24:07Z</time>
      </trkpt>
      <trkpt lat="44.94358" lon="6.54797">
        <ele>1522.39</ele>
        <time>2013-05-04T11:24:09Z</time>
      </trkpt>
      <trkpt lat="44.94363" lon="6.54801">
        <ele>1519.02</ele>
        <time>2013-05-04T11:24:11Z</time>
      </trkpt>
      <trkpt lat="44.94368" lon="6.54807">
        <ele>1516.62</ele>
        <time>2013-05-04T11:24:13Z</time>
      </trkpt>
      <trkpt lat="44.94371" lon="6.54826">
        <ele>1510.37</ele>
        <time>2013-05-04T11:24:17Z</time>
      </trkpt>
      <trkpt lat="44.94371" lon="6.54826">
        <ele>1509.89</ele>
        <time>2013-05-04T11:24:22Z</time>
      </trkpt>
      <trkpt lat="44.9437" lon="6.5483">
        <ele>1507.48</ele>
        <time>2013-05-04T11:24:24Z</time>
      </trkpt>
      <trkpt lat="44.94366" lon="6.54851">
        <ele>1504.12</ele>
        <time>2013-05-04T11:24:30Z</time>
      </trkpt>
      <trkpt lat="44.94364" lon="6.54861">
        <ele>1500.76</ele>
        <time>2013-05-04T11:24:32Z</time>
      </trkpt>
      <trkpt lat="44.94361" lon="6.5488">
        <ele>1496.91</ele>
        <time>2013-05-04T11:24:36Z</time>
      </trkpt>
      <trkpt lat="44.94356" lon="6.54883">
        <ele>1495.47</ele>
        <time>2013-05-04T11:24:38Z</time>
      </trkpt>
      <trkpt lat="44.94345" lon="6.54884">
        <ele>1494.03</ele>
        <time>2013-05-04T11:24:42Z</time>
      </trkpt>
      <trkpt lat="44.94342" lon="6.54893">
        <ele>1493.06</ele>
        <time>2013-05-04T11:24:51Z</time>
      </trkpt>
      <trkpt lat="44.94343" lon="6.54896">
        <ele>1492.58</ele>
        <time>2013-05-04T11:24:54Z</time>
      </trkpt>
      <trkpt lat="44.94347" lon="6.549">
        <ele>1492.58</ele>
        <time>2013-05-04T11:24:58Z</time>
      </trkpt>
      <trkpt lat="44.9437" lon="6.54904">
        <ele>1490.66</ele>
        <time>2013-05-04T11:25:07Z</time>
      </trkpt>
      <trkpt lat="44.94373" lon="6.54903">
        <ele>1490.66</ele>
        <time>2013-05-04T11:25:10Z</time>
      </trkpt>
      <trkpt lat="44.94381" lon="6.54901">
        <ele>1489.7</ele>
        <time>2013-05-04T11:25:20Z</time>
      </trkpt>
      <trkpt lat="44.94382" lon="6.549">
        <ele>1489.7</ele>
        <time>2013-05-04T11:25:22Z</time>
      </trkpt>
      <trkpt lat="44.94386" lon="6.54896">
        <ele>1489.22</ele>
        <time>2013-05-04T11:25:33Z</time>
      </trkpt>
      <trkpt lat="44.9439" lon="6.54896">
        <ele>1488.74</ele>
        <time>2013-05-04T11:25:42Z</time>
      </trkpt>
      <trkpt lat="44.9441" lon="6.54899">
        <ele>1486.82</ele>
        <time>2013-05-04T11:25:51Z</time>
      </trkpt>
      <trkpt lat="44.94423" lon="6.54901">
        <ele>1483.45</ele>
        <time>2013-05-04T11:25:55Z</time>
      </trkpt>
      <trkpt lat="44.94433" lon="6.54903">
        <ele>1480.09</ele>
        <time>2013-05-04T11:25:59Z</time>
      </trkpt>
      <trkpt lat="44.94437" lon="6.54911">
        <ele>1476.24</ele>
        <time>2013-05-04T11:26:03Z</time>
      </trkpt>
      <trkpt lat="44.94438" lon="6.54911">
        <ele>1476.24</ele>
        <time>2013-05-04T11:26:04Z</time>
      </trkpt>
      <trkpt lat="44.94442" lon="6.54908">
        <ele>1476.24</ele>
        <time>2013-05-04T11:26:06Z</time>
      </trkpt>
      <trkpt lat="44.94449" lon="6.54905">
        <ele>1475.76</ele>
        <time>2013-05-04T11:26:17Z</time>
      </trkpt>
      <trkpt lat="44.94449" lon="6.54904">
        <ele>1475.28</ele>
        <time>2013-05-04T11:26:28Z</time>
      </trkpt>
      <trkpt lat="44.9445" lon="6.54904">
        <ele>1475.28</ele>
        <time>2013-05-04T11:26:30Z</time>
      </trkpt>
      <trkpt lat="44.94453" lon="6.54902">
        <ele>1475.28</ele>
        <time>2013-05-04T11:26:39Z</time>
      </trkpt>
      <trkpt lat="44.94453" lon="6.54902">
        <ele>1475.28</ele>
        <time>2013-05-04T11:26:54Z</time>
      </trkpt>
      <trkpt lat="44.94454" lon="6.54901">
        <ele>1475.28</ele>
        <time>2013-05-04T11:27:09Z</time>
      </trkpt>
      <trkpt lat="44.94455" lon="6.54901">
        <ele>1476.24</ele>
        <time>2013-05-04T11:27:21Z</time>
      </trkpt>
      <trkpt lat="44.94455" lon="6.54901">
        <ele>1475.76</ele>
        <time>2013-05-04T11:27:44Z</time>
      </trkpt>
      <trkpt lat="44.94454" lon="6.54902">
        <ele>1475.76</ele>
        <time>2013-05-04T11:28:04Z</time>
      </trkpt>
      <trkpt lat="44.94454" lon="6.54902">
        <ele>1475.76</ele>
        <time>2013-05-04T11:28:12Z</time>
      </trkpt>
      <trkpt lat="44.94466" lon="6.54926">
        <ele>1472.88</ele>
        <time>2013-05-04T11:28:20Z</time>
      </trkpt>
      <trkpt lat="44.94477" lon="6.54944">
        <ele>1468.07</ele>
        <time>2013-05-04T11:28:23Z</time>
      </trkpt>
      <trkpt lat="44.94488" lon="6.54962">
        <ele>1463.74</ele>
        <time>2013-05-04T11:28:26Z</time>
      </trkpt>
      <trkpt lat="44.94491" lon="6.54968">
        <ele>1463.74</ele>
        <time>2013-05-04T11:28:27Z</time>
      </trkpt>
      <trkpt lat="44.94498" lon="6.54981">
        <ele>1458.94</ele>
        <time>2013-05-04T11:28:29Z</time>
      </trkpt>
      <trkpt lat="44.94501" lon="6.54989">
        <ele>1454.61</ele>
        <time>2013-05-04T11:28:31Z</time>
      </trkpt>
      <trkpt lat="44.94505" lon="6.54993">
        <ele>1454.13</ele>
        <time>2013-05-04T11:28:33Z</time>
      </trkpt>
      <trkpt lat="44.94515" lon="6.55017">
        <ele>1450.77</ele>
        <time>2013-05-04T11:28:37Z</time>
      </trkpt>
      <trkpt lat="44.94519" lon="6.55031">
        <ele>1446.92</ele>
        <time>2013-05-04T11:28:39Z</time>
      </trkpt>
      <trkpt lat="44.94527" lon="6.55046">
        <ele>1443.08</ele>
        <time>2013-05-04T11:28:42Z</time>
      </trkpt>
      <trkpt lat="44.94539" lon="6.5507">
        <ele>1439.23</ele>
        <time>2013-05-04T11:28:46Z</time>
      </trkpt>
      <trkpt lat="44.94543" lon="6.55073">
        <ele>1439.23</ele>
        <time>2013-05-04T11:28:47Z</time>
      </trkpt>
      <trkpt lat="44.9455" lon="6.55095">
        <ele>1434.91</ele>
        <time>2013-05-04T11:28:52Z</time>
      </trkpt>
      <trkpt lat="44.94542" lon="6.551">
        <ele>1433.46</ele>
        <time>2013-05-04T11:28:55Z</time>
      </trkpt>
      <trkpt lat="44.94541" lon="6.55101">
        <ele>1433.94</ele>
        <time>2013-05-04T11:29:07Z</time>
      </trkpt>
      <trkpt lat="44.94542" lon="6.55101">
        <ele>1433.94</ele>
        <time>2013-05-04T11:29:17Z</time>
      </trkpt>
      <trkpt lat="44.94543" lon="6.55124">
        <ele>1431.54</ele>
        <time>2013-05-04T11:29:24Z</time>
      </trkpt>
      <trkpt lat="44.94558" lon="6.55152">
        <ele>1428.18</ele>
        <time>2013-05-04T11:29:29Z</time>
      </trkpt>
      <trkpt lat="44.94562" lon="6.5517">
        <ele>1425.29</ele>
        <time>2013-05-04T11:29:32Z</time>
      </trkpt>
      <trkpt lat="44.94557" lon="6.55188">
        <ele>1422.89</ele>
        <time>2013-05-04T11:29:35Z</time>
      </trkpt>
      <trkpt lat="44.9455" lon="6.55205">
        <ele>1420.97</ele>
        <time>2013-05-04T11:29:43Z</time>
      </trkpt>
      <trkpt lat="44.94548" lon="6.55209">
        <ele>1420.97</ele>
        <time>2013-05-04T11:29:58Z</time>
      </trkpt>
      <trkpt lat="44.94547" lon="6.55208">
        <ele>1420.97</ele>
        <time>2013-05-04T11:30:15Z</time>
      </trkpt>
      <trkpt lat="44.94547" lon="6.55208">
        <ele>1420.97</ele>
        <time>2013-05-04T11:30:34Z</time>
      </trkpt>
      <trkpt lat="44.94546" lon="6.55208">
        <ele>1420.97</ele>
        <time>2013-05-04T11:30:41Z</time>
      </trkpt>
      <trkpt lat="44.94546" lon="6.55209">
        <ele>1420.97</ele>
        <time>2013-05-04T11:30:43Z</time>
      </trkpt>
      <trkpt lat="44.94545" lon="6.55211">
        <ele>1420.97</ele>
        <time>2013-05-04T11:30:45Z</time>
      </trkpt>
      <trkpt lat="44.94544" lon="6.55218">
        <ele>1420.49</ele>
        <time>2013-05-04T11:30:50Z</time>
      </trkpt>
      <trkpt lat="44.94544" lon="6.55239">
        <ele>1420</ele>
        <time>2013-05-04T11:31:05Z</time>
      </trkpt>
      <trkpt lat="44.94546" lon="6.55243">
        <ele>1420</ele>
        <time>2013-05-04T11:31:10Z</time>
      </trkpt>
      <trkpt lat="44.94545" lon="6.55249">
        <ele>1420.49</ele>
        <time>2013-05-04T11:31:14Z</time>
      </trkpt>
      <trkpt lat="44.94544" lon="6.55258">
        <ele>1420</ele>
        <time>2013-05-04T11:31:21Z</time>
      </trkpt>
      <trkpt lat="44.94539" lon="6.55274">
        <ele>1420</ele>
        <time>2013-05-04T11:31:35Z</time>
      </trkpt>
      <trkpt lat="44.94536" lon="6.55277">
        <ele>1420</ele>
        <time>2013-05-04T11:31:45Z</time>
      </trkpt>
      <trkpt lat="44.94537" lon="6.55279">
        <ele>1420</ele>
        <time>2013-05-04T11:31:55Z</time>
      </trkpt>
      <trkpt lat="44.94537" lon="6.5528">
        <ele>1419.04</ele>
        <time>2013-05-04T11:32:08Z</time>
      </trkpt>
      <trkpt lat="44.94537" lon="6.5528">
        <ele>1419.04</ele>
        <time>2013-05-04T11:32:33Z</time>
      </trkpt>
      <trkpt lat="44.94536" lon="6.5528">
        <ele>1419.04</ele>
        <time>2013-05-04T11:33:00Z</time>
      </trkpt>
      <trkpt lat="44.94536" lon="6.5528">
        <ele>1419.52</ele>
        <time>2013-05-04T11:33:20Z</time>
      </trkpt>
      <trkpt lat="44.94536" lon="6.5528">
        <ele>1419.04</ele>
        <time>2013-05-04T11:33:48Z</time>
      </trkpt>
      <trkpt lat="44.94537" lon="6.5528">
        <ele>1419.04</ele>
        <time>2013-05-04T11:34:15Z</time>
      </trkpt>
      <trkpt lat="44.94537" lon="6.5528">
        <ele>1419.04</ele>
        <time>2013-05-04T11:34:43Z</time>
      </trkpt>
      <trkpt lat="44.94536" lon="6.55279">
        <ele>1418.08</ele>
        <time>2013-05-04T11:35:05Z</time>
      </trkpt>
      <trkpt lat="44.94536" lon="6.55278">
        <ele>1419.04</ele>
        <time>2013-05-04T11:35:28Z</time>
      </trkpt>
      <trkpt lat="44.94536" lon="6.55278">
        <ele>1419.04</ele>
        <time>2013-05-04T11:35:59Z</time>
      </trkpt>
      <trkpt lat="44.94536" lon="6.55278">
        <ele>1419.04</ele>
        <time>2013-05-04T11:36:27Z</time>
      </trkpt>
      <trkpt lat="44.94536" lon="6.55278">
        <ele>1419.04</ele>
        <time>2013-05-04T11:36:59Z</time>
      </trkpt>
      <trkpt lat="44.94536" lon="6.55278">
        <ele>1419.04</ele>
        <time>2013-05-04T11:37:28Z</time>
      </trkpt>
      <trkpt lat="44.94536" lon="6.55278">
        <ele>1419.04</ele>
        <time>2013-05-04T11:37:56Z</time>
      </trkpt>
      <trkpt lat="44.94536" lon="6.55278">
        <ele>1419.04</ele>
        <time>2013-05-04T11:38:25Z</time>
      </trkpt>
      <trkpt lat="44.94536" lon="6.55278">
        <ele>1418.56</ele>
        <time>2013-05-04T11:38:54Z</time>
      </trkpt>
      <trkpt lat="44.94536" lon="6.55278">
        <ele>1419.52</ele>
        <time>2013-05-04T11:39:19Z</time>
      </trkpt>
      <trkpt lat="44.94536" lon="6.55278">
        <ele>1419.04</ele>
        <time>2013-05-04T11:39:49Z</time>
      </trkpt>
      <trkpt lat="44.94536" lon="6.55278">
        <ele>1418.56</ele>
        <time>2013-05-04T11:40:19Z</time>
      </trkpt>
      <trkpt lat="44.94536" lon="6.55278">
        <ele>1418.56</ele>
        <time>2013-05-04T11:40:45Z</time>
      </trkpt>
      <trkpt lat="44.94536" lon="6.55278">
        <ele>1418.56</ele>
        <time>2013-05-04T11:41:15Z</time>
      </trkpt>
      <trkpt lat="44.94536" lon="6.55278">
        <ele>1419.04</ele>
        <time>2013-05-04T11:41:48Z</time>
      </trkpt>
      <trkpt lat="44.94536" lon="6.55278">
        <ele>1419.04</ele>
        <time>2013-05-04T11:42:17Z</time>
      </trkpt>
      <trkpt lat="44.94536" lon="6.55278">
        <ele>1419.04</ele>
        <time>2013-05-04T11:42:49Z</time>
      </trkpt>
      <trkpt lat="44.94536" lon="6.55278">
        <ele>1419.04</ele>
        <time>2013-05-04T11:43:22Z</time>
      </trkpt>
      <trkpt lat="44.94535" lon="6.55278">
        <ele>1419.04</ele>
        <time>2013-05-04T11:43:52Z</time>
      </trkpt>
      <trkpt lat="44.94536" lon="6.55278">
        <ele>1419.04</ele>
        <time>2013-05-04T11:44:19Z</time>
      </trkpt>
      <trkpt lat="44.94536" lon="6.55278">
        <ele>1419.04</ele>
        <time>2013-05-04T11:44:55Z</time>
      </trkpt>
      <trkpt lat="44.94536" lon="6.55279">
        <ele>1419.52</ele>
        <time>2013-05-04T11:45:28Z</time>
      </trkpt>
      <trkpt lat="44.94536" lon="6.55279">
        <ele>1419.04</ele>
        <time>2013-05-04T11:45:58Z</time>
      </trkpt>
      <trkpt lat="44.94536" lon="6.55278">
        <ele>1419.04</ele>
        <time>2013-05-04T11:46:25Z</time>
      </trkpt>
      <trkpt lat="44.94536" lon="6.55278">
        <ele>1419.04</ele>
        <time>2013-05-04T11:46:44Z</time>
      </trkpt>
      <trkpt lat="44.94535" lon="6.5528">
        <ele>1419.04</ele>
        <time>2013-05-04T11:47:05Z</time>
      </trkpt>
      <trkpt lat="44.94534" lon="6.55279">
        <ele>1419.04</ele>
        <time>2013-05-04T11:47:20Z</time>
      </trkpt>
      <trkpt lat="44.94534" lon="6.55279">
        <ele>1419.52</ele>
        <time>2013-05-04T11:47:43Z</time>
      </trkpt>
      <trkpt lat="44.94534" lon="6.55279">
        <ele>1419.52</ele>
        <time>2013-05-04T11:47:49Z</time>
      </trkpt>
    </trkseg>
  </trk>
</gpx>